<?xml version="1.0" encoding="UTF-8" standalone="no" ?>
<gpx xmlns="http://www.topografix.com/GPX/1/1" xmlns:xsi="http://www.w3.org/2001/XMLSchema-instance" xsi:schemaLocation="http://www.topografix.com/GPX/1/1 http://www.topografix.com/GPX/1/1/gpx.xsd" version="1.1" creator="VisuGPX - https://www.visugpx.com">
  <metadata>
    <name>col de porte etc</name>
    <desc><![CDATA[Col de porte et mille martyrs]]></desc>
  </metadata>
  <trk>
    <name><![CDATA[20200812_110051.gpx]]></name>
    <trkseg>
      <trkpt lat="45.4384" lon="5.7034">
        <ele>705.8037</ele>
        <time>2020-08-12T09:01:21Z</time>
      </trkpt>
      <trkpt lat="45.4384" lon="5.7034">
        <ele>705.8037</ele>
        <time>2020-08-12T09:01:21Z</time>
      </trkpt>
      <trkpt lat="45.43821" lon="5.70336">
        <ele>708.28784</ele>
        <time>2020-08-12T09:01:52Z</time>
      </trkpt>
      <trkpt lat="45.43818" lon="5.70335">
        <ele>707.8483</ele>
        <time>2020-08-12T09:02:06Z</time>
      </trkpt>
      <trkpt lat="45.43813" lon="5.70324">
        <ele>706.92224</ele>
        <time>2020-08-12T09:02:51Z</time>
      </trkpt>
      <trkpt lat="45.4381" lon="5.70318">
        <ele>708.6857</ele>
        <time>2020-08-12T09:02:56Z</time>
      </trkpt>
      <trkpt lat="45.43816" lon="5.70326">
        <ele>710.7253</ele>
        <time>2020-08-12T09:03:26Z</time>
      </trkpt>
      <trkpt lat="45.43823" lon="5.70327">
        <ele>711.3477</ele>
        <time>2020-08-12T09:03:32Z</time>
      </trkpt>
      <trkpt lat="45.43841" lon="5.70319">
        <ele>711.6226</ele>
        <time>2020-08-12T09:03:41Z</time>
      </trkpt>
      <trkpt lat="45.43848" lon="5.70311">
        <ele>712.83453</ele>
        <time>2020-08-12T09:03:46Z</time>
      </trkpt>
      <trkpt lat="45.43852" lon="5.70306">
        <ele>711.6483</ele>
        <time>2020-08-12T09:03:51Z</time>
      </trkpt>
      <trkpt lat="45.43853" lon="5.70292">
        <ele>714.0261</ele>
        <time>2020-08-12T09:03:56Z</time>
      </trkpt>
      <trkpt lat="45.43855" lon="5.70285">
        <ele>715.5719</ele>
        <time>2020-08-12T09:04:01Z</time>
      </trkpt>
      <trkpt lat="45.43858" lon="5.70276">
        <ele>716.2737</ele>
        <time>2020-08-12T09:04:07Z</time>
      </trkpt>
      <trkpt lat="45.43872" lon="5.70262">
        <ele>717.6816</ele>
        <time>2020-08-12T09:04:17Z</time>
      </trkpt>
      <trkpt lat="45.439" lon="5.70252">
        <ele>718.2037</ele>
        <time>2020-08-12T09:04:26Z</time>
      </trkpt>
      <trkpt lat="45.43918" lon="5.70249">
        <ele>718.01324</ele>
        <time>2020-08-12T09:04:31Z</time>
      </trkpt>
      <trkpt lat="45.43931" lon="5.70241">
        <ele>718.2197</ele>
        <time>2020-08-12T09:04:36Z</time>
      </trkpt>
      <trkpt lat="45.43946" lon="5.70228">
        <ele>719.10455</ele>
        <time>2020-08-12T09:04:41Z</time>
      </trkpt>
      <trkpt lat="45.43956" lon="5.70222">
        <ele>719.49725</ele>
        <time>2020-08-12T09:04:46Z</time>
      </trkpt>
      <trkpt lat="45.43966" lon="5.70212">
        <ele>719.5871</ele>
        <time>2020-08-12T09:04:51Z</time>
      </trkpt>
      <trkpt lat="45.43971" lon="5.70213">
        <ele>715.9656</ele>
        <time>2020-08-12T09:04:56Z</time>
      </trkpt>
      <trkpt lat="45.43971" lon="5.70245">
        <ele>715.0392</ele>
        <time>2020-08-12T09:05:02Z</time>
      </trkpt>
      <trkpt lat="45.4396" lon="5.70311">
        <ele>709.9039</ele>
        <time>2020-08-12T09:05:12Z</time>
      </trkpt>
      <trkpt lat="45.44008" lon="5.70353">
        <ele>705.82404</ele>
        <time>2020-08-12T09:05:21Z</time>
      </trkpt>
      <trkpt lat="45.44041" lon="5.70339">
        <ele>704.7472</ele>
        <time>2020-08-12T09:05:26Z</time>
      </trkpt>
      <trkpt lat="45.4407" lon="5.70371">
        <ele>700.3465</ele>
        <time>2020-08-12T09:05:31Z</time>
      </trkpt>
      <trkpt lat="45.44102" lon="5.70388">
        <ele>700.48865</ele>
        <time>2020-08-12T09:05:36Z</time>
      </trkpt>
      <trkpt lat="45.44127" lon="5.70374">
        <ele>700.7966</ele>
        <time>2020-08-12T09:05:41Z</time>
      </trkpt>
      <trkpt lat="45.44151" lon="5.70359">
        <ele>701.46906</ele>
        <time>2020-08-12T09:05:47Z</time>
      </trkpt>
      <trkpt lat="45.44178" lon="5.70345">
        <ele>701.5695</ele>
        <time>2020-08-12T09:05:57Z</time>
      </trkpt>
      <trkpt lat="45.44183" lon="5.70366">
        <ele>700.6843</ele>
        <time>2020-08-12T09:06:06Z</time>
      </trkpt>
      <trkpt lat="45.44178" lon="5.70381">
        <ele>700.5667</ele>
        <time>2020-08-12T09:06:11Z</time>
      </trkpt>
      <trkpt lat="45.44174" lon="5.70405">
        <ele>700.045</ele>
        <time>2020-08-12T09:06:16Z</time>
      </trkpt>
      <trkpt lat="45.44176" lon="5.70438">
        <ele>698.2662</ele>
        <time>2020-08-12T09:06:21Z</time>
      </trkpt>
      <trkpt lat="45.44179" lon="5.70486">
        <ele>696.70654</ele>
        <time>2020-08-12T09:06:26Z</time>
      </trkpt>
      <trkpt lat="45.44185" lon="5.70541">
        <ele>694.1584</ele>
        <time>2020-08-12T09:06:32Z</time>
      </trkpt>
      <trkpt lat="45.44215" lon="5.70659">
        <ele>688.3513</ele>
        <time>2020-08-12T09:06:42Z</time>
      </trkpt>
      <trkpt lat="45.44129" lon="5.70711">
        <ele>682.73474</ele>
        <time>2020-08-12T09:06:51Z</time>
      </trkpt>
      <trkpt lat="45.44071" lon="5.70732">
        <ele>678.95013</ele>
        <time>2020-08-12T09:06:56Z</time>
      </trkpt>
      <trkpt lat="45.44013" lon="5.70747">
        <ele>672.9717</ele>
        <time>2020-08-12T09:07:01Z</time>
      </trkpt>
      <trkpt lat="45.43952" lon="5.70756">
        <ele>667.67267</ele>
        <time>2020-08-12T09:07:06Z</time>
      </trkpt>
      <trkpt lat="45.43899" lon="5.70793">
        <ele>664.37836</ele>
        <time>2020-08-12T09:07:11Z</time>
      </trkpt>
      <trkpt lat="45.43846" lon="5.70825">
        <ele>662.8744</ele>
        <time>2020-08-12T09:07:16Z</time>
      </trkpt>
      <trkpt lat="45.43787" lon="5.70823">
        <ele>659.9735</ele>
        <time>2020-08-12T09:07:21Z</time>
      </trkpt>
      <trkpt lat="45.43717" lon="5.70824">
        <ele>657.3845</ele>
        <time>2020-08-12T09:07:27Z</time>
      </trkpt>
      <trkpt lat="45.4362" lon="5.70848">
        <ele>650.3458</ele>
        <time>2020-08-12T09:07:36Z</time>
      </trkpt>
      <trkpt lat="45.43569" lon="5.70899">
        <ele>645.39966</ele>
        <time>2020-08-12T09:07:41Z</time>
      </trkpt>
      <trkpt lat="45.43535" lon="5.70942">
        <ele>640.3735</ele>
        <time>2020-08-12T09:07:46Z</time>
      </trkpt>
      <trkpt lat="45.43499" lon="5.70979">
        <ele>640.3042</ele>
        <time>2020-08-12T09:07:51Z</time>
      </trkpt>
      <trkpt lat="45.43457" lon="5.70976">
        <ele>640.205</ele>
        <time>2020-08-12T09:07:56Z</time>
      </trkpt>
      <trkpt lat="45.43409" lon="5.70979">
        <ele>638.7431</ele>
        <time>2020-08-12T09:08:01Z</time>
      </trkpt>
      <trkpt lat="45.43362" lon="5.70985">
        <ele>636.6363</ele>
        <time>2020-08-12T09:08:06Z</time>
      </trkpt>
      <trkpt lat="45.43317" lon="5.70976">
        <ele>637.936</ele>
        <time>2020-08-12T09:08:12Z</time>
      </trkpt>
      <trkpt lat="45.43262" lon="5.70968">
        <ele>638.5171</ele>
        <time>2020-08-12T09:08:22Z</time>
      </trkpt>
      <trkpt lat="45.4323" lon="5.70945">
        <ele>636.1064</ele>
        <time>2020-08-12T09:08:31Z</time>
      </trkpt>
      <trkpt lat="45.43214" lon="5.70924">
        <ele>636.1917</ele>
        <time>2020-08-12T09:08:36Z</time>
      </trkpt>
      <trkpt lat="45.4319" lon="5.70905">
        <ele>635.67786</ele>
        <time>2020-08-12T09:08:41Z</time>
      </trkpt>
      <trkpt lat="45.43168" lon="5.70893">
        <ele>635.90063</ele>
        <time>2020-08-12T09:08:46Z</time>
      </trkpt>
      <trkpt lat="45.43143" lon="5.7088">
        <ele>636.59576</ele>
        <time>2020-08-12T09:08:51Z</time>
      </trkpt>
      <trkpt lat="45.43118" lon="5.70861">
        <ele>636.6693</ele>
        <time>2020-08-12T09:08:57Z</time>
      </trkpt>
      <trkpt lat="45.43058" lon="5.7086">
        <ele>635.23004</ele>
        <time>2020-08-12T09:09:07Z</time>
      </trkpt>
      <trkpt lat="45.43016" lon="5.70845">
        <ele>633.308</ele>
        <time>2020-08-12T09:09:16Z</time>
      </trkpt>
      <trkpt lat="45.42992" lon="5.70834">
        <ele>629.5538</ele>
        <time>2020-08-12T09:09:21Z</time>
      </trkpt>
      <trkpt lat="45.42984" lon="5.70828">
        <ele>625.5764</ele>
        <time>2020-08-12T09:09:26Z</time>
      </trkpt>
      <trkpt lat="45.42977" lon="5.70826">
        <ele>624.59814</ele>
        <time>2020-08-12T09:09:46Z</time>
      </trkpt>
      <trkpt lat="45.42955" lon="5.70825">
        <ele>625.63715</ele>
        <time>2020-08-12T09:09:52Z</time>
      </trkpt>
      <trkpt lat="45.42893" lon="5.70787">
        <ele>623.60925</ele>
        <time>2020-08-12T09:10:02Z</time>
      </trkpt>
      <trkpt lat="45.42839" lon="5.70744">
        <ele>623.7009</ele>
        <time>2020-08-12T09:10:11Z</time>
      </trkpt>
      <trkpt lat="45.42793" lon="5.70727">
        <ele>620.1677</ele>
        <time>2020-08-12T09:10:16Z</time>
      </trkpt>
      <trkpt lat="45.42756" lon="5.70716">
        <ele>619.62225</ele>
        <time>2020-08-12T09:10:21Z</time>
      </trkpt>
      <trkpt lat="45.42715" lon="5.70701">
        <ele>617.7398</ele>
        <time>2020-08-12T09:10:26Z</time>
      </trkpt>
      <trkpt lat="45.42668" lon="5.70689">
        <ele>609.7088</ele>
        <time>2020-08-12T09:10:31Z</time>
      </trkpt>
      <trkpt lat="45.42619" lon="5.7066">
        <ele>607.2298</ele>
        <time>2020-08-12T09:10:37Z</time>
      </trkpt>
      <trkpt lat="45.42539" lon="5.70623">
        <ele>607.63446</ele>
        <time>2020-08-12T09:10:47Z</time>
      </trkpt>
      <trkpt lat="45.42483" lon="5.7059">
        <ele>605.8051</ele>
        <time>2020-08-12T09:10:56Z</time>
      </trkpt>
      <trkpt lat="45.42456" lon="5.70562">
        <ele>604.91394</ele>
        <time>2020-08-12T09:11:01Z</time>
      </trkpt>
      <trkpt lat="45.42439" lon="5.70536">
        <ele>603.23065</ele>
        <time>2020-08-12T09:11:06Z</time>
      </trkpt>
      <trkpt lat="45.42421" lon="5.70519">
        <ele>598.8352</ele>
        <time>2020-08-12T09:11:11Z</time>
      </trkpt>
      <trkpt lat="45.424" lon="5.70517">
        <ele>602.5259</ele>
        <time>2020-08-12T09:11:16Z</time>
      </trkpt>
      <trkpt lat="45.42357" lon="5.70491">
        <ele>599.76556</ele>
        <time>2020-08-12T09:11:22Z</time>
      </trkpt>
      <trkpt lat="45.42312" lon="5.70397">
        <ele>596.09766</ele>
        <time>2020-08-12T09:11:32Z</time>
      </trkpt>
      <trkpt lat="45.42231" lon="5.70387">
        <ele>591.6769</ele>
        <time>2020-08-12T09:11:41Z</time>
      </trkpt>
      <trkpt lat="45.42189" lon="5.70361">
        <ele>587.66235</ele>
        <time>2020-08-12T09:11:46Z</time>
      </trkpt>
      <trkpt lat="45.42148" lon="5.70336">
        <ele>586.67615</ele>
        <time>2020-08-12T09:11:51Z</time>
      </trkpt>
      <trkpt lat="45.42102" lon="5.70306">
        <ele>582.4061</ele>
        <time>2020-08-12T09:11:56Z</time>
      </trkpt>
      <trkpt lat="45.42049" lon="5.70319">
        <ele>579.847</ele>
        <time>2020-08-12T09:12:01Z</time>
      </trkpt>
      <trkpt lat="45.41994" lon="5.70319">
        <ele>578.9345</ele>
        <time>2020-08-12T09:12:06Z</time>
      </trkpt>
      <trkpt lat="45.41937" lon="5.70302">
        <ele>576.20245</ele>
        <time>2020-08-12T09:12:11Z</time>
      </trkpt>
      <trkpt lat="45.41871" lon="5.70266">
        <ele>570.77655</ele>
        <time>2020-08-12T09:12:17Z</time>
      </trkpt>
      <trkpt lat="45.41787" lon="5.70187">
        <ele>565.55914</ele>
        <time>2020-08-12T09:12:27Z</time>
      </trkpt>
      <trkpt lat="45.41744" lon="5.70263">
        <ele>561.5757</ele>
        <time>2020-08-12T09:12:36Z</time>
      </trkpt>
      <trkpt lat="45.41737" lon="5.70344">
        <ele>560.2792</ele>
        <time>2020-08-12T09:12:41Z</time>
      </trkpt>
      <trkpt lat="45.41711" lon="5.70397">
        <ele>556.9745</ele>
        <time>2020-08-12T09:12:46Z</time>
      </trkpt>
      <trkpt lat="45.41661" lon="5.70406">
        <ele>551.5265</ele>
        <time>2020-08-12T09:12:51Z</time>
      </trkpt>
      <trkpt lat="45.41613" lon="5.70404">
        <ele>548.86456</ele>
        <time>2020-08-12T09:12:56Z</time>
      </trkpt>
      <trkpt lat="45.41557" lon="5.70402">
        <ele>547.9129</ele>
        <time>2020-08-12T09:13:02Z</time>
      </trkpt>
      <trkpt lat="45.41468" lon="5.7039">
        <ele>549.624</ele>
        <time>2020-08-12T09:13:12Z</time>
      </trkpt>
      <trkpt lat="45.41393" lon="5.70354">
        <ele>546.0129</ele>
        <time>2020-08-12T09:13:21Z</time>
      </trkpt>
      <trkpt lat="45.41349" lon="5.70343">
        <ele>540.74475</ele>
        <time>2020-08-12T09:13:26Z</time>
      </trkpt>
      <trkpt lat="45.41311" lon="5.7031">
        <ele>540.92633</ele>
        <time>2020-08-12T09:13:31Z</time>
      </trkpt>
      <trkpt lat="45.4127" lon="5.70286">
        <ele>542.7527</ele>
        <time>2020-08-12T09:13:36Z</time>
      </trkpt>
      <trkpt lat="45.41225" lon="5.70301">
        <ele>540.8722</ele>
        <time>2020-08-12T09:13:41Z</time>
      </trkpt>
      <trkpt lat="45.41189" lon="5.70351">
        <ele>540.8722</ele>
        <time>2020-08-12T09:13:47Z</time>
      </trkpt>
      <trkpt lat="45.41102" lon="5.70329">
        <ele>538.26135</ele>
        <time>2020-08-12T09:13:57Z</time>
      </trkpt>
      <trkpt lat="45.41029" lon="5.70319">
        <ele>536.5617</ele>
        <time>2020-08-12T09:14:06Z</time>
      </trkpt>
      <trkpt lat="45.40999" lon="5.7036">
        <ele>537.6881</ele>
        <time>2020-08-12T09:14:11Z</time>
      </trkpt>
      <trkpt lat="45.41001" lon="5.70423">
        <ele>537.22736</ele>
        <time>2020-08-12T09:14:16Z</time>
      </trkpt>
      <trkpt lat="45.4102" lon="5.70482">
        <ele>532.92816</ele>
        <time>2020-08-12T09:14:21Z</time>
      </trkpt>
      <trkpt lat="45.4104" lon="5.70546">
        <ele>530.8043</ele>
        <time>2020-08-12T09:14:26Z</time>
      </trkpt>
      <trkpt lat="45.41067" lon="5.7061">
        <ele>527.9867</ele>
        <time>2020-08-12T09:14:31Z</time>
      </trkpt>
      <trkpt lat="45.41089" lon="5.7067">
        <ele>526.1689</ele>
        <time>2020-08-12T09:14:36Z</time>
      </trkpt>
      <trkpt lat="45.41108" lon="5.70744">
        <ele>526.63153</ele>
        <time>2020-08-12T09:14:42Z</time>
      </trkpt>
      <trkpt lat="45.41133" lon="5.70854">
        <ele>528.68176</ele>
        <time>2020-08-12T09:14:51Z</time>
      </trkpt>
      <trkpt lat="45.41146" lon="5.70909">
        <ele>528.75073</ele>
        <time>2020-08-12T09:14:56Z</time>
      </trkpt>
      <trkpt lat="45.41142" lon="5.70956">
        <ele>528.1278</ele>
        <time>2020-08-12T09:15:01Z</time>
      </trkpt>
      <trkpt lat="45.41118" lon="5.70984">
        <ele>525.7529</ele>
        <time>2020-08-12T09:15:06Z</time>
      </trkpt>
      <trkpt lat="45.41081" lon="5.70998">
        <ele>525.4091</ele>
        <time>2020-08-12T09:15:11Z</time>
      </trkpt>
      <trkpt lat="45.41043" lon="5.71014">
        <ele>524.1857</ele>
        <time>2020-08-12T09:15:16Z</time>
      </trkpt>
      <trkpt lat="45.40999" lon="5.71018">
        <ele>522.6664</ele>
        <time>2020-08-12T09:15:21Z</time>
      </trkpt>
      <trkpt lat="45.40942" lon="5.71009">
        <ele>520.61566</ele>
        <time>2020-08-12T09:15:27Z</time>
      </trkpt>
      <trkpt lat="45.40849" lon="5.71049">
        <ele>517.81726</ele>
        <time>2020-08-12T09:15:37Z</time>
      </trkpt>
      <trkpt lat="45.4077" lon="5.71095">
        <ele>511.06345</ele>
        <time>2020-08-12T09:15:46Z</time>
      </trkpt>
      <trkpt lat="45.40732" lon="5.71107">
        <ele>511.67746</ele>
        <time>2020-08-12T09:15:51Z</time>
      </trkpt>
      <trkpt lat="45.4068" lon="5.71115">
        <ele>509.2279</ele>
        <time>2020-08-12T09:15:56Z</time>
      </trkpt>
      <trkpt lat="45.40632" lon="5.71145">
        <ele>507.43707</ele>
        <time>2020-08-12T09:16:01Z</time>
      </trkpt>
      <trkpt lat="45.40586" lon="5.71193">
        <ele>498.98297</ele>
        <time>2020-08-12T09:16:06Z</time>
      </trkpt>
      <trkpt lat="45.40536" lon="5.7126">
        <ele>495.02252</ele>
        <time>2020-08-12T09:16:12Z</time>
      </trkpt>
      <trkpt lat="45.40431" lon="5.71332">
        <ele>485.69904</ele>
        <time>2020-08-12T09:16:22Z</time>
      </trkpt>
      <trkpt lat="45.4036" lon="5.71388">
        <ele>482.5871</ele>
        <time>2020-08-12T09:16:31Z</time>
      </trkpt>
      <trkpt lat="45.40389" lon="5.71454">
        <ele>479.7308</ele>
        <time>2020-08-12T09:16:36Z</time>
      </trkpt>
      <trkpt lat="45.40425" lon="5.71522">
        <ele>476.91083</ele>
        <time>2020-08-12T09:16:41Z</time>
      </trkpt>
      <trkpt lat="45.40455" lon="5.71592">
        <ele>472.05005</ele>
        <time>2020-08-12T09:16:46Z</time>
      </trkpt>
      <trkpt lat="45.4045" lon="5.71668">
        <ele>466.4621</ele>
        <time>2020-08-12T09:16:51Z</time>
      </trkpt>
      <trkpt lat="45.40424" lon="5.71733">
        <ele>465.26508</ele>
        <time>2020-08-12T09:16:56Z</time>
      </trkpt>
      <trkpt lat="45.40439" lon="5.71812">
        <ele>460.5866</ele>
        <time>2020-08-12T09:17:01Z</time>
      </trkpt>
      <trkpt lat="45.40469" lon="5.71909">
        <ele>451.26526</ele>
        <time>2020-08-12T09:17:07Z</time>
      </trkpt>
      <trkpt lat="45.40463" lon="5.72026">
        <ele>447.9369</ele>
        <time>2020-08-12T09:17:16Z</time>
      </trkpt>
      <trkpt lat="45.40423" lon="5.72061">
        <ele>448.41174</ele>
        <time>2020-08-12T09:17:21Z</time>
      </trkpt>
      <trkpt lat="45.40391" lon="5.72092">
        <ele>440.96442</ele>
        <time>2020-08-12T09:17:26Z</time>
      </trkpt>
      <trkpt lat="45.40375" lon="5.72113">
        <ele>439.1545</ele>
        <time>2020-08-12T09:17:31Z</time>
      </trkpt>
      <trkpt lat="45.404" lon="5.72086">
        <ele>411.69632</ele>
        <time>2020-08-12T09:22:01Z</time>
      </trkpt>
      <trkpt lat="45.4042" lon="5.72067">
        <ele>413.4703</ele>
        <time>2020-08-12T09:22:06Z</time>
      </trkpt>
      <trkpt lat="45.40441" lon="5.72043">
        <ele>413.46396</ele>
        <time>2020-08-12T09:22:11Z</time>
      </trkpt>
      <trkpt lat="45.40463" lon="5.7202">
        <ele>413.4872</ele>
        <time>2020-08-12T09:22:16Z</time>
      </trkpt>
      <trkpt lat="45.40483" lon="5.71998">
        <ele>413.23694</ele>
        <time>2020-08-12T09:22:21Z</time>
      </trkpt>
      <trkpt lat="45.40495" lon="5.71975">
        <ele>412.32565</ele>
        <time>2020-08-12T09:22:26Z</time>
      </trkpt>
      <trkpt lat="45.40491" lon="5.71946">
        <ele>415.70065</ele>
        <time>2020-08-12T09:22:31Z</time>
      </trkpt>
      <trkpt lat="45.40482" lon="5.71923">
        <ele>417.0039</ele>
        <time>2020-08-12T09:22:36Z</time>
      </trkpt>
      <trkpt lat="45.40474" lon="5.71898">
        <ele>418.22485</ele>
        <time>2020-08-12T09:22:42Z</time>
      </trkpt>
      <trkpt lat="45.4046" lon="5.71859">
        <ele>419.4353</ele>
        <time>2020-08-12T09:22:52Z</time>
      </trkpt>
      <trkpt lat="45.4045" lon="5.71821">
        <ele>419.68457</ele>
        <time>2020-08-12T09:23:01Z</time>
      </trkpt>
      <trkpt lat="45.40445" lon="5.71797">
        <ele>420.39124</ele>
        <time>2020-08-12T09:23:06Z</time>
      </trkpt>
      <trkpt lat="45.40439" lon="5.71777">
        <ele>422.10565</ele>
        <time>2020-08-12T09:23:11Z</time>
      </trkpt>
      <trkpt lat="45.40432" lon="5.71755">
        <ele>424.6295</ele>
        <time>2020-08-12T09:23:16Z</time>
      </trkpt>
      <trkpt lat="45.4043" lon="5.71727">
        <ele>427.06696</ele>
        <time>2020-08-12T09:23:21Z</time>
      </trkpt>
      <trkpt lat="45.40434" lon="5.71701">
        <ele>427.75165</ele>
        <time>2020-08-12T09:23:27Z</time>
      </trkpt>
      <trkpt lat="45.40456" lon="5.7167">
        <ele>429.6389</ele>
        <time>2020-08-12T09:23:37Z</time>
      </trkpt>
      <trkpt lat="45.40465" lon="5.71635">
        <ele>430.78864</ele>
        <time>2020-08-12T09:23:46Z</time>
      </trkpt>
      <trkpt lat="45.40468" lon="5.71616">
        <ele>432.44992</ele>
        <time>2020-08-12T09:23:51Z</time>
      </trkpt>
      <trkpt lat="45.40464" lon="5.71602">
        <ele>433.5195</ele>
        <time>2020-08-12T09:23:56Z</time>
      </trkpt>
      <trkpt lat="45.40456" lon="5.71586">
        <ele>432.67294</ele>
        <time>2020-08-12T09:24:01Z</time>
      </trkpt>
      <trkpt lat="45.40448" lon="5.71568">
        <ele>433.54697</ele>
        <time>2020-08-12T09:24:06Z</time>
      </trkpt>
      <trkpt lat="45.4044" lon="5.71551">
        <ele>434.44852</ele>
        <time>2020-08-12T09:24:11Z</time>
      </trkpt>
      <trkpt lat="45.40432" lon="5.71531">
        <ele>436.56778</ele>
        <time>2020-08-12T09:24:16Z</time>
      </trkpt>
      <trkpt lat="45.40424" lon="5.71508">
        <ele>437.71576</ele>
        <time>2020-08-12T09:24:22Z</time>
      </trkpt>
      <trkpt lat="45.40408" lon="5.71477">
        <ele>435.1662</ele>
        <time>2020-08-12T09:24:31Z</time>
      </trkpt>
      <trkpt lat="45.40399" lon="5.7146">
        <ele>438.57837</ele>
        <time>2020-08-12T09:24:36Z</time>
      </trkpt>
      <trkpt lat="45.40389" lon="5.71441">
        <ele>442.378</ele>
        <time>2020-08-12T09:24:41Z</time>
      </trkpt>
      <trkpt lat="45.40382" lon="5.71425">
        <ele>442.95212</ele>
        <time>2020-08-12T09:24:46Z</time>
      </trkpt>
      <trkpt lat="45.40375" lon="5.7141">
        <ele>443.95554</ele>
        <time>2020-08-12T09:24:51Z</time>
      </trkpt>
      <trkpt lat="45.40368" lon="5.71394">
        <ele>444.48636</ele>
        <time>2020-08-12T09:24:56Z</time>
      </trkpt>
      <trkpt lat="45.40365" lon="5.71376">
        <ele>445.17474</ele>
        <time>2020-08-12T09:25:01Z</time>
      </trkpt>
      <trkpt lat="45.40375" lon="5.71357">
        <ele>445.7193</ele>
        <time>2020-08-12T09:25:07Z</time>
      </trkpt>
      <trkpt lat="45.404" lon="5.71335">
        <ele>447.42715</ele>
        <time>2020-08-12T09:25:17Z</time>
      </trkpt>
      <trkpt lat="45.40424" lon="5.71327">
        <ele>449.64914</ele>
        <time>2020-08-12T09:25:26Z</time>
      </trkpt>
      <trkpt lat="45.40439" lon="5.71323">
        <ele>450.77237</ele>
        <time>2020-08-12T09:25:31Z</time>
      </trkpt>
      <trkpt lat="45.40456" lon="5.71318">
        <ele>452.05432</ele>
        <time>2020-08-12T09:25:36Z</time>
      </trkpt>
      <trkpt lat="45.40466" lon="5.71312">
        <ele>452.7334</ele>
        <time>2020-08-12T09:25:41Z</time>
      </trkpt>
      <trkpt lat="45.40477" lon="5.71304">
        <ele>453.6008</ele>
        <time>2020-08-12T09:25:46Z</time>
      </trkpt>
      <trkpt lat="45.40493" lon="5.71288">
        <ele>454.80038</ele>
        <time>2020-08-12T09:25:52Z</time>
      </trkpt>
      <trkpt lat="45.40516" lon="5.71262">
        <ele>456.95325</ele>
        <time>2020-08-12T09:26:02Z</time>
      </trkpt>
      <trkpt lat="45.40538" lon="5.71245">
        <ele>457.80283</ele>
        <time>2020-08-12T09:26:11Z</time>
      </trkpt>
      <trkpt lat="45.40554" lon="5.71235">
        <ele>456.24442</ele>
        <time>2020-08-12T09:26:16Z</time>
      </trkpt>
      <trkpt lat="45.40567" lon="5.7122">
        <ele>460.82257</ele>
        <time>2020-08-12T09:26:21Z</time>
      </trkpt>
      <trkpt lat="45.40575" lon="5.71206">
        <ele>461.12518</ele>
        <time>2020-08-12T09:26:26Z</time>
      </trkpt>
      <trkpt lat="45.40584" lon="5.71192">
        <ele>462.1675</ele>
        <time>2020-08-12T09:26:31Z</time>
      </trkpt>
      <trkpt lat="45.40595" lon="5.71173">
        <ele>464.53375</ele>
        <time>2020-08-12T09:26:37Z</time>
      </trkpt>
      <trkpt lat="45.40614" lon="5.71146">
        <ele>467.35327</ele>
        <time>2020-08-12T09:26:47Z</time>
      </trkpt>
      <trkpt lat="45.40638" lon="5.71127">
        <ele>469.0299</ele>
        <time>2020-08-12T09:26:56Z</time>
      </trkpt>
      <trkpt lat="45.40652" lon="5.71112">
        <ele>470.1202</ele>
        <time>2020-08-12T09:27:01Z</time>
      </trkpt>
      <trkpt lat="45.40664" lon="5.71105">
        <ele>472.38034</ele>
        <time>2020-08-12T09:27:06Z</time>
      </trkpt>
      <trkpt lat="45.40673" lon="5.71104">
        <ele>473.16907</ele>
        <time>2020-08-12T09:27:11Z</time>
      </trkpt>
      <trkpt lat="45.40681" lon="5.711">
        <ele>475.25903</ele>
        <time>2020-08-12T09:27:16Z</time>
      </trkpt>
      <trkpt lat="45.40691" lon="5.71095">
        <ele>476.22574</ele>
        <time>2020-08-12T09:27:21Z</time>
      </trkpt>
      <trkpt lat="45.40698" lon="5.71095">
        <ele>476.74884</ele>
        <time>2020-08-12T09:27:26Z</time>
      </trkpt>
      <trkpt lat="45.40712" lon="5.71104">
        <ele>477.3704</ele>
        <time>2020-08-12T09:27:32Z</time>
      </trkpt>
      <trkpt lat="45.40741" lon="5.71085">
        <ele>479.25635</ele>
        <time>2020-08-12T09:27:42Z</time>
      </trkpt>
      <trkpt lat="45.40772" lon="5.7106">
        <ele>481.84042</ele>
        <time>2020-08-12T09:27:51Z</time>
      </trkpt>
      <trkpt lat="45.40792" lon="5.71056">
        <ele>482.1391</ele>
        <time>2020-08-12T09:27:56Z</time>
      </trkpt>
      <trkpt lat="45.40816" lon="5.71051">
        <ele>486.49988</ele>
        <time>2020-08-12T09:28:01Z</time>
      </trkpt>
      <trkpt lat="45.40833" lon="5.71048">
        <ele>486.17996</ele>
        <time>2020-08-12T09:28:06Z</time>
      </trkpt>
      <trkpt lat="45.4085" lon="5.71041">
        <ele>486.81448</ele>
        <time>2020-08-12T09:28:11Z</time>
      </trkpt>
      <trkpt lat="45.40872" lon="5.71027">
        <ele>487.22656</ele>
        <time>2020-08-12T09:28:17Z</time>
      </trkpt>
      <trkpt lat="45.40904" lon="5.71013">
        <ele>488.40353</ele>
        <time>2020-08-12T09:28:27Z</time>
      </trkpt>
      <trkpt lat="45.4094" lon="5.7101">
        <ele>489.96408</ele>
        <time>2020-08-12T09:28:36Z</time>
      </trkpt>
      <trkpt lat="45.4096" lon="5.71016">
        <ele>491.08395</ele>
        <time>2020-08-12T09:28:41Z</time>
      </trkpt>
      <trkpt lat="45.40977" lon="5.7102">
        <ele>490.6464</ele>
        <time>2020-08-12T09:28:46Z</time>
      </trkpt>
      <trkpt lat="45.40995" lon="5.71022">
        <ele>491.41452</ele>
        <time>2020-08-12T09:28:51Z</time>
      </trkpt>
      <trkpt lat="45.41011" lon="5.71022">
        <ele>492.2675</ele>
        <time>2020-08-12T09:28:56Z</time>
      </trkpt>
      <trkpt lat="45.41029" lon="5.71014">
        <ele>493.50296</ele>
        <time>2020-08-12T09:29:02Z</time>
      </trkpt>
      <trkpt lat="45.41069" lon="5.70997">
        <ele>495.79083</ele>
        <time>2020-08-12T09:29:12Z</time>
      </trkpt>
      <trkpt lat="45.41103" lon="5.70983">
        <ele>496.503</ele>
        <time>2020-08-12T09:29:21Z</time>
      </trkpt>
      <trkpt lat="45.41118" lon="5.70962">
        <ele>496.72342</ele>
        <time>2020-08-12T09:29:26Z</time>
      </trkpt>
      <trkpt lat="45.41127" lon="5.70921">
        <ele>497.57336</ele>
        <time>2020-08-12T09:29:31Z</time>
      </trkpt>
      <trkpt lat="45.41122" lon="5.70882">
        <ele>498.62473</ele>
        <time>2020-08-12T09:29:36Z</time>
      </trkpt>
      <trkpt lat="45.4112" lon="5.70837">
        <ele>498.99146</ele>
        <time>2020-08-12T09:29:41Z</time>
      </trkpt>
      <trkpt lat="45.41119" lon="5.70794">
        <ele>499.42282</ele>
        <time>2020-08-12T09:29:46Z</time>
      </trkpt>
      <trkpt lat="45.41113" lon="5.70749">
        <ele>499.20236</ele>
        <time>2020-08-12T09:29:51Z</time>
      </trkpt>
      <trkpt lat="45.41103" lon="5.70694">
        <ele>499.3974</ele>
        <time>2020-08-12T09:29:57Z</time>
      </trkpt>
      <trkpt lat="45.41076" lon="5.70612">
        <ele>499.33167</ele>
        <time>2020-08-12T09:30:07Z</time>
      </trkpt>
      <trkpt lat="45.41042" lon="5.70544">
        <ele>498.87698</ele>
        <time>2020-08-12T09:30:16Z</time>
      </trkpt>
      <trkpt lat="45.41031" lon="5.70501">
        <ele>498.59082</ele>
        <time>2020-08-12T09:30:21Z</time>
      </trkpt>
      <trkpt lat="45.41023" lon="5.70459">
        <ele>500.06833</ele>
        <time>2020-08-12T09:30:26Z</time>
      </trkpt>
      <trkpt lat="45.41015" lon="5.7042">
        <ele>501.7155</ele>
        <time>2020-08-12T09:30:31Z</time>
      </trkpt>
      <trkpt lat="45.41008" lon="5.7038">
        <ele>502.90698</ele>
        <time>2020-08-12T09:30:36Z</time>
      </trkpt>
      <trkpt lat="45.41016" lon="5.70334">
        <ele>502.70663</ele>
        <time>2020-08-12T09:30:42Z</time>
      </trkpt>
      <trkpt lat="45.41069" lon="5.70323">
        <ele>505.74493</ele>
        <time>2020-08-12T09:30:52Z</time>
      </trkpt>
      <trkpt lat="45.41115" lon="5.70339">
        <ele>507.65973</ele>
        <time>2020-08-12T09:31:01Z</time>
      </trkpt>
      <trkpt lat="45.41144" lon="5.70346">
        <ele>508.2906</ele>
        <time>2020-08-12T09:31:06Z</time>
      </trkpt>
      <trkpt lat="45.41172" lon="5.70353">
        <ele>506.08313</ele>
        <time>2020-08-12T09:31:11Z</time>
      </trkpt>
      <trkpt lat="45.41203" lon="5.70353">
        <ele>506.25278</ele>
        <time>2020-08-12T09:31:16Z</time>
      </trkpt>
      <trkpt lat="45.41222" lon="5.70318">
        <ele>508.65958</ele>
        <time>2020-08-12T09:31:21Z</time>
      </trkpt>
      <trkpt lat="45.41241" lon="5.7028">
        <ele>508.14746</ele>
        <time>2020-08-12T09:31:27Z</time>
      </trkpt>
      <trkpt lat="45.41259" lon="5.70265">
        <ele>474.1897</ele>
        <time>2020-08-12T09:31:46Z</time>
      </trkpt>
      <trkpt lat="45.41243" lon="5.7028">
        <ele>505.9326</ele>
        <time>2020-08-12T09:40:01Z</time>
      </trkpt>
      <trkpt lat="45.41229" lon="5.70299">
        <ele>507.84103</ele>
        <time>2020-08-12T09:40:06Z</time>
      </trkpt>
      <trkpt lat="45.4122" lon="5.70325">
        <ele>507.7456</ele>
        <time>2020-08-12T09:40:11Z</time>
      </trkpt>
      <trkpt lat="45.41208" lon="5.70349">
        <ele>507.70953</ele>
        <time>2020-08-12T09:40:16Z</time>
      </trkpt>
      <trkpt lat="45.4118" lon="5.7035">
        <ele>508.01172</ele>
        <time>2020-08-12T09:40:22Z</time>
      </trkpt>
      <trkpt lat="45.41129" lon="5.70339">
        <ele>506.30154</ele>
        <time>2020-08-12T09:40:32Z</time>
      </trkpt>
      <trkpt lat="45.41075" lon="5.70324">
        <ele>509.1187</ele>
        <time>2020-08-12T09:40:41Z</time>
      </trkpt>
      <trkpt lat="45.41041" lon="5.70319">
        <ele>508.39874</ele>
        <time>2020-08-12T09:40:46Z</time>
      </trkpt>
      <trkpt lat="45.41013" lon="5.70334">
        <ele>506.90268</ele>
        <time>2020-08-12T09:40:51Z</time>
      </trkpt>
      <trkpt lat="45.41001" lon="5.7036">
        <ele>506.2199</ele>
        <time>2020-08-12T09:40:56Z</time>
      </trkpt>
      <trkpt lat="45.40997" lon="5.70393">
        <ele>506.39377</ele>
        <time>2020-08-12T09:41:01Z</time>
      </trkpt>
      <trkpt lat="45.41004" lon="5.70428">
        <ele>506.11282</ele>
        <time>2020-08-12T09:41:07Z</time>
      </trkpt>
      <trkpt lat="45.4102" lon="5.70492">
        <ele>506.83167</ele>
        <time>2020-08-12T09:41:17Z</time>
      </trkpt>
      <trkpt lat="45.41036" lon="5.70555">
        <ele>504.1844</ele>
        <time>2020-08-12T09:41:26Z</time>
      </trkpt>
      <trkpt lat="45.41052" lon="5.70588">
        <ele>503.00238</ele>
        <time>2020-08-12T09:41:31Z</time>
      </trkpt>
      <trkpt lat="45.41065" lon="5.7062">
        <ele>503.56</ele>
        <time>2020-08-12T09:41:36Z</time>
      </trkpt>
      <trkpt lat="45.4108" lon="5.70654">
        <ele>503.7487</ele>
        <time>2020-08-12T09:41:41Z</time>
      </trkpt>
      <trkpt lat="45.41092" lon="5.70692">
        <ele>503.92255</ele>
        <time>2020-08-12T09:41:46Z</time>
      </trkpt>
      <trkpt lat="45.41101" lon="5.70728">
        <ele>504.96042</ele>
        <time>2020-08-12T09:41:51Z</time>
      </trkpt>
      <trkpt lat="45.4111" lon="5.70761">
        <ele>503.30344</ele>
        <time>2020-08-12T09:41:56Z</time>
      </trkpt>
      <trkpt lat="45.41121" lon="5.70799">
        <ele>503.0681</ele>
        <time>2020-08-12T09:42:02Z</time>
      </trkpt>
      <trkpt lat="45.41137" lon="5.70873">
        <ele>504.4929</ele>
        <time>2020-08-12T09:42:11Z</time>
      </trkpt>
      <trkpt lat="45.41147" lon="5.70918">
        <ele>505.30603</ele>
        <time>2020-08-12T09:42:16Z</time>
      </trkpt>
      <trkpt lat="45.41143" lon="5.7096">
        <ele>505.38022</ele>
        <time>2020-08-12T09:42:21Z</time>
      </trkpt>
      <trkpt lat="45.41116" lon="5.70987">
        <ele>506.09903</ele>
        <time>2020-08-12T09:42:26Z</time>
      </trkpt>
      <trkpt lat="45.41085" lon="5.71">
        <ele>506.55283</ele>
        <time>2020-08-12T09:42:31Z</time>
      </trkpt>
      <trkpt lat="45.41044" lon="5.71013">
        <ele>506.151</ele>
        <time>2020-08-12T09:42:36Z</time>
      </trkpt>
      <trkpt lat="45.41" lon="5.71017">
        <ele>503.96494</ele>
        <time>2020-08-12T09:42:41Z</time>
      </trkpt>
      <trkpt lat="45.40956" lon="5.7101">
        <ele>503.65646</ele>
        <time>2020-08-12T09:42:47Z</time>
      </trkpt>
      <trkpt lat="45.40876" lon="5.71038">
        <ele>500.82617</ele>
        <time>2020-08-12T09:42:57Z</time>
      </trkpt>
      <trkpt lat="45.40797" lon="5.71063">
        <ele>492.67117</ele>
        <time>2020-08-12T09:43:06Z</time>
      </trkpt>
      <trkpt lat="45.4076" lon="5.71102">
        <ele>493.06216</ele>
        <time>2020-08-12T09:43:11Z</time>
      </trkpt>
      <trkpt lat="45.40717" lon="5.71119">
        <ele>492.07144</ele>
        <time>2020-08-12T09:43:16Z</time>
      </trkpt>
      <trkpt lat="45.4066" lon="5.71128">
        <ele>490.37833</ele>
        <time>2020-08-12T09:43:21Z</time>
      </trkpt>
      <trkpt lat="45.40611" lon="5.71164">
        <ele>487.56662</ele>
        <time>2020-08-12T09:43:26Z</time>
      </trkpt>
      <trkpt lat="45.40565" lon="5.71234">
        <ele>482.16238</ele>
        <time>2020-08-12T09:43:32Z</time>
      </trkpt>
      <trkpt lat="45.40457" lon="5.71333">
        <ele>473.98322</ele>
        <time>2020-08-12T09:43:42Z</time>
      </trkpt>
      <trkpt lat="45.40364" lon="5.71371">
        <ele>465.43335</ele>
        <time>2020-08-12T09:43:51Z</time>
      </trkpt>
      <trkpt lat="45.40381" lon="5.71435">
        <ele>464.6618</ele>
        <time>2020-08-12T09:43:56Z</time>
      </trkpt>
      <trkpt lat="45.40413" lon="5.71503">
        <ele>462.82147</ele>
        <time>2020-08-12T09:44:01Z</time>
      </trkpt>
      <trkpt lat="45.40446" lon="5.71573">
        <ele>458.3403</ele>
        <time>2020-08-12T09:44:06Z</time>
      </trkpt>
      <trkpt lat="45.40454" lon="5.71653">
        <ele>453.4601</ele>
        <time>2020-08-12T09:44:11Z</time>
      </trkpt>
      <trkpt lat="45.40422" lon="5.71717">
        <ele>449.86386</ele>
        <time>2020-08-12T09:44:16Z</time>
      </trkpt>
      <trkpt lat="45.40434" lon="5.71799">
        <ele>447.12683</ele>
        <time>2020-08-12T09:44:21Z</time>
      </trkpt>
      <trkpt lat="45.40462" lon="5.71899">
        <ele>441.4074</ele>
        <time>2020-08-12T09:44:27Z</time>
      </trkpt>
      <trkpt lat="45.40451" lon="5.72023">
        <ele>439.5055</ele>
        <time>2020-08-12T09:44:37Z</time>
      </trkpt>
      <trkpt lat="45.4039" lon="5.72084">
        <ele>437.68298</ele>
        <time>2020-08-12T09:44:46Z</time>
      </trkpt>
      <trkpt lat="45.40369" lon="5.72106">
        <ele>435.10382</ele>
        <time>2020-08-12T09:44:51Z</time>
      </trkpt>
      <trkpt lat="45.4036" lon="5.72114">
        <ele>431.90988</ele>
        <time>2020-08-12T09:44:56Z</time>
      </trkpt>
      <trkpt lat="45.40345" lon="5.72137">
        <ele>424.2502</ele>
        <time>2020-08-12T09:45:12Z</time>
      </trkpt>
      <trkpt lat="45.4031" lon="5.72175">
        <ele>428.18805</ele>
        <time>2020-08-12T09:45:22Z</time>
      </trkpt>
      <trkpt lat="45.40272" lon="5.72217">
        <ele>428.66565</ele>
        <time>2020-08-12T09:45:31Z</time>
      </trkpt>
      <trkpt lat="45.4025" lon="5.72239">
        <ele>429.09256</ele>
        <time>2020-08-12T09:45:36Z</time>
      </trkpt>
      <trkpt lat="45.40228" lon="5.72261">
        <ele>426.85565</ele>
        <time>2020-08-12T09:45:41Z</time>
      </trkpt>
      <trkpt lat="45.40207" lon="5.72283">
        <ele>425.13873</ele>
        <time>2020-08-12T09:45:46Z</time>
      </trkpt>
      <trkpt lat="45.40184" lon="5.72299">
        <ele>428.13733</ele>
        <time>2020-08-12T09:45:51Z</time>
      </trkpt>
      <trkpt lat="45.40156" lon="5.72311">
        <ele>428.672</ele>
        <time>2020-08-12T09:45:57Z</time>
      </trkpt>
      <trkpt lat="45.40105" lon="5.7233">
        <ele>429.1697</ele>
        <time>2020-08-12T09:46:07Z</time>
      </trkpt>
      <trkpt lat="45.4007" lon="5.72314">
        <ele>425.3363</ele>
        <time>2020-08-12T09:46:16Z</time>
      </trkpt>
      <trkpt lat="45.40049" lon="5.72325">
        <ele>426.12027</ele>
        <time>2020-08-12T09:46:21Z</time>
      </trkpt>
      <trkpt lat="45.40033" lon="5.72337">
        <ele>424.22485</ele>
        <time>2020-08-12T09:46:26Z</time>
      </trkpt>
      <trkpt lat="45.40013" lon="5.72348">
        <ele>424.92108</ele>
        <time>2020-08-12T09:46:31Z</time>
      </trkpt>
      <trkpt lat="45.3999" lon="5.72358">
        <ele>425.1229</ele>
        <time>2020-08-12T09:46:36Z</time>
      </trkpt>
      <trkpt lat="45.39965" lon="5.72376">
        <ele>427.71573</ele>
        <time>2020-08-12T09:46:41Z</time>
      </trkpt>
      <trkpt lat="45.39944" lon="5.72401">
        <ele>427.1557</ele>
        <time>2020-08-12T09:46:46Z</time>
      </trkpt>
      <trkpt lat="45.39922" lon="5.72437">
        <ele>423.94702</ele>
        <time>2020-08-12T09:46:52Z</time>
      </trkpt>
      <trkpt lat="45.3988" lon="5.72492">
        <ele>421.287</ele>
        <time>2020-08-12T09:47:02Z</time>
      </trkpt>
      <trkpt lat="45.39838" lon="5.72532">
        <ele>421.32712</ele>
        <time>2020-08-12T09:47:11Z</time>
      </trkpt>
      <trkpt lat="45.39815" lon="5.72551">
        <ele>429.24155</ele>
        <time>2020-08-12T09:47:16Z</time>
      </trkpt>
      <trkpt lat="45.39792" lon="5.72574">
        <ele>427.28778</ele>
        <time>2020-08-12T09:47:21Z</time>
      </trkpt>
      <trkpt lat="45.39769" lon="5.72596">
        <ele>425.79272</ele>
        <time>2020-08-12T09:47:26Z</time>
      </trkpt>
      <trkpt lat="45.39745" lon="5.72616">
        <ele>422.65817</ele>
        <time>2020-08-12T09:47:31Z</time>
      </trkpt>
      <trkpt lat="45.39715" lon="5.72645">
        <ele>424.1361</ele>
        <time>2020-08-12T09:47:37Z</time>
      </trkpt>
      <trkpt lat="45.39666" lon="5.7269">
        <ele>425.77264</ele>
        <time>2020-08-12T09:47:47Z</time>
      </trkpt>
      <trkpt lat="45.39626" lon="5.72727">
        <ele>420.83066</ele>
        <time>2020-08-12T09:47:56Z</time>
      </trkpt>
      <trkpt lat="45.39601" lon="5.72748">
        <ele>418.96527</ele>
        <time>2020-08-12T09:48:01Z</time>
      </trkpt>
      <trkpt lat="45.39576" lon="5.72771">
        <ele>420.06168</ele>
        <time>2020-08-12T09:48:06Z</time>
      </trkpt>
      <trkpt lat="45.39553" lon="5.72794">
        <ele>421.34402</ele>
        <time>2020-08-12T09:48:11Z</time>
      </trkpt>
      <trkpt lat="45.39531" lon="5.72821">
        <ele>421.0641</ele>
        <time>2020-08-12T09:48:16Z</time>
      </trkpt>
      <trkpt lat="45.39505" lon="5.72857">
        <ele>421.29965</ele>
        <time>2020-08-12T09:48:22Z</time>
      </trkpt>
      <trkpt lat="45.39462" lon="5.72916">
        <ele>421.11798</ele>
        <time>2020-08-12T09:48:32Z</time>
      </trkpt>
      <trkpt lat="45.39418" lon="5.72962">
        <ele>422.05496</ele>
        <time>2020-08-12T09:48:41Z</time>
      </trkpt>
      <trkpt lat="45.39392" lon="5.72983">
        <ele>421.4275</ele>
        <time>2020-08-12T09:48:46Z</time>
      </trkpt>
      <trkpt lat="45.39365" lon="5.73005">
        <ele>422.56625</ele>
        <time>2020-08-12T09:48:51Z</time>
      </trkpt>
      <trkpt lat="45.39339" lon="5.7303">
        <ele>422.30322</ele>
        <time>2020-08-12T09:48:56Z</time>
      </trkpt>
      <trkpt lat="45.39313" lon="5.73055">
        <ele>421.5067</ele>
        <time>2020-08-12T09:49:01Z</time>
      </trkpt>
      <trkpt lat="45.39287" lon="5.73075">
        <ele>420.97748</ele>
        <time>2020-08-12T09:49:06Z</time>
      </trkpt>
      <trkpt lat="45.3926" lon="5.73073">
        <ele>421.58487</ele>
        <time>2020-08-12T09:49:11Z</time>
      </trkpt>
      <trkpt lat="45.39228" lon="5.73074">
        <ele>421.06198</ele>
        <time>2020-08-12T09:49:17Z</time>
      </trkpt>
      <trkpt lat="45.39184" lon="5.73126">
        <ele>422.23032</ele>
        <time>2020-08-12T09:49:27Z</time>
      </trkpt>
      <trkpt lat="45.39143" lon="5.73176">
        <ele>423.91425</ele>
        <time>2020-08-12T09:49:36Z</time>
      </trkpt>
      <trkpt lat="45.39124" lon="5.73201">
        <ele>425.02887</ele>
        <time>2020-08-12T09:49:41Z</time>
      </trkpt>
      <trkpt lat="45.39103" lon="5.73226">
        <ele>424.52173</ele>
        <time>2020-08-12T09:49:46Z</time>
      </trkpt>
      <trkpt lat="45.3908" lon="5.73249">
        <ele>423.7727</ele>
        <time>2020-08-12T09:49:51Z</time>
      </trkpt>
      <trkpt lat="45.39055" lon="5.73274">
        <ele>425.4166</ele>
        <time>2020-08-12T09:49:56Z</time>
      </trkpt>
      <trkpt lat="45.39029" lon="5.733">
        <ele>424.40234</ele>
        <time>2020-08-12T09:50:02Z</time>
      </trkpt>
      <trkpt lat="45.38971" lon="5.73328">
        <ele>426.30728</ele>
        <time>2020-08-12T09:50:12Z</time>
      </trkpt>
      <trkpt lat="45.38919" lon="5.7336">
        <ele>425.50006</ele>
        <time>2020-08-12T09:50:21Z</time>
      </trkpt>
      <trkpt lat="45.38892" lon="5.73374">
        <ele>423.42618</ele>
        <time>2020-08-12T09:50:26Z</time>
      </trkpt>
      <trkpt lat="45.38867" lon="5.73383">
        <ele>423.15466</ele>
        <time>2020-08-12T09:50:31Z</time>
      </trkpt>
      <trkpt lat="45.38843" lon="5.73388">
        <ele>423.87833</ele>
        <time>2020-08-12T09:50:36Z</time>
      </trkpt>
      <trkpt lat="45.38816" lon="5.73391">
        <ele>425.33524</ele>
        <time>2020-08-12T09:50:41Z</time>
      </trkpt>
      <trkpt lat="45.38784" lon="5.73393">
        <ele>425.1493</ele>
        <time>2020-08-12T09:50:47Z</time>
      </trkpt>
      <trkpt lat="45.38748" lon="5.73418">
        <ele>424.7172</ele>
        <time>2020-08-12T09:50:57Z</time>
      </trkpt>
      <trkpt lat="45.38741" lon="5.73473">
        <ele>423.38074</ele>
        <time>2020-08-12T09:51:06Z</time>
      </trkpt>
      <trkpt lat="45.38739" lon="5.73492">
        <ele>422.48914</ele>
        <time>2020-08-12T09:51:11Z</time>
      </trkpt>
      <trkpt lat="45.38735" lon="5.73525">
        <ele>421.67996</ele>
        <time>2020-08-12T09:51:16Z</time>
      </trkpt>
      <trkpt lat="45.38731" lon="5.73551">
        <ele>423.22864</ele>
        <time>2020-08-12T09:51:21Z</time>
      </trkpt>
      <trkpt lat="45.3873" lon="5.73562">
        <ele>422.42365</ele>
        <time>2020-08-12T09:51:26Z</time>
      </trkpt>
      <trkpt lat="45.38725" lon="5.73565">
        <ele>421.35458</ele>
        <time>2020-08-12T09:51:32Z</time>
      </trkpt>
      <trkpt lat="45.387" lon="5.73565">
        <ele>419.20398</ele>
        <time>2020-08-12T09:52:16Z</time>
      </trkpt>
      <trkpt lat="45.38681" lon="5.73566">
        <ele>420.87607</ele>
        <time>2020-08-12T09:52:21Z</time>
      </trkpt>
      <trkpt lat="45.38658" lon="5.73569">
        <ele>421.7824</ele>
        <time>2020-08-12T09:52:27Z</time>
      </trkpt>
      <trkpt lat="45.38647" lon="5.7357">
        <ele>407.82568</ele>
        <time>2020-08-12T09:52:37Z</time>
      </trkpt>
      <trkpt lat="45.38642" lon="5.73565">
        <ele>397.18637</ele>
        <time>2020-08-12T09:54:07Z</time>
      </trkpt>
      <trkpt lat="45.38638" lon="5.73574">
        <ele>415.0628</ele>
        <time>2020-08-12T09:55:26Z</time>
      </trkpt>
      <trkpt lat="45.38642" lon="5.73574">
        <ele>405.46307</ele>
        <time>2020-08-12T09:55:47Z</time>
      </trkpt>
      <trkpt lat="45.38653" lon="5.73579">
        <ele>414.3056</ele>
        <time>2020-08-12T09:56:21Z</time>
      </trkpt>
      <trkpt lat="45.38636" lon="5.73572">
        <ele>417.55417</ele>
        <time>2020-08-12T10:01:06Z</time>
      </trkpt>
      <trkpt lat="45.3864" lon="5.73568">
        <ele>416.24243</ele>
        <time>2020-08-12T10:02:17Z</time>
      </trkpt>
      <trkpt lat="45.38638" lon="5.73575">
        <ele>416.25934</ele>
        <time>2020-08-12T10:03:02Z</time>
      </trkpt>
      <trkpt lat="45.38637" lon="5.73585">
        <ele>415.95096</ele>
        <time>2020-08-12T10:04:51Z</time>
      </trkpt>
      <trkpt lat="45.38638" lon="5.73581">
        <ele>414.972</ele>
        <time>2020-08-12T10:05:07Z</time>
      </trkpt>
      <trkpt lat="45.38638" lon="5.7358">
        <ele>415.83688</ele>
        <time>2020-08-12T10:05:36Z</time>
      </trkpt>
      <trkpt lat="45.3864" lon="5.73579">
        <ele>416.30475</ele>
        <time>2020-08-12T10:05:56Z</time>
      </trkpt>
      <trkpt lat="45.38644" lon="5.73577">
        <ele>411.9339</ele>
        <time>2020-08-12T10:06:12Z</time>
      </trkpt>
      <trkpt lat="45.38643" lon="5.73578">
        <ele>415.96997</ele>
        <time>2020-08-12T10:07:26Z</time>
      </trkpt>
      <trkpt lat="45.38644" lon="5.73574">
        <ele>407.2989</ele>
        <time>2020-08-12T10:07:42Z</time>
      </trkpt>
      <trkpt lat="45.38643" lon="5.73579">
        <ele>419.13214</ele>
        <time>2020-08-12T10:08:31Z</time>
      </trkpt>
      <trkpt lat="45.38641" lon="5.73579">
        <ele>418.60614</ele>
        <time>2020-08-12T10:09:41Z</time>
      </trkpt>
      <trkpt lat="45.3864" lon="5.73569">
        <ele>418.20056</ele>
        <time>2020-08-12T10:09:51Z</time>
      </trkpt>
      <trkpt lat="45.38639" lon="5.73566">
        <ele>416.32376</ele>
        <time>2020-08-12T10:10:11Z</time>
      </trkpt>
      <trkpt lat="45.38637" lon="5.73571">
        <ele>415.82422</ele>
        <time>2020-08-12T10:10:26Z</time>
      </trkpt>
      <trkpt lat="45.38636" lon="5.7357">
        <ele>414.12292</ele>
        <time>2020-08-12T10:10:36Z</time>
      </trkpt>
      <trkpt lat="45.38635" lon="5.73568">
        <ele>415.35428</ele>
        <time>2020-08-12T10:10:46Z</time>
      </trkpt>
      <trkpt lat="45.38636" lon="5.7357">
        <ele>419.3624</ele>
        <time>2020-08-12T10:12:16Z</time>
      </trkpt>
      <trkpt lat="45.38635" lon="5.73577">
        <ele>416.9321</ele>
        <time>2020-08-12T10:12:32Z</time>
      </trkpt>
      <trkpt lat="45.3863" lon="5.73579">
        <ele>417.8573</ele>
        <time>2020-08-12T10:12:42Z</time>
      </trkpt>
      <trkpt lat="45.38623" lon="5.7358">
        <ele>413.83884</ele>
        <time>2020-08-12T10:12:51Z</time>
      </trkpt>
      <trkpt lat="45.38619" lon="5.73581">
        <ele>412.43335</ele>
        <time>2020-08-12T10:12:56Z</time>
      </trkpt>
      <trkpt lat="45.38613" lon="5.73582">
        <ele>418.2428</ele>
        <time>2020-08-12T10:13:11Z</time>
      </trkpt>
      <trkpt lat="45.38603" lon="5.73577">
        <ele>418.51953</ele>
        <time>2020-08-12T10:13:17Z</time>
      </trkpt>
      <trkpt lat="45.38582" lon="5.73566">
        <ele>420.5106</ele>
        <time>2020-08-12T10:13:27Z</time>
      </trkpt>
      <trkpt lat="45.38562" lon="5.73555">
        <ele>420.49792</ele>
        <time>2020-08-12T10:13:36Z</time>
      </trkpt>
      <trkpt lat="45.38549" lon="5.73547">
        <ele>420.33948</ele>
        <time>2020-08-12T10:13:41Z</time>
      </trkpt>
      <trkpt lat="45.38535" lon="5.73541">
        <ele>420.7208</ele>
        <time>2020-08-12T10:13:46Z</time>
      </trkpt>
      <trkpt lat="45.38522" lon="5.73533">
        <ele>420.81482</ele>
        <time>2020-08-12T10:13:51Z</time>
      </trkpt>
      <trkpt lat="45.38509" lon="5.7353">
        <ele>420.29617</ele>
        <time>2020-08-12T10:13:56Z</time>
      </trkpt>
      <trkpt lat="45.38496" lon="5.7353">
        <ele>418.3178</ele>
        <time>2020-08-12T10:14:01Z</time>
      </trkpt>
      <trkpt lat="45.38488" lon="5.73527">
        <ele>420.4081</ele>
        <time>2020-08-12T10:14:06Z</time>
      </trkpt>
      <trkpt lat="45.3847" lon="5.73529">
        <ele>420.6141</ele>
        <time>2020-08-12T10:14:12Z</time>
      </trkpt>
      <trkpt lat="45.38443" lon="5.73535">
        <ele>421.88596</ele>
        <time>2020-08-12T10:14:22Z</time>
      </trkpt>
      <trkpt lat="45.38421" lon="5.73534">
        <ele>422.29477</ele>
        <time>2020-08-12T10:14:31Z</time>
      </trkpt>
      <trkpt lat="45.38406" lon="5.73529">
        <ele>422.84833</ele>
        <time>2020-08-12T10:14:36Z</time>
      </trkpt>
      <trkpt lat="45.38393" lon="5.73525">
        <ele>422.861</ele>
        <time>2020-08-12T10:14:41Z</time>
      </trkpt>
      <trkpt lat="45.38382" lon="5.73521">
        <ele>423.43253</ele>
        <time>2020-08-12T10:14:46Z</time>
      </trkpt>
      <trkpt lat="45.38375" lon="5.73521">
        <ele>422.6772</ele>
        <time>2020-08-12T10:14:51Z</time>
      </trkpt>
      <trkpt lat="45.38365" lon="5.73517">
        <ele>422.917</ele>
        <time>2020-08-12T10:14:57Z</time>
      </trkpt>
      <trkpt lat="45.38353" lon="5.73517">
        <ele>422.91382</ele>
        <time>2020-08-12T10:15:07Z</time>
      </trkpt>
      <trkpt lat="45.38343" lon="5.73523">
        <ele>422.35287</ele>
        <time>2020-08-12T10:15:16Z</time>
      </trkpt>
      <trkpt lat="45.38347" lon="5.73531">
        <ele>422.61908</ele>
        <time>2020-08-12T10:15:21Z</time>
      </trkpt>
      <trkpt lat="45.38358" lon="5.7353">
        <ele>422.46378</ele>
        <time>2020-08-12T10:15:26Z</time>
      </trkpt>
      <trkpt lat="45.38366" lon="5.73528">
        <ele>422.03067</ele>
        <time>2020-08-12T10:15:31Z</time>
      </trkpt>
      <trkpt lat="45.38363" lon="5.73523">
        <ele>422.79337</ele>
        <time>2020-08-12T10:15:36Z</time>
      </trkpt>
      <trkpt lat="45.38351" lon="5.7353">
        <ele>422.7131</ele>
        <time>2020-08-12T10:15:42Z</time>
      </trkpt>
      <trkpt lat="45.38318" lon="5.73534">
        <ele>422.48914</ele>
        <time>2020-08-12T10:15:52Z</time>
      </trkpt>
      <trkpt lat="45.38284" lon="5.73531">
        <ele>423.3459</ele>
        <time>2020-08-12T10:16:01Z</time>
      </trkpt>
      <trkpt lat="45.38265" lon="5.73536">
        <ele>424.21112</ele>
        <time>2020-08-12T10:16:06Z</time>
      </trkpt>
      <trkpt lat="45.38239" lon="5.73545">
        <ele>424.66754</ele>
        <time>2020-08-12T10:16:11Z</time>
      </trkpt>
      <trkpt lat="45.38216" lon="5.73556">
        <ele>425.4356</ele>
        <time>2020-08-12T10:16:16Z</time>
      </trkpt>
      <trkpt lat="45.38194" lon="5.73566">
        <ele>425.89944</ele>
        <time>2020-08-12T10:16:21Z</time>
      </trkpt>
      <trkpt lat="45.38168" lon="5.73575">
        <ele>424.003</ele>
        <time>2020-08-12T10:16:26Z</time>
      </trkpt>
      <trkpt lat="45.38142" lon="5.736">
        <ele>424.4911</ele>
        <time>2020-08-12T10:16:31Z</time>
      </trkpt>
      <trkpt lat="45.38115" lon="5.73631">
        <ele>424.90735</ele>
        <time>2020-08-12T10:16:37Z</time>
      </trkpt>
      <trkpt lat="45.3808" lon="5.73692">
        <ele>424.9961</ele>
        <time>2020-08-12T10:16:47Z</time>
      </trkpt>
      <trkpt lat="45.38052" lon="5.73748">
        <ele>425.8762</ele>
        <time>2020-08-12T10:16:56Z</time>
      </trkpt>
      <trkpt lat="45.38037" lon="5.73779">
        <ele>426.7394</ele>
        <time>2020-08-12T10:17:01Z</time>
      </trkpt>
      <trkpt lat="45.38022" lon="5.73801">
        <ele>427.23602</ele>
        <time>2020-08-12T10:17:06Z</time>
      </trkpt>
      <trkpt lat="45.38005" lon="5.73819">
        <ele>427.79813</ele>
        <time>2020-08-12T10:17:11Z</time>
      </trkpt>
      <trkpt lat="45.37985" lon="5.73851">
        <ele>428.39093</ele>
        <time>2020-08-12T10:17:16Z</time>
      </trkpt>
      <trkpt lat="45.37967" lon="5.73897">
        <ele>428.82523</ele>
        <time>2020-08-12T10:17:22Z</time>
      </trkpt>
      <trkpt lat="45.37951" lon="5.73966">
        <ele>429.57758</ele>
        <time>2020-08-12T10:17:32Z</time>
      </trkpt>
      <trkpt lat="45.37928" lon="5.74002">
        <ele>429.548</ele>
        <time>2020-08-12T10:17:41Z</time>
      </trkpt>
      <trkpt lat="45.37911" lon="5.74025">
        <ele>429.8016</ele>
        <time>2020-08-12T10:17:46Z</time>
      </trkpt>
      <trkpt lat="45.37891" lon="5.74061">
        <ele>430.6523</ele>
        <time>2020-08-12T10:17:51Z</time>
      </trkpt>
      <trkpt lat="45.37881" lon="5.74099">
        <ele>431.64673</ele>
        <time>2020-08-12T10:17:56Z</time>
      </trkpt>
      <trkpt lat="45.37872" lon="5.74142">
        <ele>432.55246</ele>
        <time>2020-08-12T10:18:01Z</time>
      </trkpt>
      <trkpt lat="45.37871" lon="5.74191">
        <ele>434.19064</ele>
        <time>2020-08-12T10:18:07Z</time>
      </trkpt>
      <trkpt lat="45.37897" lon="5.7427">
        <ele>435.90186</ele>
        <time>2020-08-12T10:18:17Z</time>
      </trkpt>
      <trkpt lat="45.37927" lon="5.74327">
        <ele>434.4644</ele>
        <time>2020-08-12T10:18:26Z</time>
      </trkpt>
      <trkpt lat="45.37941" lon="5.74356">
        <ele>435.46744</ele>
        <time>2020-08-12T10:18:31Z</time>
      </trkpt>
      <trkpt lat="45.37957" lon="5.74384">
        <ele>436.3902</ele>
        <time>2020-08-12T10:18:36Z</time>
      </trkpt>
      <trkpt lat="45.3797" lon="5.74411">
        <ele>436.4367</ele>
        <time>2020-08-12T10:18:41Z</time>
      </trkpt>
      <trkpt lat="45.37977" lon="5.74432">
        <ele>436.46313</ele>
        <time>2020-08-12T10:18:46Z</time>
      </trkpt>
      <trkpt lat="45.37975" lon="5.74457">
        <ele>437.08893</ele>
        <time>2020-08-12T10:18:51Z</time>
      </trkpt>
      <trkpt lat="45.37973" lon="5.74487">
        <ele>437.50116</ele>
        <time>2020-08-12T10:18:56Z</time>
      </trkpt>
      <trkpt lat="45.37972" lon="5.74534">
        <ele>439.19363</ele>
        <time>2020-08-12T10:19:02Z</time>
      </trkpt>
      <trkpt lat="45.37985" lon="5.74593">
        <ele>439.37228</ele>
        <time>2020-08-12T10:19:12Z</time>
      </trkpt>
      <trkpt lat="45.37992" lon="5.74643">
        <ele>443.79376</ele>
        <time>2020-08-12T10:19:21Z</time>
      </trkpt>
      <trkpt lat="45.37983" lon="5.74665">
        <ele>445.13138</ele>
        <time>2020-08-12T10:19:26Z</time>
      </trkpt>
      <trkpt lat="45.37969" lon="5.74687">
        <ele>445.05948</ele>
        <time>2020-08-12T10:19:31Z</time>
      </trkpt>
      <trkpt lat="45.37956" lon="5.74701">
        <ele>446.30725</ele>
        <time>2020-08-12T10:19:36Z</time>
      </trkpt>
      <trkpt lat="45.37937" lon="5.74711">
        <ele>447.20508</ele>
        <time>2020-08-12T10:19:41Z</time>
      </trkpt>
      <trkpt lat="45.37917" lon="5.74723">
        <ele>448.6529</ele>
        <time>2020-08-12T10:19:47Z</time>
      </trkpt>
      <trkpt lat="45.3788" lon="5.74735">
        <ele>438.87436</ele>
        <time>2020-08-12T10:19:57Z</time>
      </trkpt>
      <trkpt lat="45.37853" lon="5.74735">
        <ele>437.1735</ele>
        <time>2020-08-12T10:20:06Z</time>
      </trkpt>
      <trkpt lat="45.37839" lon="5.74737">
        <ele>427.82034</ele>
        <time>2020-08-12T10:20:11Z</time>
      </trkpt>
      <trkpt lat="45.37824" lon="5.7474">
        <ele>442.04285</ele>
        <time>2020-08-12T10:20:16Z</time>
      </trkpt>
      <trkpt lat="45.37807" lon="5.74753">
        <ele>439.8977</ele>
        <time>2020-08-12T10:20:21Z</time>
      </trkpt>
      <trkpt lat="45.37785" lon="5.7477">
        <ele>441.97516</ele>
        <time>2020-08-12T10:20:26Z</time>
      </trkpt>
      <trkpt lat="45.37404" lon="5.75032">
        <ele>470.7871</ele>
        <time>2020-08-12T10:21:56Z</time>
      </trkpt>
      <trkpt lat="45.37382" lon="5.75036">
        <ele>472.0871</ele>
        <time>2020-08-12T10:22:01Z</time>
      </trkpt>
      <trkpt lat="45.37355" lon="5.75029">
        <ele>473.0251</ele>
        <time>2020-08-12T10:22:06Z</time>
      </trkpt>
      <trkpt lat="45.37326" lon="5.75017">
        <ele>471.3556</ele>
        <time>2020-08-12T10:22:12Z</time>
      </trkpt>
      <trkpt lat="45.37297" lon="5.74979">
        <ele>470.89297</ele>
        <time>2020-08-12T10:22:22Z</time>
      </trkpt>
      <trkpt lat="45.37275" lon="5.74972">
        <ele>472.92664</ele>
        <time>2020-08-12T10:22:31Z</time>
      </trkpt>
      <trkpt lat="45.37253" lon="5.74972">
        <ele>477.0845</ele>
        <time>2020-08-12T10:22:36Z</time>
      </trkpt>
      <trkpt lat="45.37231" lon="5.7498">
        <ele>478.3626</ele>
        <time>2020-08-12T10:22:41Z</time>
      </trkpt>
      <trkpt lat="45.37209" lon="5.74985">
        <ele>479.88965</ele>
        <time>2020-08-12T10:22:46Z</time>
      </trkpt>
      <trkpt lat="45.37196" lon="5.74982">
        <ele>478.38272</ele>
        <time>2020-08-12T10:22:51Z</time>
      </trkpt>
      <trkpt lat="45.3717" lon="5.74979">
        <ele>480.94763</ele>
        <time>2020-08-12T10:22:57Z</time>
      </trkpt>
      <trkpt lat="45.37141" lon="5.74945">
        <ele>483.1135</ele>
        <time>2020-08-12T10:23:07Z</time>
      </trkpt>
      <trkpt lat="45.37108" lon="5.74913">
        <ele>484.77536</ele>
        <time>2020-08-12T10:23:16Z</time>
      </trkpt>
      <trkpt lat="45.37084" lon="5.74899">
        <ele>485.28275</ele>
        <time>2020-08-12T10:23:21Z</time>
      </trkpt>
      <trkpt lat="45.37059" lon="5.74901">
        <ele>485.34842</ele>
        <time>2020-08-12T10:23:26Z</time>
      </trkpt>
      <trkpt lat="45.37035" lon="5.74924">
        <ele>486.34097</ele>
        <time>2020-08-12T10:23:31Z</time>
      </trkpt>
      <trkpt lat="45.37001" lon="5.74945">
        <ele>485.65033</ele>
        <time>2020-08-12T10:23:36Z</time>
      </trkpt>
      <trkpt lat="45.36965" lon="5.74969">
        <ele>484.47562</ele>
        <time>2020-08-12T10:23:41Z</time>
      </trkpt>
      <trkpt lat="45.36921" lon="5.74975">
        <ele>483.7543</ele>
        <time>2020-08-12T10:23:46Z</time>
      </trkpt>
      <trkpt lat="45.36859" lon="5.74979">
        <ele>484.84103</ele>
        <time>2020-08-12T10:23:52Z</time>
      </trkpt>
      <trkpt lat="45.36802" lon="5.75012">
        <ele>485.69376</ele>
        <time>2020-08-12T10:24:02Z</time>
      </trkpt>
      <trkpt lat="45.36761" lon="5.75052">
        <ele>486.2308</ele>
        <time>2020-08-12T10:24:11Z</time>
      </trkpt>
      <trkpt lat="45.36729" lon="5.75068">
        <ele>482.40387</ele>
        <time>2020-08-12T10:24:16Z</time>
      </trkpt>
      <trkpt lat="45.36701" lon="5.75092">
        <ele>477.2719</ele>
        <time>2020-08-12T10:24:21Z</time>
      </trkpt>
      <trkpt lat="45.36662" lon="5.75091">
        <ele>479.95743</ele>
        <time>2020-08-12T10:24:26Z</time>
      </trkpt>
      <trkpt lat="45.36624" lon="5.751">
        <ele>482.96732</ele>
        <time>2020-08-12T10:24:31Z</time>
      </trkpt>
      <trkpt lat="45.36595" lon="5.75128">
        <ele>489.3157</ele>
        <time>2020-08-12T10:24:37Z</time>
      </trkpt>
      <trkpt lat="45.3658" lon="5.75171">
        <ele>491.60843</ele>
        <time>2020-08-12T10:24:47Z</time>
      </trkpt>
      <trkpt lat="45.36552" lon="5.75236">
        <ele>491.00027</ele>
        <time>2020-08-12T10:24:56Z</time>
      </trkpt>
      <trkpt lat="45.36527" lon="5.75272">
        <ele>490.14313</ele>
        <time>2020-08-12T10:25:01Z</time>
      </trkpt>
      <trkpt lat="45.36503" lon="5.75294">
        <ele>491.6254</ele>
        <time>2020-08-12T10:25:06Z</time>
      </trkpt>
      <trkpt lat="45.36482" lon="5.7531">
        <ele>492.66907</ele>
        <time>2020-08-12T10:25:11Z</time>
      </trkpt>
      <trkpt lat="45.36453" lon="5.75333">
        <ele>494.06778</ele>
        <time>2020-08-12T10:25:16Z</time>
      </trkpt>
      <trkpt lat="45.36418" lon="5.75356">
        <ele>496.22427</ele>
        <time>2020-08-12T10:25:22Z</time>
      </trkpt>
      <trkpt lat="45.36365" lon="5.75393">
        <ele>489.2924</ele>
        <time>2020-08-12T10:25:32Z</time>
      </trkpt>
      <trkpt lat="45.36317" lon="5.7541">
        <ele>499.86798</ele>
        <time>2020-08-12T10:25:41Z</time>
      </trkpt>
      <trkpt lat="45.36284" lon="5.754">
        <ele>500.0577</ele>
        <time>2020-08-12T10:25:46Z</time>
      </trkpt>
      <trkpt lat="45.36272" lon="5.75397">
        <ele>494.91125</ele>
        <time>2020-08-12T10:25:51Z</time>
      </trkpt>
      <trkpt lat="45.36254" lon="5.75401">
        <ele>497.3466</ele>
        <time>2020-08-12T10:25:56Z</time>
      </trkpt>
      <trkpt lat="45.36243" lon="5.75403">
        <ele>500.21353</ele>
        <time>2020-08-12T10:26:01Z</time>
      </trkpt>
      <trkpt lat="45.36223" lon="5.75406">
        <ele>502.2063</ele>
        <time>2020-08-12T10:26:06Z</time>
      </trkpt>
      <trkpt lat="45.36209" lon="5.75413">
        <ele>502.3282</ele>
        <time>2020-08-12T10:26:11Z</time>
      </trkpt>
      <trkpt lat="45.36192" lon="5.75417">
        <ele>500.38947</ele>
        <time>2020-08-12T10:26:17Z</time>
      </trkpt>
      <trkpt lat="45.36169" lon="5.75419">
        <ele>493.1745</ele>
        <time>2020-08-12T10:26:27Z</time>
      </trkpt>
      <trkpt lat="45.36173" lon="5.75425">
        <ele>487.27316</ele>
        <time>2020-08-12T10:26:36Z</time>
      </trkpt>
      <trkpt lat="45.36184" lon="5.75425">
        <ele>505.8149</ele>
        <time>2020-08-12T10:26:46Z</time>
      </trkpt>
      <trkpt lat="45.3619" lon="5.7542">
        <ele>506.22098</ele>
        <time>2020-08-12T10:26:56Z</time>
      </trkpt>
      <trkpt lat="45.36183" lon="5.75417">
        <ele>503.46353</ele>
        <time>2020-08-12T10:27:02Z</time>
      </trkpt>
      <trkpt lat="45.36161" lon="5.75417">
        <ele>503.29816</ele>
        <time>2020-08-12T10:27:12Z</time>
      </trkpt>
      <trkpt lat="45.36144" lon="5.7541">
        <ele>505.0463</ele>
        <time>2020-08-12T10:27:21Z</time>
      </trkpt>
      <trkpt lat="45.36135" lon="5.75408">
        <ele>504.6233</ele>
        <time>2020-08-12T10:27:26Z</time>
      </trkpt>
      <trkpt lat="45.36127" lon="5.75406">
        <ele>506.64505</ele>
        <time>2020-08-12T10:27:31Z</time>
      </trkpt>
      <trkpt lat="45.36119" lon="5.75412">
        <ele>505.42688</ele>
        <time>2020-08-12T10:27:36Z</time>
      </trkpt>
      <trkpt lat="45.36105" lon="5.75414">
        <ele>502.89426</ele>
        <time>2020-08-12T10:27:41Z</time>
      </trkpt>
      <trkpt lat="45.36085" lon="5.7542">
        <ele>494.54993</ele>
        <time>2020-08-12T10:27:47Z</time>
      </trkpt>
      <trkpt lat="45.36055" lon="5.75429">
        <ele>502.55823</ele>
        <time>2020-08-12T10:27:57Z</time>
      </trkpt>
      <trkpt lat="45.36041" lon="5.75436">
        <ele>508.85785</ele>
        <time>2020-08-12T10:28:06Z</time>
      </trkpt>
      <trkpt lat="45.36034" lon="5.75438">
        <ele>513.3796</ele>
        <time>2020-08-12T10:28:11Z</time>
      </trkpt>
      <trkpt lat="45.36023" lon="5.75441">
        <ele>513.5662</ele>
        <time>2020-08-12T10:28:16Z</time>
      </trkpt>
      <trkpt lat="45.36012" lon="5.75454">
        <ele>514.1516</ele>
        <time>2020-08-12T10:28:21Z</time>
      </trkpt>
      <trkpt lat="45.35999" lon="5.75459">
        <ele>511.8662</ele>
        <time>2020-08-12T10:28:26Z</time>
      </trkpt>
      <trkpt lat="45.35987" lon="5.75462">
        <ele>512.84717</ele>
        <time>2020-08-12T10:28:31Z</time>
      </trkpt>
      <trkpt lat="45.35969" lon="5.75473">
        <ele>513.81757</ele>
        <time>2020-08-12T10:28:36Z</time>
      </trkpt>
      <trkpt lat="45.35952" lon="5.75489">
        <ele>506.17007</ele>
        <time>2020-08-12T10:28:42Z</time>
      </trkpt>
      <trkpt lat="45.3593" lon="5.75508">
        <ele>514.92584</ele>
        <time>2020-08-12T10:28:52Z</time>
      </trkpt>
      <trkpt lat="45.35936" lon="5.75503">
        <ele>517.6613</ele>
        <time>2020-08-12T10:29:01Z</time>
      </trkpt>
      <trkpt lat="45.35944" lon="5.75499">
        <ele>515.0775</ele>
        <time>2020-08-12T10:29:06Z</time>
      </trkpt>
      <trkpt lat="45.35946" lon="5.75494">
        <ele>512.59265</ele>
        <time>2020-08-12T10:29:11Z</time>
      </trkpt>
      <trkpt lat="45.35932" lon="5.75504">
        <ele>520.5838</ele>
        <time>2020-08-12T10:29:16Z</time>
      </trkpt>
      <trkpt lat="45.35923" lon="5.75514">
        <ele>520.88196</ele>
        <time>2020-08-12T10:29:21Z</time>
      </trkpt>
      <trkpt lat="45.35915" lon="5.75518">
        <ele>519.0934</ele>
        <time>2020-08-12T10:29:27Z</time>
      </trkpt>
      <trkpt lat="45.35886" lon="5.75542">
        <ele>517.3696</ele>
        <time>2020-08-12T10:29:37Z</time>
      </trkpt>
      <trkpt lat="45.3586" lon="5.7556">
        <ele>517.08215</ele>
        <time>2020-08-12T10:29:47Z</time>
      </trkpt>
      <trkpt lat="45.35839" lon="5.75578">
        <ele>516.09894</ele>
        <time>2020-08-12T10:29:56Z</time>
      </trkpt>
      <trkpt lat="45.35827" lon="5.75592">
        <ele>517.20416</ele>
        <time>2020-08-12T10:30:01Z</time>
      </trkpt>
      <trkpt lat="45.35819" lon="5.75608">
        <ele>517.29645</ele>
        <time>2020-08-12T10:30:06Z</time>
      </trkpt>
      <trkpt lat="45.35808" lon="5.75621">
        <ele>519.39886</ele>
        <time>2020-08-12T10:30:12Z</time>
      </trkpt>
      <trkpt lat="45.35793" lon="5.75645">
        <ele>520.92224</ele>
        <time>2020-08-12T10:30:22Z</time>
      </trkpt>
      <trkpt lat="45.35771" lon="5.75651">
        <ele>520.5223</ele>
        <time>2020-08-12T10:30:31Z</time>
      </trkpt>
      <trkpt lat="45.35756" lon="5.75648">
        <ele>521.7922</ele>
        <time>2020-08-12T10:30:36Z</time>
      </trkpt>
      <trkpt lat="45.35743" lon="5.75647">
        <ele>522.04895</ele>
        <time>2020-08-12T10:30:41Z</time>
      </trkpt>
      <trkpt lat="45.35731" lon="5.75643">
        <ele>522.43616</ele>
        <time>2020-08-12T10:30:46Z</time>
      </trkpt>
      <trkpt lat="45.35718" lon="5.75643">
        <ele>526.22516</ele>
        <time>2020-08-12T10:30:51Z</time>
      </trkpt>
      <trkpt lat="45.35705" lon="5.75651">
        <ele>525.97363</ele>
        <time>2020-08-12T10:30:56Z</time>
      </trkpt>
      <trkpt lat="45.35693" lon="5.75664">
        <ele>526.88837</ele>
        <time>2020-08-12T10:31:01Z</time>
      </trkpt>
      <trkpt lat="45.35678" lon="5.75666">
        <ele>528.35706</ele>
        <time>2020-08-12T10:31:07Z</time>
      </trkpt>
      <trkpt lat="45.35649" lon="5.75678">
        <ele>530.2397</ele>
        <time>2020-08-12T10:31:17Z</time>
      </trkpt>
      <trkpt lat="45.35628" lon="5.75688">
        <ele>532.19684</ele>
        <time>2020-08-12T10:31:26Z</time>
      </trkpt>
      <trkpt lat="45.35614" lon="5.75691">
        <ele>534.52356</ele>
        <time>2020-08-12T10:31:31Z</time>
      </trkpt>
      <trkpt lat="45.35597" lon="5.75691">
        <ele>537.9545</ele>
        <time>2020-08-12T10:31:36Z</time>
      </trkpt>
      <trkpt lat="45.35583" lon="5.7569">
        <ele>536.6339</ele>
        <time>2020-08-12T10:31:41Z</time>
      </trkpt>
      <trkpt lat="45.35569" lon="5.75679">
        <ele>537.26025</ele>
        <time>2020-08-12T10:31:46Z</time>
      </trkpt>
      <trkpt lat="45.35555" lon="5.75671">
        <ele>531.16943</ele>
        <time>2020-08-12T10:31:52Z</time>
      </trkpt>
      <trkpt lat="45.35527" lon="5.75669">
        <ele>547.85876</ele>
        <time>2020-08-12T10:32:02Z</time>
      </trkpt>
      <trkpt lat="45.35503" lon="5.75678">
        <ele>547.61975</ele>
        <time>2020-08-12T10:32:11Z</time>
      </trkpt>
      <trkpt lat="45.35492" lon="5.75687">
        <ele>546.95703</ele>
        <time>2020-08-12T10:32:16Z</time>
      </trkpt>
      <trkpt lat="45.3548" lon="5.75699">
        <ele>548.26556</ele>
        <time>2020-08-12T10:32:21Z</time>
      </trkpt>
      <trkpt lat="45.35471" lon="5.75714">
        <ele>549.9969</ele>
        <time>2020-08-12T10:32:26Z</time>
      </trkpt>
      <trkpt lat="45.35464" lon="5.75733">
        <ele>550.8753</ele>
        <time>2020-08-12T10:32:31Z</time>
      </trkpt>
      <trkpt lat="45.35458" lon="5.75763">
        <ele>552.6504</ele>
        <time>2020-08-12T10:32:37Z</time>
      </trkpt>
      <trkpt lat="45.35437" lon="5.75798">
        <ele>547.1843</ele>
        <time>2020-08-12T10:32:47Z</time>
      </trkpt>
      <trkpt lat="45.3541" lon="5.75819">
        <ele>550.69366</ele>
        <time>2020-08-12T10:32:56Z</time>
      </trkpt>
      <trkpt lat="45.35407" lon="5.75825">
        <ele>548.0478</ele>
        <time>2020-08-12T10:33:06Z</time>
      </trkpt>
      <trkpt lat="45.35404" lon="5.75826">
        <ele>554.4023</ele>
        <time>2020-08-12T10:33:16Z</time>
      </trkpt>
      <trkpt lat="45.35403" lon="5.75831">
        <ele>558.80426</ele>
        <time>2020-08-12T10:33:32Z</time>
      </trkpt>
      <trkpt lat="45.35401" lon="5.75829">
        <ele>553.8891</ele>
        <time>2020-08-12T10:33:42Z</time>
      </trkpt>
      <trkpt lat="45.354" lon="5.75818">
        <ele>549.85455</ele>
        <time>2020-08-12T10:33:51Z</time>
      </trkpt>
      <trkpt lat="45.35397" lon="5.7582">
        <ele>530.55066</ele>
        <time>2020-08-12T10:34:11Z</time>
      </trkpt>
      <trkpt lat="45.35398" lon="5.75816">
        <ele>542.13574</ele>
        <time>2020-08-12T10:34:21Z</time>
      </trkpt>
      <trkpt lat="45.35397" lon="5.75822">
        <ele>558.1603</ele>
        <time>2020-08-12T10:34:36Z</time>
      </trkpt>
      <trkpt lat="45.35394" lon="5.75826">
        <ele>567.33215</ele>
        <time>2020-08-12T10:34:46Z</time>
      </trkpt>
      <trkpt lat="45.35397" lon="5.7583">
        <ele>552.61005</ele>
        <time>2020-08-12T10:35:02Z</time>
      </trkpt>
      <trkpt lat="45.35397" lon="5.75826">
        <ele>562.631</ele>
        <time>2020-08-12T10:35:16Z</time>
      </trkpt>
      <trkpt lat="45.35396" lon="5.75831">
        <ele>563.2995</ele>
        <time>2020-08-12T10:35:26Z</time>
      </trkpt>
      <trkpt lat="45.35397" lon="5.75835">
        <ele>559.631</ele>
        <time>2020-08-12T10:35:41Z</time>
      </trkpt>
      <trkpt lat="45.35405" lon="5.75828">
        <ele>556.6823</ele>
        <time>2020-08-12T10:36:16Z</time>
      </trkpt>
      <trkpt lat="45.35399" lon="5.75834">
        <ele>559.45667</ele>
        <time>2020-08-12T10:36:42Z</time>
      </trkpt>
      <trkpt lat="45.35408" lon="5.75829">
        <ele>568.122</ele>
        <time>2020-08-12T10:37:31Z</time>
      </trkpt>
      <trkpt lat="45.35415" lon="5.75823">
        <ele>541.68024</ele>
        <time>2020-08-12T10:37:41Z</time>
      </trkpt>
      <trkpt lat="45.35418" lon="5.75819">
        <ele>569.0809</ele>
        <time>2020-08-12T10:37:46Z</time>
      </trkpt>
      <trkpt lat="45.35424" lon="5.75812">
        <ele>567.87006</ele>
        <time>2020-08-12T10:37:56Z</time>
      </trkpt>
      <trkpt lat="45.35428" lon="5.75806">
        <ele>573.43243</ele>
        <time>2020-08-12T10:38:06Z</time>
      </trkpt>
      <trkpt lat="45.35436" lon="5.75795">
        <ele>568.6089</ele>
        <time>2020-08-12T10:38:32Z</time>
      </trkpt>
      <trkpt lat="45.35443" lon="5.75787">
        <ele>567.86475</ele>
        <time>2020-08-12T10:38:41Z</time>
      </trkpt>
      <trkpt lat="45.35449" lon="5.75782">
        <ele>567.7159</ele>
        <time>2020-08-12T10:38:46Z</time>
      </trkpt>
      <trkpt lat="45.35453" lon="5.75776">
        <ele>567.05896</ele>
        <time>2020-08-12T10:38:51Z</time>
      </trkpt>
      <trkpt lat="45.3546" lon="5.75747">
        <ele>573.6823</ele>
        <time>2020-08-12T10:39:07Z</time>
      </trkpt>
      <trkpt lat="45.35462" lon="5.75733">
        <ele>581.84235</ele>
        <time>2020-08-12T10:39:17Z</time>
      </trkpt>
      <trkpt lat="45.35464" lon="5.75722">
        <ele>582.46564</ele>
        <time>2020-08-12T10:39:26Z</time>
      </trkpt>
      <trkpt lat="45.35463" lon="5.75708">
        <ele>581.1616</ele>
        <time>2020-08-12T10:39:36Z</time>
      </trkpt>
      <trkpt lat="45.35463" lon="5.75701">
        <ele>580.1129</ele>
        <time>2020-08-12T10:39:41Z</time>
      </trkpt>
      <trkpt lat="45.35457" lon="5.75699">
        <ele>578.90576</ele>
        <time>2020-08-12T10:39:46Z</time>
      </trkpt>
      <trkpt lat="45.35452" lon="5.757">
        <ele>577.3701</ele>
        <time>2020-08-12T10:39:52Z</time>
      </trkpt>
      <trkpt lat="45.35443" lon="5.75714">
        <ele>574.60846</ele>
        <time>2020-08-12T10:40:02Z</time>
      </trkpt>
      <trkpt lat="45.35436" lon="5.75725">
        <ele>572.2288</ele>
        <time>2020-08-12T10:40:11Z</time>
      </trkpt>
      <trkpt lat="45.35431" lon="5.75733">
        <ele>572.1481</ele>
        <time>2020-08-12T10:40:16Z</time>
      </trkpt>
      <trkpt lat="45.35426" lon="5.75736">
        <ele>571.8376</ele>
        <time>2020-08-12T10:40:21Z</time>
      </trkpt>
      <trkpt lat="45.35422" lon="5.7574">
        <ele>571.3389</ele>
        <time>2020-08-12T10:40:26Z</time>
      </trkpt>
      <trkpt lat="45.35415" lon="5.75743">
        <ele>571.7982</ele>
        <time>2020-08-12T10:40:31Z</time>
      </trkpt>
      <trkpt lat="45.3541" lon="5.75744">
        <ele>571.0402</ele>
        <time>2020-08-12T10:40:36Z</time>
      </trkpt>
      <trkpt lat="45.35405" lon="5.75743">
        <ele>570.24493</ele>
        <time>2020-08-12T10:40:41Z</time>
      </trkpt>
      <trkpt lat="45.35401" lon="5.75741">
        <ele>570.0334</ele>
        <time>2020-08-12T10:40:47Z</time>
      </trkpt>
      <trkpt lat="45.35396" lon="5.7574">
        <ele>569.1925</ele>
        <time>2020-08-12T10:40:57Z</time>
      </trkpt>
      <trkpt lat="45.3539" lon="5.75738">
        <ele>567.95935</ele>
        <time>2020-08-12T10:41:06Z</time>
      </trkpt>
      <trkpt lat="45.35379" lon="5.75742">
        <ele>566.8931</ele>
        <time>2020-08-12T10:41:16Z</time>
      </trkpt>
      <trkpt lat="45.35374" lon="5.75747">
        <ele>566.48816</ele>
        <time>2020-08-12T10:41:21Z</time>
      </trkpt>
      <trkpt lat="45.3537" lon="5.75753">
        <ele>566.8942</ele>
        <time>2020-08-12T10:41:26Z</time>
      </trkpt>
      <trkpt lat="45.35365" lon="5.75756">
        <ele>565.74304</ele>
        <time>2020-08-12T10:41:32Z</time>
      </trkpt>
      <trkpt lat="45.35358" lon="5.75759">
        <ele>565.58466</ele>
        <time>2020-08-12T10:41:42Z</time>
      </trkpt>
      <trkpt lat="45.35354" lon="5.75759">
        <ele>564.32086</ele>
        <time>2020-08-12T10:42:01Z</time>
      </trkpt>
      <trkpt lat="45.3535" lon="5.75763">
        <ele>561.93805</ele>
        <time>2020-08-12T10:42:06Z</time>
      </trkpt>
      <trkpt lat="45.3534" lon="5.75771">
        <ele>559.58527</ele>
        <time>2020-08-12T10:42:17Z</time>
      </trkpt>
      <trkpt lat="45.35331" lon="5.75781">
        <ele>562.8244</ele>
        <time>2020-08-12T10:42:27Z</time>
      </trkpt>
      <trkpt lat="45.3533" lon="5.7579">
        <ele>562.47687</ele>
        <time>2020-08-12T10:42:46Z</time>
      </trkpt>
      <trkpt lat="45.35334" lon="5.75795">
        <ele>561.9253</ele>
        <time>2020-08-12T10:42:51Z</time>
      </trkpt>
      <trkpt lat="45.35327" lon="5.75811">
        <ele>561.5512</ele>
        <time>2020-08-12T10:43:26Z</time>
      </trkpt>
      <trkpt lat="45.35323" lon="5.75824">
        <ele>563.68317</ele>
        <time>2020-08-12T10:43:41Z</time>
      </trkpt>
      <trkpt lat="45.35318" lon="5.75827">
        <ele>563.26764</ele>
        <time>2020-08-12T10:43:47Z</time>
      </trkpt>
      <trkpt lat="45.35308" lon="5.7583">
        <ele>562.60547</ele>
        <time>2020-08-12T10:43:57Z</time>
      </trkpt>
      <trkpt lat="45.35298" lon="5.7583">
        <ele>562.30475</ele>
        <time>2020-08-12T10:44:07Z</time>
      </trkpt>
      <trkpt lat="45.35295" lon="5.75828">
        <ele>561.31744</ele>
        <time>2020-08-12T10:44:16Z</time>
      </trkpt>
      <trkpt lat="45.35286" lon="5.75837">
        <ele>560.3291</ele>
        <time>2020-08-12T10:44:26Z</time>
      </trkpt>
      <trkpt lat="45.35281" lon="5.7584">
        <ele>561.1963</ele>
        <time>2020-08-12T10:44:31Z</time>
      </trkpt>
      <trkpt lat="45.35276" lon="5.75842">
        <ele>561.4843</ele>
        <time>2020-08-12T10:44:36Z</time>
      </trkpt>
      <trkpt lat="45.35264" lon="5.75846">
        <ele>562.3621</ele>
        <time>2020-08-12T10:44:42Z</time>
      </trkpt>
      <trkpt lat="45.35256" lon="5.75851">
        <ele>563.4908</ele>
        <time>2020-08-12T10:44:52Z</time>
      </trkpt>
      <trkpt lat="45.35252" lon="5.75862">
        <ele>566.26495</ele>
        <time>2020-08-12T10:45:21Z</time>
      </trkpt>
      <trkpt lat="45.35253" lon="5.75865">
        <ele>569.2956</ele>
        <time>2020-08-12T10:45:31Z</time>
      </trkpt>
      <trkpt lat="45.35255" lon="5.75866">
        <ele>572.6882</ele>
        <time>2020-08-12T10:45:47Z</time>
      </trkpt>
      <trkpt lat="45.35251" lon="5.75872">
        <ele>576.11633</ele>
        <time>2020-08-12T10:46:01Z</time>
      </trkpt>
      <trkpt lat="45.35248" lon="5.75879">
        <ele>574.802</ele>
        <time>2020-08-12T10:46:11Z</time>
      </trkpt>
      <trkpt lat="45.35244" lon="5.75885">
        <ele>573.2559</ele>
        <time>2020-08-12T10:46:22Z</time>
      </trkpt>
      <trkpt lat="45.35239" lon="5.75885">
        <ele>568.94904</ele>
        <time>2020-08-12T10:46:36Z</time>
      </trkpt>
      <trkpt lat="45.35229" lon="5.75888">
        <ele>567.76904</ele>
        <time>2020-08-12T10:46:41Z</time>
      </trkpt>
      <trkpt lat="45.35239" lon="5.75888">
        <ele>568.1401</ele>
        <time>2020-08-12T10:47:46Z</time>
      </trkpt>
      <trkpt lat="45.35241" lon="5.75887">
        <ele>551.6784</ele>
        <time>2020-08-12T10:47:56Z</time>
      </trkpt>
      <trkpt lat="45.35229" lon="5.75898">
        <ele>565.1935</ele>
        <time>2020-08-12T10:50:27Z</time>
      </trkpt>
      <trkpt lat="45.35231" lon="5.75893">
        <ele>551.8537</ele>
        <time>2020-08-12T10:51:01Z</time>
      </trkpt>
      <trkpt lat="45.35231" lon="5.75889">
        <ele>563.5684</ele>
        <time>2020-08-12T10:52:01Z</time>
      </trkpt>
      <trkpt lat="45.3523" lon="5.75875">
        <ele>563.3154</ele>
        <time>2020-08-12T10:53:37Z</time>
      </trkpt>
      <trkpt lat="45.35231" lon="5.75894">
        <ele>563.6024</ele>
        <time>2020-08-12T10:53:47Z</time>
      </trkpt>
      <trkpt lat="45.35232" lon="5.75898">
        <ele>567.3024</ele>
        <time>2020-08-12T10:53:56Z</time>
      </trkpt>
    </trkseg>
  </trk>
  <trk>
    <name><![CDATA[20200812_151150.gpx]]></name>
    <trkseg>
      <trkpt lat="45.35249" lon="5.75993">
        <ele>559.58185</ele>
        <time>2020-08-12T13:12:06Z</time>
      </trkpt>
      <trkpt lat="45.35249" lon="5.75993">
        <ele>559.58185</ele>
        <time>2020-08-12T13:12:06Z</time>
      </trkpt>
      <trkpt lat="45.35248" lon="5.76008">
        <ele>563.99615</ele>
        <time>2020-08-12T13:12:11Z</time>
      </trkpt>
      <trkpt lat="45.35243" lon="5.76023">
        <ele>568.5661</ele>
        <time>2020-08-12T13:12:16Z</time>
      </trkpt>
      <trkpt lat="45.35238" lon="5.76039">
        <ele>569.95764</ele>
        <time>2020-08-12T13:12:21Z</time>
      </trkpt>
      <trkpt lat="45.35234" lon="5.76049">
        <ele>573.1906</ele>
        <time>2020-08-12T13:12:26Z</time>
      </trkpt>
      <trkpt lat="45.35226" lon="5.76064">
        <ele>573.54224</ele>
        <time>2020-08-12T13:12:31Z</time>
      </trkpt>
      <trkpt lat="45.35218" lon="5.7608">
        <ele>576.0997</ele>
        <time>2020-08-12T13:12:36Z</time>
      </trkpt>
      <trkpt lat="45.35212" lon="5.76095">
        <ele>577.23267</ele>
        <time>2020-08-12T13:12:41Z</time>
      </trkpt>
      <trkpt lat="45.35207" lon="5.7611">
        <ele>579.0112</ele>
        <time>2020-08-12T13:12:46Z</time>
      </trkpt>
      <trkpt lat="45.35199" lon="5.76124">
        <ele>580.62036</ele>
        <time>2020-08-12T13:12:51Z</time>
      </trkpt>
      <trkpt lat="45.35196" lon="5.76139">
        <ele>582.7068</ele>
        <time>2020-08-12T13:12:56Z</time>
      </trkpt>
      <trkpt lat="45.35193" lon="5.76155">
        <ele>584.55</ele>
        <time>2020-08-12T13:13:01Z</time>
      </trkpt>
      <trkpt lat="45.35187" lon="5.76169">
        <ele>584.708</ele>
        <time>2020-08-12T13:13:06Z</time>
      </trkpt>
      <trkpt lat="45.35181" lon="5.76188">
        <ele>586.9928</ele>
        <time>2020-08-12T13:13:11Z</time>
      </trkpt>
      <trkpt lat="45.35178" lon="5.76209">
        <ele>588.64044</ele>
        <time>2020-08-12T13:13:16Z</time>
      </trkpt>
      <trkpt lat="45.35177" lon="5.76227">
        <ele>590.0132</ele>
        <time>2020-08-12T13:13:21Z</time>
      </trkpt>
      <trkpt lat="45.3518" lon="5.76251">
        <ele>592.2321</ele>
        <time>2020-08-12T13:13:26Z</time>
      </trkpt>
      <trkpt lat="45.35183" lon="5.76272">
        <ele>592.8443</ele>
        <time>2020-08-12T13:13:31Z</time>
      </trkpt>
      <trkpt lat="45.35185" lon="5.76288">
        <ele>593.8306</ele>
        <time>2020-08-12T13:13:36Z</time>
      </trkpt>
      <trkpt lat="45.35192" lon="5.76307">
        <ele>595.1805</ele>
        <time>2020-08-12T13:13:41Z</time>
      </trkpt>
      <trkpt lat="45.35197" lon="5.76327">
        <ele>598.7975</ele>
        <time>2020-08-12T13:13:46Z</time>
      </trkpt>
      <trkpt lat="45.35201" lon="5.76346">
        <ele>595.16785</ele>
        <time>2020-08-12T13:13:51Z</time>
      </trkpt>
      <trkpt lat="45.35204" lon="5.76363">
        <ele>595.11414</ele>
        <time>2020-08-12T13:13:56Z</time>
      </trkpt>
      <trkpt lat="45.35216" lon="5.76399">
        <ele>599.65015</ele>
        <time>2020-08-12T13:14:06Z</time>
      </trkpt>
      <trkpt lat="45.35218" lon="5.76416">
        <ele>602.7165</ele>
        <time>2020-08-12T13:14:11Z</time>
      </trkpt>
      <trkpt lat="45.35219" lon="5.76438">
        <ele>604.15753</ele>
        <time>2020-08-12T13:14:16Z</time>
      </trkpt>
      <trkpt lat="45.35218" lon="5.76464">
        <ele>608.98004</ele>
        <time>2020-08-12T13:14:21Z</time>
      </trkpt>
      <trkpt lat="45.35215" lon="5.76488">
        <ele>612.5707</ele>
        <time>2020-08-12T13:14:26Z</time>
      </trkpt>
      <trkpt lat="45.35204" lon="5.7651">
        <ele>611.591</ele>
        <time>2020-08-12T13:14:31Z</time>
      </trkpt>
      <trkpt lat="45.35195" lon="5.76535">
        <ele>605.8148</ele>
        <time>2020-08-12T13:14:36Z</time>
      </trkpt>
      <trkpt lat="45.35186" lon="5.76552">
        <ele>604.3104</ele>
        <time>2020-08-12T13:14:41Z</time>
      </trkpt>
      <trkpt lat="45.35175" lon="5.76571">
        <ele>603.9688</ele>
        <time>2020-08-12T13:14:46Z</time>
      </trkpt>
      <trkpt lat="45.35165" lon="5.76589">
        <ele>609.42505</ele>
        <time>2020-08-12T13:14:51Z</time>
      </trkpt>
      <trkpt lat="45.35152" lon="5.766">
        <ele>608.70166</ele>
        <time>2020-08-12T13:14:56Z</time>
      </trkpt>
      <trkpt lat="45.35137" lon="5.76615">
        <ele>608.05743</ele>
        <time>2020-08-12T13:15:01Z</time>
      </trkpt>
      <trkpt lat="45.35123" lon="5.76631">
        <ele>607.7253</ele>
        <time>2020-08-12T13:15:06Z</time>
      </trkpt>
      <trkpt lat="45.35114" lon="5.7664">
        <ele>607.487</ele>
        <time>2020-08-12T13:15:11Z</time>
      </trkpt>
      <trkpt lat="45.35104" lon="5.76654">
        <ele>614.41736</ele>
        <time>2020-08-12T13:15:16Z</time>
      </trkpt>
      <trkpt lat="45.35098" lon="5.76669">
        <ele>618.34326</ele>
        <time>2020-08-12T13:15:21Z</time>
      </trkpt>
      <trkpt lat="45.35093" lon="5.76685">
        <ele>626.0662</ele>
        <time>2020-08-12T13:15:26Z</time>
      </trkpt>
      <trkpt lat="45.35086" lon="5.76702">
        <ele>631.81366</ele>
        <time>2020-08-12T13:15:31Z</time>
      </trkpt>
      <trkpt lat="45.3508" lon="5.76717">
        <ele>617.1228</ele>
        <time>2020-08-12T13:15:36Z</time>
      </trkpt>
      <trkpt lat="45.35075" lon="5.76735">
        <ele>612.04974</ele>
        <time>2020-08-12T13:15:41Z</time>
      </trkpt>
      <trkpt lat="45.35069" lon="5.76754">
        <ele>610.3182</ele>
        <time>2020-08-12T13:15:46Z</time>
      </trkpt>
      <trkpt lat="45.35064" lon="5.7677">
        <ele>608.3569</ele>
        <time>2020-08-12T13:15:51Z</time>
      </trkpt>
      <trkpt lat="45.35059" lon="5.76787">
        <ele>604.2946</ele>
        <time>2020-08-12T13:15:56Z</time>
      </trkpt>
      <trkpt lat="45.35054" lon="5.76807">
        <ele>613.7213</ele>
        <time>2020-08-12T13:16:01Z</time>
      </trkpt>
      <trkpt lat="45.35047" lon="5.76827">
        <ele>612.76056</ele>
        <time>2020-08-12T13:16:06Z</time>
      </trkpt>
      <trkpt lat="45.35038" lon="5.76848">
        <ele>611.88416</ele>
        <time>2020-08-12T13:16:11Z</time>
      </trkpt>
      <trkpt lat="45.35032" lon="5.76866">
        <ele>607.2561</ele>
        <time>2020-08-12T13:16:16Z</time>
      </trkpt>
      <trkpt lat="45.35027" lon="5.76885">
        <ele>609.4335</ele>
        <time>2020-08-12T13:16:21Z</time>
      </trkpt>
      <trkpt lat="45.35023" lon="5.76901">
        <ele>611.11224</ele>
        <time>2020-08-12T13:16:26Z</time>
      </trkpt>
      <trkpt lat="45.35021" lon="5.76921">
        <ele>613.40704</ele>
        <time>2020-08-12T13:16:31Z</time>
      </trkpt>
      <trkpt lat="45.3502" lon="5.76936">
        <ele>613.22455</ele>
        <time>2020-08-12T13:16:36Z</time>
      </trkpt>
      <trkpt lat="45.35018" lon="5.76951">
        <ele>610.9108</ele>
        <time>2020-08-12T13:16:41Z</time>
      </trkpt>
      <trkpt lat="45.35015" lon="5.76963">
        <ele>609.9575</ele>
        <time>2020-08-12T13:16:46Z</time>
      </trkpt>
      <trkpt lat="45.35011" lon="5.76975">
        <ele>610.0092</ele>
        <time>2020-08-12T13:16:51Z</time>
      </trkpt>
      <trkpt lat="45.35009" lon="5.76984">
        <ele>613.8226</ele>
        <time>2020-08-12T13:16:56Z</time>
      </trkpt>
      <trkpt lat="45.35009" lon="5.76996">
        <ele>614.5218</ele>
        <time>2020-08-12T13:17:01Z</time>
      </trkpt>
      <trkpt lat="45.35006" lon="5.77011">
        <ele>614.2381</ele>
        <time>2020-08-12T13:17:06Z</time>
      </trkpt>
      <trkpt lat="45.34994" lon="5.77019">
        <ele>616.4425</ele>
        <time>2020-08-12T13:17:11Z</time>
      </trkpt>
      <trkpt lat="45.34985" lon="5.77045">
        <ele>617.4456</ele>
        <time>2020-08-12T13:17:16Z</time>
      </trkpt>
      <trkpt lat="45.34981" lon="5.77068">
        <ele>626.36694</ele>
        <time>2020-08-12T13:17:21Z</time>
      </trkpt>
      <trkpt lat="45.34982" lon="5.77076">
        <ele>627.074</ele>
        <time>2020-08-12T13:17:26Z</time>
      </trkpt>
      <trkpt lat="45.34988" lon="5.77091">
        <ele>629.61414</ele>
        <time>2020-08-12T13:17:31Z</time>
      </trkpt>
      <trkpt lat="45.34991" lon="5.77116">
        <ele>630.89435</ele>
        <time>2020-08-12T13:17:36Z</time>
      </trkpt>
      <trkpt lat="45.34993" lon="5.7714">
        <ele>629.173</ele>
        <time>2020-08-12T13:17:41Z</time>
      </trkpt>
      <trkpt lat="45.34995" lon="5.77174">
        <ele>626.55475</ele>
        <time>2020-08-12T13:17:46Z</time>
      </trkpt>
      <trkpt lat="45.34997" lon="5.77194">
        <ele>624.4233</ele>
        <time>2020-08-12T13:17:51Z</time>
      </trkpt>
      <trkpt lat="45.35" lon="5.77215">
        <ele>620.19464</ele>
        <time>2020-08-12T13:17:56Z</time>
      </trkpt>
      <trkpt lat="45.35002" lon="5.77229">
        <ele>610.72626</ele>
        <time>2020-08-12T13:18:01Z</time>
      </trkpt>
      <trkpt lat="45.35004" lon="5.77248">
        <ele>627.05707</ele>
        <time>2020-08-12T13:18:06Z</time>
      </trkpt>
      <trkpt lat="45.35007" lon="5.77263">
        <ele>633.4993</ele>
        <time>2020-08-12T13:18:11Z</time>
      </trkpt>
      <trkpt lat="45.35011" lon="5.77282">
        <ele>632.9673</ele>
        <time>2020-08-12T13:18:16Z</time>
      </trkpt>
      <trkpt lat="45.35016" lon="5.77305">
        <ele>633.0254</ele>
        <time>2020-08-12T13:18:21Z</time>
      </trkpt>
      <trkpt lat="45.3502" lon="5.7732">
        <ele>632.904</ele>
        <time>2020-08-12T13:18:26Z</time>
      </trkpt>
      <trkpt lat="45.35024" lon="5.77331">
        <ele>634.59076</ele>
        <time>2020-08-12T13:18:31Z</time>
      </trkpt>
      <trkpt lat="45.3503" lon="5.77349">
        <ele>636.4318</ele>
        <time>2020-08-12T13:18:36Z</time>
      </trkpt>
      <trkpt lat="45.35035" lon="5.77363">
        <ele>639.4777</ele>
        <time>2020-08-12T13:18:41Z</time>
      </trkpt>
      <trkpt lat="45.35038" lon="5.77374">
        <ele>642.26953</ele>
        <time>2020-08-12T13:18:46Z</time>
      </trkpt>
      <trkpt lat="45.3504" lon="5.77391">
        <ele>646.22974</ele>
        <time>2020-08-12T13:18:51Z</time>
      </trkpt>
      <trkpt lat="45.3504" lon="5.77405">
        <ele>650.292</ele>
        <time>2020-08-12T13:18:56Z</time>
      </trkpt>
      <trkpt lat="45.35039" lon="5.77422">
        <ele>650.97754</ele>
        <time>2020-08-12T13:19:01Z</time>
      </trkpt>
      <trkpt lat="45.35037" lon="5.77439">
        <ele>652.53894</ele>
        <time>2020-08-12T13:19:06Z</time>
      </trkpt>
      <trkpt lat="45.35035" lon="5.77449">
        <ele>649.66455</ele>
        <time>2020-08-12T13:19:11Z</time>
      </trkpt>
      <trkpt lat="45.35" lon="5.77575">
        <ele>652.01917</ele>
        <time>2020-08-12T13:19:36Z</time>
      </trkpt>
      <trkpt lat="45.34993" lon="5.77583">
        <ele>653.14636</ele>
        <time>2020-08-12T13:19:41Z</time>
      </trkpt>
      <trkpt lat="45.34986" lon="5.77594">
        <ele>657.3546</ele>
        <time>2020-08-12T13:19:46Z</time>
      </trkpt>
      <trkpt lat="45.34982" lon="5.77603">
        <ele>663.54004</ele>
        <time>2020-08-12T13:19:51Z</time>
      </trkpt>
      <trkpt lat="45.34987" lon="5.77615">
        <ele>664.94476</ele>
        <time>2020-08-12T13:19:56Z</time>
      </trkpt>
      <trkpt lat="45.3499" lon="5.77626">
        <ele>671.0698</ele>
        <time>2020-08-12T13:20:01Z</time>
      </trkpt>
      <trkpt lat="45.34986" lon="5.77643">
        <ele>671.17975</ele>
        <time>2020-08-12T13:20:06Z</time>
      </trkpt>
      <trkpt lat="45.34982" lon="5.77672">
        <ele>672.94763</ele>
        <time>2020-08-12T13:20:11Z</time>
      </trkpt>
      <trkpt lat="45.34982" lon="5.777">
        <ele>671.41974</ele>
        <time>2020-08-12T13:20:16Z</time>
      </trkpt>
      <trkpt lat="45.34975" lon="5.77724">
        <ele>668.5505</ele>
        <time>2020-08-12T13:20:21Z</time>
      </trkpt>
      <trkpt lat="45.34969" lon="5.7775">
        <ele>667.52185</ele>
        <time>2020-08-12T13:20:26Z</time>
      </trkpt>
      <trkpt lat="45.34962" lon="5.77773">
        <ele>668.6213</ele>
        <time>2020-08-12T13:20:31Z</time>
      </trkpt>
      <trkpt lat="45.3497" lon="5.77795">
        <ele>668.0927</ele>
        <time>2020-08-12T13:20:41Z</time>
      </trkpt>
      <trkpt lat="45.34967" lon="5.77824">
        <ele>670.71136</ele>
        <time>2020-08-12T13:20:46Z</time>
      </trkpt>
      <trkpt lat="45.3496" lon="5.77859">
        <ele>676.415</ele>
        <time>2020-08-12T13:20:51Z</time>
      </trkpt>
      <trkpt lat="45.34953" lon="5.77881">
        <ele>675.9401</ele>
        <time>2020-08-12T13:20:56Z</time>
      </trkpt>
      <trkpt lat="45.34943" lon="5.77905">
        <ele>675.2771</ele>
        <time>2020-08-12T13:21:01Z</time>
      </trkpt>
      <trkpt lat="45.34929" lon="5.77921">
        <ele>676.23517</ele>
        <time>2020-08-12T13:21:06Z</time>
      </trkpt>
      <trkpt lat="45.34918" lon="5.77941">
        <ele>677.4757</ele>
        <time>2020-08-12T13:21:11Z</time>
      </trkpt>
      <trkpt lat="45.34909" lon="5.77965">
        <ele>679.2176</ele>
        <time>2020-08-12T13:21:16Z</time>
      </trkpt>
      <trkpt lat="45.34902" lon="5.7799">
        <ele>678.8876</ele>
        <time>2020-08-12T13:21:21Z</time>
      </trkpt>
      <trkpt lat="45.34898" lon="5.78002">
        <ele>679.1573</ele>
        <time>2020-08-12T13:21:26Z</time>
      </trkpt>
      <trkpt lat="45.34893" lon="5.78015">
        <ele>678.9902</ele>
        <time>2020-08-12T13:21:31Z</time>
      </trkpt>
      <trkpt lat="45.34888" lon="5.78034">
        <ele>676.8295</ele>
        <time>2020-08-12T13:21:36Z</time>
      </trkpt>
      <trkpt lat="45.34882" lon="5.78073">
        <ele>675.091</ele>
        <time>2020-08-12T13:21:46Z</time>
      </trkpt>
      <trkpt lat="45.3488" lon="5.78094">
        <ele>675.7012</ele>
        <time>2020-08-12T13:21:51Z</time>
      </trkpt>
      <trkpt lat="45.34878" lon="5.78117">
        <ele>675.845</ele>
        <time>2020-08-12T13:21:56Z</time>
      </trkpt>
      <trkpt lat="45.34873" lon="5.78157">
        <ele>675.99304</ele>
        <time>2020-08-12T13:22:06Z</time>
      </trkpt>
      <trkpt lat="45.34881" lon="5.78181">
        <ele>689.2029</ele>
        <time>2020-08-12T13:22:11Z</time>
      </trkpt>
      <trkpt lat="45.34893" lon="5.78198">
        <ele>686.4107</ele>
        <time>2020-08-12T13:22:16Z</time>
      </trkpt>
      <trkpt lat="45.34906" lon="5.78211">
        <ele>684.663</ele>
        <time>2020-08-12T13:22:21Z</time>
      </trkpt>
      <trkpt lat="45.34917" lon="5.78221">
        <ele>687.26666</ele>
        <time>2020-08-12T13:22:26Z</time>
      </trkpt>
      <trkpt lat="45.34929" lon="5.78229">
        <ele>688.9976</ele>
        <time>2020-08-12T13:22:31Z</time>
      </trkpt>
      <trkpt lat="45.34942" lon="5.78235">
        <ele>691.8981</ele>
        <time>2020-08-12T13:22:36Z</time>
      </trkpt>
      <trkpt lat="45.34954" lon="5.78237">
        <ele>689.23254</ele>
        <time>2020-08-12T13:22:41Z</time>
      </trkpt>
      <trkpt lat="45.34996" lon="5.78233">
        <ele>695.5651</ele>
        <time>2020-08-12T13:22:57Z</time>
      </trkpt>
      <trkpt lat="45.34992" lon="5.78267">
        <ele>699.66254</ele>
        <time>2020-08-12T13:23:06Z</time>
      </trkpt>
      <trkpt lat="45.3499" lon="5.7828">
        <ele>705.9684</ele>
        <time>2020-08-12T13:23:11Z</time>
      </trkpt>
      <trkpt lat="45.34991" lon="5.783">
        <ele>684.66406</ele>
        <time>2020-08-12T13:23:16Z</time>
      </trkpt>
      <trkpt lat="45.35" lon="5.78322">
        <ele>694.37976</ele>
        <time>2020-08-12T13:23:21Z</time>
      </trkpt>
      <trkpt lat="45.35008" lon="5.78342">
        <ele>696.50397</ele>
        <time>2020-08-12T13:23:26Z</time>
      </trkpt>
      <trkpt lat="45.35016" lon="5.78356">
        <ele>700.7159</ele>
        <time>2020-08-12T13:23:31Z</time>
      </trkpt>
      <trkpt lat="45.35022" lon="5.78371">
        <ele>705.1573</ele>
        <time>2020-08-12T13:23:36Z</time>
      </trkpt>
      <trkpt lat="45.35027" lon="5.78387">
        <ele>706.6206</ele>
        <time>2020-08-12T13:23:41Z</time>
      </trkpt>
      <trkpt lat="45.35032" lon="5.78402">
        <ele>708.1635</ele>
        <time>2020-08-12T13:23:46Z</time>
      </trkpt>
      <trkpt lat="45.35037" lon="5.78418">
        <ele>712.9665</ele>
        <time>2020-08-12T13:23:51Z</time>
      </trkpt>
      <trkpt lat="45.35045" lon="5.78437">
        <ele>717.5098</ele>
        <time>2020-08-12T13:23:56Z</time>
      </trkpt>
      <trkpt lat="45.35054" lon="5.78452">
        <ele>719.8957</ele>
        <time>2020-08-12T13:24:01Z</time>
      </trkpt>
      <trkpt lat="45.35062" lon="5.78464">
        <ele>722.25323</ele>
        <time>2020-08-12T13:24:06Z</time>
      </trkpt>
      <trkpt lat="45.3507" lon="5.78478">
        <ele>729.4566</ele>
        <time>2020-08-12T13:24:11Z</time>
      </trkpt>
      <trkpt lat="45.35064" lon="5.78489">
        <ele>739.34064</ele>
        <time>2020-08-12T13:24:16Z</time>
      </trkpt>
      <trkpt lat="45.35048" lon="5.78506">
        <ele>744.3495</ele>
        <time>2020-08-12T13:24:21Z</time>
      </trkpt>
      <trkpt lat="45.35012" lon="5.78498">
        <ele>745.7294</ele>
        <time>2020-08-12T13:24:31Z</time>
      </trkpt>
      <trkpt lat="45.34987" lon="5.78483">
        <ele>747.90497</ele>
        <time>2020-08-12T13:24:36Z</time>
      </trkpt>
      <trkpt lat="45.34963" lon="5.78465">
        <ele>750.6038</ele>
        <time>2020-08-12T13:24:41Z</time>
      </trkpt>
      <trkpt lat="45.34941" lon="5.78434">
        <ele>752.8637</ele>
        <time>2020-08-12T13:24:46Z</time>
      </trkpt>
      <trkpt lat="45.34923" lon="5.78396">
        <ele>752.9708</ele>
        <time>2020-08-12T13:24:51Z</time>
      </trkpt>
      <trkpt lat="45.34896" lon="5.78387">
        <ele>755.10364</ele>
        <time>2020-08-12T13:24:56Z</time>
      </trkpt>
      <trkpt lat="45.34874" lon="5.78422">
        <ele>757.2482</ele>
        <time>2020-08-12T13:25:01Z</time>
      </trkpt>
      <trkpt lat="45.34851" lon="5.78454">
        <ele>758.65015</ele>
        <time>2020-08-12T13:25:06Z</time>
      </trkpt>
      <trkpt lat="45.34831" lon="5.78487">
        <ele>756.42053</ele>
        <time>2020-08-12T13:25:11Z</time>
      </trkpt>
      <trkpt lat="45.34818" lon="5.78526">
        <ele>744.6242</ele>
        <time>2020-08-12T13:25:16Z</time>
      </trkpt>
      <trkpt lat="45.34806" lon="5.78562">
        <ele>744.2243</ele>
        <time>2020-08-12T13:25:21Z</time>
      </trkpt>
      <trkpt lat="45.34799" lon="5.78602">
        <ele>746.65326</ele>
        <time>2020-08-12T13:25:26Z</time>
      </trkpt>
      <trkpt lat="45.34793" lon="5.78643">
        <ele>751.9268</ele>
        <time>2020-08-12T13:25:31Z</time>
      </trkpt>
      <trkpt lat="45.34787" lon="5.78683">
        <ele>756.39716</ele>
        <time>2020-08-12T13:25:36Z</time>
      </trkpt>
      <trkpt lat="45.34789" lon="5.78718">
        <ele>762.45734</ele>
        <time>2020-08-12T13:25:41Z</time>
      </trkpt>
      <trkpt lat="45.34791" lon="5.78753">
        <ele>761.6188</ele>
        <time>2020-08-12T13:25:46Z</time>
      </trkpt>
      <trkpt lat="45.34791" lon="5.78789">
        <ele>763.6897</ele>
        <time>2020-08-12T13:25:51Z</time>
      </trkpt>
      <trkpt lat="45.34797" lon="5.78826">
        <ele>762.6409</ele>
        <time>2020-08-12T13:25:56Z</time>
      </trkpt>
      <trkpt lat="45.3481" lon="5.78855">
        <ele>759.5385</ele>
        <time>2020-08-12T13:26:01Z</time>
      </trkpt>
      <trkpt lat="45.3482" lon="5.78886">
        <ele>759.5045</ele>
        <time>2020-08-12T13:26:06Z</time>
      </trkpt>
      <trkpt lat="45.34832" lon="5.78917">
        <ele>761.11035</ele>
        <time>2020-08-12T13:26:11Z</time>
      </trkpt>
      <trkpt lat="45.34847" lon="5.78953">
        <ele>759.2211</ele>
        <time>2020-08-12T13:26:16Z</time>
      </trkpt>
      <trkpt lat="45.34857" lon="5.78991">
        <ele>758.25323</ele>
        <time>2020-08-12T13:26:21Z</time>
      </trkpt>
      <trkpt lat="45.34851" lon="5.79032">
        <ele>754.3354</ele>
        <time>2020-08-12T13:26:26Z</time>
      </trkpt>
      <trkpt lat="45.34836" lon="5.79079">
        <ele>753.477</ele>
        <time>2020-08-12T13:26:31Z</time>
      </trkpt>
      <trkpt lat="45.34812" lon="5.7911">
        <ele>754.43085</ele>
        <time>2020-08-12T13:26:36Z</time>
      </trkpt>
      <trkpt lat="45.34789" lon="5.79139">
        <ele>753.52893</ele>
        <time>2020-08-12T13:26:41Z</time>
      </trkpt>
      <trkpt lat="45.34765" lon="5.79166">
        <ele>756.4842</ele>
        <time>2020-08-12T13:26:46Z</time>
      </trkpt>
      <trkpt lat="45.34739" lon="5.7919">
        <ele>759.47906</ele>
        <time>2020-08-12T13:26:51Z</time>
      </trkpt>
      <trkpt lat="45.34721" lon="5.79218">
        <ele>759.78687</ele>
        <time>2020-08-12T13:26:56Z</time>
      </trkpt>
      <trkpt lat="45.34708" lon="5.79257">
        <ele>761.2579</ele>
        <time>2020-08-12T13:27:01Z</time>
      </trkpt>
      <trkpt lat="45.34703" lon="5.79289">
        <ele>762.3459</ele>
        <time>2020-08-12T13:27:06Z</time>
      </trkpt>
      <trkpt lat="45.34697" lon="5.7933">
        <ele>763.47424</ele>
        <time>2020-08-12T13:27:11Z</time>
      </trkpt>
      <trkpt lat="45.34687" lon="5.79365">
        <ele>762.8257</ele>
        <time>2020-08-12T13:27:16Z</time>
      </trkpt>
      <trkpt lat="45.3468" lon="5.7939">
        <ele>764.3935</ele>
        <time>2020-08-12T13:27:21Z</time>
      </trkpt>
      <trkpt lat="45.3468" lon="5.79409">
        <ele>759.2816</ele>
        <time>2020-08-12T13:27:26Z</time>
      </trkpt>
      <trkpt lat="45.34675" lon="5.79423">
        <ele>733.32153</ele>
        <time>2020-08-12T13:27:31Z</time>
      </trkpt>
      <trkpt lat="45.34673" lon="5.79432">
        <ele>734.5566</ele>
        <time>2020-08-12T13:27:36Z</time>
      </trkpt>
      <trkpt lat="45.3467" lon="5.7944">
        <ele>748.5139</ele>
        <time>2020-08-12T13:27:41Z</time>
      </trkpt>
      <trkpt lat="45.34668" lon="5.79439">
        <ele>727.2329</ele>
        <time>2020-08-12T13:27:56Z</time>
      </trkpt>
      <trkpt lat="45.34666" lon="5.79441">
        <ele>738.44464</ele>
        <time>2020-08-12T13:28:06Z</time>
      </trkpt>
      <trkpt lat="45.34669" lon="5.79457">
        <ele>751.0409</ele>
        <time>2020-08-12T13:28:11Z</time>
      </trkpt>
      <trkpt lat="45.34668" lon="5.79487">
        <ele>756.79297</ele>
        <time>2020-08-12T13:28:16Z</time>
      </trkpt>
      <trkpt lat="45.34655" lon="5.79514">
        <ele>762.3034</ele>
        <time>2020-08-12T13:28:21Z</time>
      </trkpt>
      <trkpt lat="45.34632" lon="5.79534">
        <ele>767.12823</ele>
        <time>2020-08-12T13:28:26Z</time>
      </trkpt>
      <trkpt lat="45.34617" lon="5.79565">
        <ele>769.6371</ele>
        <time>2020-08-12T13:28:31Z</time>
      </trkpt>
      <trkpt lat="45.34606" lon="5.79593">
        <ele>770.08093</ele>
        <time>2020-08-12T13:28:36Z</time>
      </trkpt>
      <trkpt lat="45.34596" lon="5.79617">
        <ele>767.99884</ele>
        <time>2020-08-12T13:28:41Z</time>
      </trkpt>
      <trkpt lat="45.34589" lon="5.79633">
        <ele>766.2333</ele>
        <time>2020-08-12T13:28:46Z</time>
      </trkpt>
      <trkpt lat="45.34582" lon="5.79657">
        <ele>766.41797</ele>
        <time>2020-08-12T13:28:51Z</time>
      </trkpt>
      <trkpt lat="45.34575" lon="5.79683">
        <ele>768.71124</ele>
        <time>2020-08-12T13:28:56Z</time>
      </trkpt>
      <trkpt lat="45.34566" lon="5.79717">
        <ele>769.97266</ele>
        <time>2020-08-12T13:29:01Z</time>
      </trkpt>
      <trkpt lat="45.34554" lon="5.79754">
        <ele>771.32117</ele>
        <time>2020-08-12T13:29:06Z</time>
      </trkpt>
      <trkpt lat="45.34536" lon="5.79792">
        <ele>771.8744</ele>
        <time>2020-08-12T13:29:11Z</time>
      </trkpt>
      <trkpt lat="45.34514" lon="5.79824">
        <ele>769.8824</ele>
        <time>2020-08-12T13:29:16Z</time>
      </trkpt>
      <trkpt lat="45.34489" lon="5.79858">
        <ele>768.638</ele>
        <time>2020-08-12T13:29:21Z</time>
      </trkpt>
      <trkpt lat="45.3445" lon="5.79888">
        <ele>769.14124</ele>
        <time>2020-08-12T13:29:26Z</time>
      </trkpt>
      <trkpt lat="45.34417" lon="5.7994">
        <ele>770.4292</ele>
        <time>2020-08-12T13:29:31Z</time>
      </trkpt>
      <trkpt lat="45.34402" lon="5.79981">
        <ele>769.17523</ele>
        <time>2020-08-12T13:29:36Z</time>
      </trkpt>
      <trkpt lat="45.34391" lon="5.80014">
        <ele>768.3046</ele>
        <time>2020-08-12T13:29:41Z</time>
      </trkpt>
      <trkpt lat="45.34388" lon="5.80058">
        <ele>770.3326</ele>
        <time>2020-08-12T13:29:46Z</time>
      </trkpt>
      <trkpt lat="45.34376" lon="5.80085">
        <ele>769.91</ele>
        <time>2020-08-12T13:29:51Z</time>
      </trkpt>
      <trkpt lat="45.34367" lon="5.8012">
        <ele>768.397</ele>
        <time>2020-08-12T13:29:56Z</time>
      </trkpt>
      <trkpt lat="45.34364" lon="5.80154">
        <ele>770.02893</ele>
        <time>2020-08-12T13:30:01Z</time>
      </trkpt>
      <trkpt lat="45.3436" lon="5.80183">
        <ele>772.92676</ele>
        <time>2020-08-12T13:30:06Z</time>
      </trkpt>
      <trkpt lat="45.34347" lon="5.80213">
        <ele>774.1661</ele>
        <time>2020-08-12T13:30:11Z</time>
      </trkpt>
      <trkpt lat="45.34328" lon="5.80239">
        <ele>778.2838</ele>
        <time>2020-08-12T13:30:16Z</time>
      </trkpt>
      <trkpt lat="45.34311" lon="5.80268">
        <ele>780.4689</ele>
        <time>2020-08-12T13:30:21Z</time>
      </trkpt>
      <trkpt lat="45.34293" lon="5.80293">
        <ele>781.28046</ele>
        <time>2020-08-12T13:30:26Z</time>
      </trkpt>
      <trkpt lat="45.34272" lon="5.8031">
        <ele>779.601</ele>
        <time>2020-08-12T13:30:31Z</time>
      </trkpt>
      <trkpt lat="45.3425" lon="5.80327">
        <ele>777.17706</ele>
        <time>2020-08-12T13:30:36Z</time>
      </trkpt>
      <trkpt lat="45.34226" lon="5.80345">
        <ele>775.30457</ele>
        <time>2020-08-12T13:30:41Z</time>
      </trkpt>
      <trkpt lat="45.34202" lon="5.80363">
        <ele>774.43054</ele>
        <time>2020-08-12T13:30:46Z</time>
      </trkpt>
      <trkpt lat="45.34179" lon="5.80379">
        <ele>773.8167</ele>
        <time>2020-08-12T13:30:51Z</time>
      </trkpt>
      <trkpt lat="45.34158" lon="5.80393">
        <ele>773.1551</ele>
        <time>2020-08-12T13:30:56Z</time>
      </trkpt>
      <trkpt lat="45.34139" lon="5.80414">
        <ele>773.7095</ele>
        <time>2020-08-12T13:31:01Z</time>
      </trkpt>
      <trkpt lat="45.34121" lon="5.80437">
        <ele>774.72363</ele>
        <time>2020-08-12T13:31:06Z</time>
      </trkpt>
      <trkpt lat="45.34096" lon="5.80457">
        <ele>777.0836</ele>
        <time>2020-08-12T13:31:11Z</time>
      </trkpt>
      <trkpt lat="45.34072" lon="5.80488">
        <ele>779.4576</ele>
        <time>2020-08-12T13:31:16Z</time>
      </trkpt>
      <trkpt lat="45.34047" lon="5.80518">
        <ele>782.30566</ele>
        <time>2020-08-12T13:31:21Z</time>
      </trkpt>
      <trkpt lat="45.34022" lon="5.8055">
        <ele>784.08307</ele>
        <time>2020-08-12T13:31:26Z</time>
      </trkpt>
      <trkpt lat="45.33994" lon="5.8057">
        <ele>785.07965</ele>
        <time>2020-08-12T13:31:31Z</time>
      </trkpt>
      <trkpt lat="45.3397" lon="5.80594">
        <ele>788.8933</ele>
        <time>2020-08-12T13:31:36Z</time>
      </trkpt>
      <trkpt lat="45.33973" lon="5.80681">
        <ele>789.51074</ele>
        <time>2020-08-12T13:31:46Z</time>
      </trkpt>
      <trkpt lat="45.33978" lon="5.80719">
        <ele>791.05273</ele>
        <time>2020-08-12T13:31:51Z</time>
      </trkpt>
      <trkpt lat="45.3398" lon="5.80752">
        <ele>790.08673</ele>
        <time>2020-08-12T13:31:56Z</time>
      </trkpt>
      <trkpt lat="45.33976" lon="5.80765">
        <ele>787.48425</ele>
        <time>2020-08-12T13:32:01Z</time>
      </trkpt>
      <trkpt lat="45.33966" lon="5.80768">
        <ele>781.6767</ele>
        <time>2020-08-12T13:32:11Z</time>
      </trkpt>
      <trkpt lat="45.33953" lon="5.80761">
        <ele>780.9777</ele>
        <time>2020-08-12T13:32:16Z</time>
      </trkpt>
      <trkpt lat="45.33941" lon="5.80758">
        <ele>782.9888</ele>
        <time>2020-08-12T13:32:21Z</time>
      </trkpt>
      <trkpt lat="45.33931" lon="5.80751">
        <ele>783.1343</ele>
        <time>2020-08-12T13:32:26Z</time>
      </trkpt>
      <trkpt lat="45.33918" lon="5.80749">
        <ele>783.53485</ele>
        <time>2020-08-12T13:32:31Z</time>
      </trkpt>
      <trkpt lat="45.339" lon="5.8075">
        <ele>784.4719</ele>
        <time>2020-08-12T13:32:36Z</time>
      </trkpt>
      <trkpt lat="45.33885" lon="5.80752">
        <ele>785.2783</ele>
        <time>2020-08-12T13:32:41Z</time>
      </trkpt>
      <trkpt lat="45.33867" lon="5.80751">
        <ele>785.94775</ele>
        <time>2020-08-12T13:32:46Z</time>
      </trkpt>
      <trkpt lat="45.33845" lon="5.80744">
        <ele>785.204</ele>
        <time>2020-08-12T13:32:51Z</time>
      </trkpt>
      <trkpt lat="45.33822" lon="5.80729">
        <ele>780.20966</ele>
        <time>2020-08-12T13:32:56Z</time>
      </trkpt>
      <trkpt lat="45.33798" lon="5.80719">
        <ele>776.6768</ele>
        <time>2020-08-12T13:33:01Z</time>
      </trkpt>
      <trkpt lat="45.33774" lon="5.80711">
        <ele>776.0236</ele>
        <time>2020-08-12T13:33:06Z</time>
      </trkpt>
      <trkpt lat="45.3375" lon="5.80705">
        <ele>775.48303</ele>
        <time>2020-08-12T13:33:11Z</time>
      </trkpt>
      <trkpt lat="45.33727" lon="5.80703">
        <ele>777.3693</ele>
        <time>2020-08-12T13:33:16Z</time>
      </trkpt>
      <trkpt lat="45.33704" lon="5.80701">
        <ele>778.8086</ele>
        <time>2020-08-12T13:33:21Z</time>
      </trkpt>
      <trkpt lat="45.33681" lon="5.80698">
        <ele>776.68744</ele>
        <time>2020-08-12T13:33:26Z</time>
      </trkpt>
      <trkpt lat="45.33659" lon="5.80696">
        <ele>776.2679</ele>
        <time>2020-08-12T13:33:31Z</time>
      </trkpt>
      <trkpt lat="45.33637" lon="5.80699">
        <ele>777.9694</ele>
        <time>2020-08-12T13:33:36Z</time>
      </trkpt>
      <trkpt lat="45.33615" lon="5.80706">
        <ele>780.4848</ele>
        <time>2020-08-12T13:33:41Z</time>
      </trkpt>
      <trkpt lat="45.33588" lon="5.80716">
        <ele>784.16595</ele>
        <time>2020-08-12T13:33:46Z</time>
      </trkpt>
      <trkpt lat="45.33564" lon="5.80724">
        <ele>784.1022</ele>
        <time>2020-08-12T13:33:51Z</time>
      </trkpt>
      <trkpt lat="45.3354" lon="5.80732">
        <ele>782.3545</ele>
        <time>2020-08-12T13:33:56Z</time>
      </trkpt>
      <trkpt lat="45.33516" lon="5.80739">
        <ele>781.6714</ele>
        <time>2020-08-12T13:34:01Z</time>
      </trkpt>
      <trkpt lat="45.33469" lon="5.80741">
        <ele>783.8493</ele>
        <time>2020-08-12T13:34:11Z</time>
      </trkpt>
      <trkpt lat="45.33445" lon="5.80733">
        <ele>785.2486</ele>
        <time>2020-08-12T13:34:16Z</time>
      </trkpt>
      <trkpt lat="45.3342" lon="5.80724">
        <ele>786.79675</ele>
        <time>2020-08-12T13:34:21Z</time>
      </trkpt>
      <trkpt lat="45.33396" lon="5.80716">
        <ele>788.1728</ele>
        <time>2020-08-12T13:34:26Z</time>
      </trkpt>
      <trkpt lat="45.33372" lon="5.80705">
        <ele>789.58405</ele>
        <time>2020-08-12T13:34:31Z</time>
      </trkpt>
      <trkpt lat="45.33352" lon="5.80691">
        <ele>792.3111</ele>
        <time>2020-08-12T13:34:36Z</time>
      </trkpt>
      <trkpt lat="45.33331" lon="5.8067">
        <ele>792.8914</ele>
        <time>2020-08-12T13:34:41Z</time>
      </trkpt>
      <trkpt lat="45.33314" lon="5.80645">
        <ele>792.8946</ele>
        <time>2020-08-12T13:34:46Z</time>
      </trkpt>
      <trkpt lat="45.33296" lon="5.80629">
        <ele>790.9167</ele>
        <time>2020-08-12T13:34:51Z</time>
      </trkpt>
      <trkpt lat="45.33278" lon="5.80619">
        <ele>780.45825</ele>
        <time>2020-08-12T13:34:56Z</time>
      </trkpt>
      <trkpt lat="45.33262" lon="5.80613">
        <ele>781.4728</ele>
        <time>2020-08-12T13:35:01Z</time>
      </trkpt>
      <trkpt lat="45.33249" lon="5.80605">
        <ele>784.9702</ele>
        <time>2020-08-12T13:35:06Z</time>
      </trkpt>
      <trkpt lat="45.33233" lon="5.80595">
        <ele>786.40466</ele>
        <time>2020-08-12T13:35:11Z</time>
      </trkpt>
      <trkpt lat="45.3322" lon="5.80588">
        <ele>785.8032</ele>
        <time>2020-08-12T13:35:16Z</time>
      </trkpt>
      <trkpt lat="45.33207" lon="5.80582">
        <ele>782.4777</ele>
        <time>2020-08-12T13:35:21Z</time>
      </trkpt>
      <trkpt lat="45.33194" lon="5.80577">
        <ele>779.3503</ele>
        <time>2020-08-12T13:35:26Z</time>
      </trkpt>
      <trkpt lat="45.33181" lon="5.80573">
        <ele>781.6098</ele>
        <time>2020-08-12T13:35:31Z</time>
      </trkpt>
      <trkpt lat="45.33169" lon="5.80571">
        <ele>782.08466</ele>
        <time>2020-08-12T13:35:36Z</time>
      </trkpt>
      <trkpt lat="45.33156" lon="5.80567">
        <ele>770.1128</ele>
        <time>2020-08-12T13:35:41Z</time>
      </trkpt>
      <trkpt lat="45.33139" lon="5.80563">
        <ele>775.2685</ele>
        <time>2020-08-12T13:35:46Z</time>
      </trkpt>
      <trkpt lat="45.33125" lon="5.80558">
        <ele>784.78217</ele>
        <time>2020-08-12T13:35:51Z</time>
      </trkpt>
      <trkpt lat="45.33114" lon="5.80547">
        <ele>790.3524</ele>
        <time>2020-08-12T13:35:56Z</time>
      </trkpt>
      <trkpt lat="45.33102" lon="5.80535">
        <ele>789.43524</ele>
        <time>2020-08-12T13:36:01Z</time>
      </trkpt>
      <trkpt lat="45.33089" lon="5.80524">
        <ele>792.73517</ele>
        <time>2020-08-12T13:36:06Z</time>
      </trkpt>
      <trkpt lat="45.33078" lon="5.80512">
        <ele>793.6822</ele>
        <time>2020-08-12T13:36:11Z</time>
      </trkpt>
      <trkpt lat="45.33066" lon="5.80502">
        <ele>793.15393</ele>
        <time>2020-08-12T13:36:16Z</time>
      </trkpt>
      <trkpt lat="45.33057" lon="5.80489">
        <ele>794.8259</ele>
        <time>2020-08-12T13:36:21Z</time>
      </trkpt>
      <trkpt lat="45.33046" lon="5.80477">
        <ele>796.7467</ele>
        <time>2020-08-12T13:36:26Z</time>
      </trkpt>
      <trkpt lat="45.33035" lon="5.80466">
        <ele>798.5752</ele>
        <time>2020-08-12T13:36:31Z</time>
      </trkpt>
      <trkpt lat="45.33024" lon="5.80457">
        <ele>795.5923</ele>
        <time>2020-08-12T13:36:36Z</time>
      </trkpt>
      <trkpt lat="45.33013" lon="5.80447">
        <ele>793.30383</ele>
        <time>2020-08-12T13:36:41Z</time>
      </trkpt>
      <trkpt lat="45.33002" lon="5.80436">
        <ele>790.4098</ele>
        <time>2020-08-12T13:36:46Z</time>
      </trkpt>
      <trkpt lat="45.32991" lon="5.80426">
        <ele>792.5928</ele>
        <time>2020-08-12T13:36:51Z</time>
      </trkpt>
      <trkpt lat="45.32981" lon="5.80416">
        <ele>795.3829</ele>
        <time>2020-08-12T13:36:56Z</time>
      </trkpt>
      <trkpt lat="45.32969" lon="5.80402">
        <ele>797.6344</ele>
        <time>2020-08-12T13:37:01Z</time>
      </trkpt>
      <trkpt lat="45.32958" lon="5.80392">
        <ele>799.3747</ele>
        <time>2020-08-12T13:37:06Z</time>
      </trkpt>
      <trkpt lat="45.32946" lon="5.80382">
        <ele>800.205</ele>
        <time>2020-08-12T13:37:11Z</time>
      </trkpt>
      <trkpt lat="45.32935" lon="5.80371">
        <ele>803.0429</ele>
        <time>2020-08-12T13:37:16Z</time>
      </trkpt>
      <trkpt lat="45.32925" lon="5.8036">
        <ele>790.4055</ele>
        <time>2020-08-12T13:37:21Z</time>
      </trkpt>
      <trkpt lat="45.32912" lon="5.80353">
        <ele>799.13446</ele>
        <time>2020-08-12T13:37:26Z</time>
      </trkpt>
      <trkpt lat="45.32901" lon="5.80344">
        <ele>799.9499</ele>
        <time>2020-08-12T13:37:31Z</time>
      </trkpt>
      <trkpt lat="45.32892" lon="5.80334">
        <ele>801.2002</ele>
        <time>2020-08-12T13:37:36Z</time>
      </trkpt>
      <trkpt lat="45.32883" lon="5.80319">
        <ele>806.58936</ele>
        <time>2020-08-12T13:37:41Z</time>
      </trkpt>
      <trkpt lat="45.32877" lon="5.80302">
        <ele>816.0712</ele>
        <time>2020-08-12T13:37:46Z</time>
      </trkpt>
      <trkpt lat="45.32872" lon="5.80285">
        <ele>812.54565</ele>
        <time>2020-08-12T13:37:51Z</time>
      </trkpt>
      <trkpt lat="45.32866" lon="5.8027">
        <ele>815.57434</ele>
        <time>2020-08-12T13:37:56Z</time>
      </trkpt>
      <trkpt lat="45.32859" lon="5.80256">
        <ele>816.1361</ele>
        <time>2020-08-12T13:38:01Z</time>
      </trkpt>
      <trkpt lat="45.32853" lon="5.80238">
        <ele>816.24677</ele>
        <time>2020-08-12T13:38:06Z</time>
      </trkpt>
      <trkpt lat="45.32847" lon="5.8022">
        <ele>818.595</ele>
        <time>2020-08-12T13:38:11Z</time>
      </trkpt>
      <trkpt lat="45.32842" lon="5.80205">
        <ele>818.6163</ele>
        <time>2020-08-12T13:38:16Z</time>
      </trkpt>
      <trkpt lat="45.32834" lon="5.8019">
        <ele>820.18787</ele>
        <time>2020-08-12T13:38:21Z</time>
      </trkpt>
      <trkpt lat="45.32827" lon="5.80174">
        <ele>820.9775</ele>
        <time>2020-08-12T13:38:26Z</time>
      </trkpt>
      <trkpt lat="45.32818" lon="5.80164">
        <ele>824.99603</ele>
        <time>2020-08-12T13:38:31Z</time>
      </trkpt>
      <trkpt lat="45.32806" lon="5.80152">
        <ele>825.7262</ele>
        <time>2020-08-12T13:38:36Z</time>
      </trkpt>
      <trkpt lat="45.32795" lon="5.80139">
        <ele>825.0567</ele>
        <time>2020-08-12T13:38:41Z</time>
      </trkpt>
      <trkpt lat="45.32783" lon="5.80125">
        <ele>824.97797</ele>
        <time>2020-08-12T13:38:46Z</time>
      </trkpt>
      <trkpt lat="45.32771" lon="5.80115">
        <ele>824.68207</ele>
        <time>2020-08-12T13:38:51Z</time>
      </trkpt>
      <trkpt lat="45.32752" lon="5.80093">
        <ele>824.6161</ele>
        <time>2020-08-12T13:39:01Z</time>
      </trkpt>
      <trkpt lat="45.32741" lon="5.80082">
        <ele>826.3563</ele>
        <time>2020-08-12T13:39:06Z</time>
      </trkpt>
      <trkpt lat="45.32732" lon="5.8007">
        <ele>827.4516</ele>
        <time>2020-08-12T13:39:11Z</time>
      </trkpt>
      <trkpt lat="45.32722" lon="5.8006">
        <ele>830.1501</ele>
        <time>2020-08-12T13:39:16Z</time>
      </trkpt>
      <trkpt lat="45.32711" lon="5.80049">
        <ele>830.76544</ele>
        <time>2020-08-12T13:39:21Z</time>
      </trkpt>
      <trkpt lat="45.32703" lon="5.80034">
        <ele>830.1618</ele>
        <time>2020-08-12T13:39:26Z</time>
      </trkpt>
      <trkpt lat="45.32701" lon="5.80017">
        <ele>831.32434</ele>
        <time>2020-08-12T13:39:31Z</time>
      </trkpt>
      <trkpt lat="45.32699" lon="5.8">
        <ele>834.0861</ele>
        <time>2020-08-12T13:39:36Z</time>
      </trkpt>
      <trkpt lat="45.32698" lon="5.7998">
        <ele>835.0008</ele>
        <time>2020-08-12T13:39:41Z</time>
      </trkpt>
      <trkpt lat="45.32698" lon="5.79959">
        <ele>837.70123</ele>
        <time>2020-08-12T13:39:46Z</time>
      </trkpt>
      <trkpt lat="45.32695" lon="5.79936">
        <ele>842.24994</ele>
        <time>2020-08-12T13:39:51Z</time>
      </trkpt>
      <trkpt lat="45.32693" lon="5.7991">
        <ele>846.14545</ele>
        <time>2020-08-12T13:39:56Z</time>
      </trkpt>
      <trkpt lat="45.3269" lon="5.79884">
        <ele>846.9828</ele>
        <time>2020-08-12T13:40:01Z</time>
      </trkpt>
      <trkpt lat="45.32687" lon="5.79857">
        <ele>847.20544</ele>
        <time>2020-08-12T13:40:06Z</time>
      </trkpt>
      <trkpt lat="45.32683" lon="5.79831">
        <ele>839.8173</ele>
        <time>2020-08-12T13:40:11Z</time>
      </trkpt>
      <trkpt lat="45.32677" lon="5.79803">
        <ele>844.1449</ele>
        <time>2020-08-12T13:40:16Z</time>
      </trkpt>
      <trkpt lat="45.32669" lon="5.79777">
        <ele>846.9934</ele>
        <time>2020-08-12T13:40:21Z</time>
      </trkpt>
      <trkpt lat="45.32657" lon="5.79758">
        <ele>851.29144</ele>
        <time>2020-08-12T13:40:26Z</time>
      </trkpt>
      <trkpt lat="45.3264" lon="5.79741">
        <ele>865.62524</ele>
        <time>2020-08-12T13:40:31Z</time>
      </trkpt>
      <trkpt lat="45.32624" lon="5.79732">
        <ele>865.1337</ele>
        <time>2020-08-12T13:40:36Z</time>
      </trkpt>
      <trkpt lat="45.32607" lon="5.79723">
        <ele>862.9418</ele>
        <time>2020-08-12T13:40:41Z</time>
      </trkpt>
      <trkpt lat="45.32589" lon="5.79712">
        <ele>861.9439</ele>
        <time>2020-08-12T13:40:46Z</time>
      </trkpt>
      <trkpt lat="45.32574" lon="5.797">
        <ele>859.7395</ele>
        <time>2020-08-12T13:40:51Z</time>
      </trkpt>
      <trkpt lat="45.32561" lon="5.79685">
        <ele>855.1362</ele>
        <time>2020-08-12T13:40:56Z</time>
      </trkpt>
      <trkpt lat="45.32547" lon="5.79665">
        <ele>858.9603</ele>
        <time>2020-08-12T13:41:01Z</time>
      </trkpt>
      <trkpt lat="45.32536" lon="5.79644">
        <ele>863.8938</ele>
        <time>2020-08-12T13:41:06Z</time>
      </trkpt>
      <trkpt lat="45.32522" lon="5.79629">
        <ele>863.31805</ele>
        <time>2020-08-12T13:41:11Z</time>
      </trkpt>
      <trkpt lat="45.32507" lon="5.79611">
        <ele>862.1145</ele>
        <time>2020-08-12T13:41:16Z</time>
      </trkpt>
      <trkpt lat="45.32476" lon="5.79577">
        <ele>861.3651</ele>
        <time>2020-08-12T13:41:26Z</time>
      </trkpt>
      <trkpt lat="45.32462" lon="5.79558">
        <ele>859.5636</ele>
        <time>2020-08-12T13:41:31Z</time>
      </trkpt>
      <trkpt lat="45.32447" lon="5.79541">
        <ele>856.9661</ele>
        <time>2020-08-12T13:41:36Z</time>
      </trkpt>
      <trkpt lat="45.32435" lon="5.79523">
        <ele>844.8554</ele>
        <time>2020-08-12T13:41:41Z</time>
      </trkpt>
      <trkpt lat="45.32422" lon="5.79504">
        <ele>849.6825</ele>
        <time>2020-08-12T13:41:46Z</time>
      </trkpt>
      <trkpt lat="45.32411" lon="5.79487">
        <ele>853.5249</ele>
        <time>2020-08-12T13:41:51Z</time>
      </trkpt>
      <trkpt lat="45.324" lon="5.79467">
        <ele>858.9241</ele>
        <time>2020-08-12T13:41:56Z</time>
      </trkpt>
      <trkpt lat="45.32391" lon="5.79443">
        <ele>854.1462</ele>
        <time>2020-08-12T13:42:01Z</time>
      </trkpt>
      <trkpt lat="45.32382" lon="5.79417">
        <ele>846.36273</ele>
        <time>2020-08-12T13:42:06Z</time>
      </trkpt>
      <trkpt lat="45.3237" lon="5.79399">
        <ele>853.0912</ele>
        <time>2020-08-12T13:42:11Z</time>
      </trkpt>
      <trkpt lat="45.32353" lon="5.79391">
        <ele>854.7984</ele>
        <time>2020-08-12T13:42:16Z</time>
      </trkpt>
      <trkpt lat="45.32337" lon="5.79398">
        <ele>857.02155</ele>
        <time>2020-08-12T13:42:21Z</time>
      </trkpt>
      <trkpt lat="45.32328" lon="5.79417">
        <ele>859.5636</ele>
        <time>2020-08-12T13:42:26Z</time>
      </trkpt>
      <trkpt lat="45.32322" lon="5.79443">
        <ele>860.3353</ele>
        <time>2020-08-12T13:42:31Z</time>
      </trkpt>
      <trkpt lat="45.32318" lon="5.79461">
        <ele>857.8113</ele>
        <time>2020-08-12T13:42:36Z</time>
      </trkpt>
      <trkpt lat="45.32314" lon="5.7948">
        <ele>866.7927</ele>
        <time>2020-08-12T13:42:41Z</time>
      </trkpt>
      <trkpt lat="45.32307" lon="5.79503">
        <ele>854.9124</ele>
        <time>2020-08-12T13:42:46Z</time>
      </trkpt>
      <trkpt lat="45.323" lon="5.7952">
        <ele>862.14325</ele>
        <time>2020-08-12T13:42:51Z</time>
      </trkpt>
      <trkpt lat="45.3229" lon="5.79539">
        <ele>869.6697</ele>
        <time>2020-08-12T13:42:56Z</time>
      </trkpt>
      <trkpt lat="45.3228" lon="5.7956">
        <ele>871.65533</ele>
        <time>2020-08-12T13:43:01Z</time>
      </trkpt>
      <trkpt lat="45.32265" lon="5.79574">
        <ele>870.24445</ele>
        <time>2020-08-12T13:43:06Z</time>
      </trkpt>
      <trkpt lat="45.32248" lon="5.79579">
        <ele>871.8868</ele>
        <time>2020-08-12T13:43:11Z</time>
      </trkpt>
      <trkpt lat="45.32233" lon="5.79585">
        <ele>870.57715</ele>
        <time>2020-08-12T13:43:16Z</time>
      </trkpt>
      <trkpt lat="45.32219" lon="5.79585">
        <ele>872.37415</ele>
        <time>2020-08-12T13:43:21Z</time>
      </trkpt>
      <trkpt lat="45.322" lon="5.79584">
        <ele>874.45074</ele>
        <time>2020-08-12T13:43:26Z</time>
      </trkpt>
      <trkpt lat="45.32184" lon="5.79572">
        <ele>874.6929</ele>
        <time>2020-08-12T13:43:31Z</time>
      </trkpt>
      <trkpt lat="45.32169" lon="5.79558">
        <ele>875.96326</ele>
        <time>2020-08-12T13:43:36Z</time>
      </trkpt>
      <trkpt lat="45.32157" lon="5.79542">
        <ele>877.25397</ele>
        <time>2020-08-12T13:43:41Z</time>
      </trkpt>
      <trkpt lat="45.3215" lon="5.79524">
        <ele>880.4533</ele>
        <time>2020-08-12T13:43:46Z</time>
      </trkpt>
      <trkpt lat="45.32149" lon="5.79502">
        <ele>883.0534</ele>
        <time>2020-08-12T13:43:51Z</time>
      </trkpt>
      <trkpt lat="45.32148" lon="5.79477">
        <ele>876.8614</ele>
        <time>2020-08-12T13:43:56Z</time>
      </trkpt>
      <trkpt lat="45.32147" lon="5.79451">
        <ele>886.3902</ele>
        <time>2020-08-12T13:44:01Z</time>
      </trkpt>
      <trkpt lat="45.3214" lon="5.79429">
        <ele>892.62103</ele>
        <time>2020-08-12T13:44:06Z</time>
      </trkpt>
      <trkpt lat="45.32126" lon="5.79417">
        <ele>895.66235</ele>
        <time>2020-08-12T13:44:11Z</time>
      </trkpt>
      <trkpt lat="45.32111" lon="5.79405">
        <ele>894.613</ele>
        <time>2020-08-12T13:44:16Z</time>
      </trkpt>
      <trkpt lat="45.32101" lon="5.79387">
        <ele>895.83636</ele>
        <time>2020-08-12T13:44:21Z</time>
      </trkpt>
      <trkpt lat="45.32095" lon="5.79364">
        <ele>895.31006</ele>
        <time>2020-08-12T13:44:26Z</time>
      </trkpt>
      <trkpt lat="45.32091" lon="5.79341">
        <ele>895.8492</ele>
        <time>2020-08-12T13:44:31Z</time>
      </trkpt>
      <trkpt lat="45.32086" lon="5.79319">
        <ele>896.16626</ele>
        <time>2020-08-12T13:44:36Z</time>
      </trkpt>
      <trkpt lat="45.32081" lon="5.79295">
        <ele>897.73145</ele>
        <time>2020-08-12T13:44:41Z</time>
      </trkpt>
      <trkpt lat="45.32074" lon="5.79271">
        <ele>900.1018</ele>
        <time>2020-08-12T13:44:46Z</time>
      </trkpt>
      <trkpt lat="45.32068" lon="5.7925">
        <ele>898.5215</ele>
        <time>2020-08-12T13:44:51Z</time>
      </trkpt>
      <trkpt lat="45.32058" lon="5.79229">
        <ele>895.6154</ele>
        <time>2020-08-12T13:44:56Z</time>
      </trkpt>
      <trkpt lat="45.3205" lon="5.79213">
        <ele>893.2007</ele>
        <time>2020-08-12T13:45:01Z</time>
      </trkpt>
      <trkpt lat="45.3204" lon="5.79195">
        <ele>891.9678</ele>
        <time>2020-08-12T13:45:06Z</time>
      </trkpt>
      <trkpt lat="45.32029" lon="5.79177">
        <ele>901.1055</ele>
        <time>2020-08-12T13:45:11Z</time>
      </trkpt>
      <trkpt lat="45.32018" lon="5.79158">
        <ele>901.0447</ele>
        <time>2020-08-12T13:45:16Z</time>
      </trkpt>
      <trkpt lat="45.32008" lon="5.79138">
        <ele>902.3592</ele>
        <time>2020-08-12T13:45:21Z</time>
      </trkpt>
      <trkpt lat="45.31998" lon="5.79116">
        <ele>902.6347</ele>
        <time>2020-08-12T13:45:26Z</time>
      </trkpt>
      <trkpt lat="45.31989" lon="5.79096">
        <ele>904.58905</ele>
        <time>2020-08-12T13:45:31Z</time>
      </trkpt>
      <trkpt lat="45.31981" lon="5.79078">
        <ele>904.3925</ele>
        <time>2020-08-12T13:45:36Z</time>
      </trkpt>
      <trkpt lat="45.31973" lon="5.79059">
        <ele>903.8286</ele>
        <time>2020-08-12T13:45:41Z</time>
      </trkpt>
      <trkpt lat="45.31965" lon="5.79045">
        <ele>904.714</ele>
        <time>2020-08-12T13:45:46Z</time>
      </trkpt>
      <trkpt lat="45.31956" lon="5.79027">
        <ele>905.5353</ele>
        <time>2020-08-12T13:45:51Z</time>
      </trkpt>
      <trkpt lat="45.31947" lon="5.79009">
        <ele>907.4087</ele>
        <time>2020-08-12T13:45:56Z</time>
      </trkpt>
      <trkpt lat="45.31939" lon="5.78992">
        <ele>904.8005</ele>
        <time>2020-08-12T13:46:01Z</time>
      </trkpt>
      <trkpt lat="45.31929" lon="5.78974">
        <ele>904.90625</ele>
        <time>2020-08-12T13:46:06Z</time>
      </trkpt>
      <trkpt lat="45.31913" lon="5.78942">
        <ele>909.20105</ele>
        <time>2020-08-12T13:46:16Z</time>
      </trkpt>
      <trkpt lat="45.31905" lon="5.78924">
        <ele>911.9657</ele>
        <time>2020-08-12T13:46:21Z</time>
      </trkpt>
      <trkpt lat="45.31894" lon="5.78909">
        <ele>913.0127</ele>
        <time>2020-08-12T13:46:26Z</time>
      </trkpt>
      <trkpt lat="45.31885" lon="5.78891">
        <ele>916.404</ele>
        <time>2020-08-12T13:46:31Z</time>
      </trkpt>
      <trkpt lat="45.31874" lon="5.78876">
        <ele>917.76105</ele>
        <time>2020-08-12T13:46:36Z</time>
      </trkpt>
      <trkpt lat="45.31865" lon="5.7886">
        <ele>918.70465</ele>
        <time>2020-08-12T13:46:41Z</time>
      </trkpt>
      <trkpt lat="45.31854" lon="5.78844">
        <ele>921.2364</ele>
        <time>2020-08-12T13:46:46Z</time>
      </trkpt>
      <trkpt lat="45.31844" lon="5.78828">
        <ele>920.4829</ele>
        <time>2020-08-12T13:46:51Z</time>
      </trkpt>
      <trkpt lat="45.31838" lon="5.78812">
        <ele>920.8463</ele>
        <time>2020-08-12T13:46:56Z</time>
      </trkpt>
      <trkpt lat="45.31831" lon="5.78796">
        <ele>926.04095</ele>
        <time>2020-08-12T13:47:01Z</time>
      </trkpt>
      <trkpt lat="45.31823" lon="5.78778">
        <ele>927.4606</ele>
        <time>2020-08-12T13:47:06Z</time>
      </trkpt>
      <trkpt lat="45.31816" lon="5.78764">
        <ele>927.0041</ele>
        <time>2020-08-12T13:47:11Z</time>
      </trkpt>
      <trkpt lat="45.31804" lon="5.78764">
        <ele>925.23816</ele>
        <time>2020-08-12T13:47:16Z</time>
      </trkpt>
      <trkpt lat="45.31792" lon="5.78762">
        <ele>928.00793</ele>
        <time>2020-08-12T13:47:21Z</time>
      </trkpt>
      <trkpt lat="45.31778" lon="5.78753">
        <ele>920.63684</ele>
        <time>2020-08-12T13:47:26Z</time>
      </trkpt>
      <trkpt lat="45.31766" lon="5.78738">
        <ele>920.75867</ele>
        <time>2020-08-12T13:47:31Z</time>
      </trkpt>
      <trkpt lat="45.31753" lon="5.78719">
        <ele>920.63043</ele>
        <time>2020-08-12T13:47:36Z</time>
      </trkpt>
      <trkpt lat="45.31744" lon="5.787">
        <ele>915.5203</ele>
        <time>2020-08-12T13:47:41Z</time>
      </trkpt>
      <trkpt lat="45.31735" lon="5.78683">
        <ele>923.45416</ele>
        <time>2020-08-12T13:47:46Z</time>
      </trkpt>
      <trkpt lat="45.31724" lon="5.78668">
        <ele>931.0304</ele>
        <time>2020-08-12T13:47:51Z</time>
      </trkpt>
      <trkpt lat="45.31712" lon="5.78653">
        <ele>934.6681</ele>
        <time>2020-08-12T13:47:56Z</time>
      </trkpt>
      <trkpt lat="45.31701" lon="5.78641">
        <ele>938.62085</ele>
        <time>2020-08-12T13:48:01Z</time>
      </trkpt>
      <trkpt lat="45.31688" lon="5.78626">
        <ele>942.69403</ele>
        <time>2020-08-12T13:48:06Z</time>
      </trkpt>
      <trkpt lat="45.31677" lon="5.78612">
        <ele>947.4046</ele>
        <time>2020-08-12T13:48:11Z</time>
      </trkpt>
      <trkpt lat="45.31667" lon="5.78599">
        <ele>947.7587</ele>
        <time>2020-08-12T13:48:16Z</time>
      </trkpt>
      <trkpt lat="45.31656" lon="5.78584">
        <ele>947.9781</ele>
        <time>2020-08-12T13:48:21Z</time>
      </trkpt>
      <trkpt lat="45.31647" lon="5.78569">
        <ele>950.49695</ele>
        <time>2020-08-12T13:48:26Z</time>
      </trkpt>
      <trkpt lat="45.31639" lon="5.78552">
        <ele>951.3135</ele>
        <time>2020-08-12T13:48:31Z</time>
      </trkpt>
      <trkpt lat="45.31635" lon="5.78535">
        <ele>949.963</ele>
        <time>2020-08-12T13:48:36Z</time>
      </trkpt>
      <trkpt lat="45.31636" lon="5.78516">
        <ele>953.14453</ele>
        <time>2020-08-12T13:48:41Z</time>
      </trkpt>
      <trkpt lat="45.31638" lon="5.78497">
        <ele>952.8492</ele>
        <time>2020-08-12T13:48:46Z</time>
      </trkpt>
      <trkpt lat="45.3164" lon="5.78477">
        <ele>947.85504</ele>
        <time>2020-08-12T13:48:51Z</time>
      </trkpt>
      <trkpt lat="45.31638" lon="5.78455">
        <ele>949.9544</ele>
        <time>2020-08-12T13:48:56Z</time>
      </trkpt>
      <trkpt lat="45.31629" lon="5.78435">
        <ele>958.5466</ele>
        <time>2020-08-12T13:49:01Z</time>
      </trkpt>
      <trkpt lat="45.31616" lon="5.78433">
        <ele>949.8613</ele>
        <time>2020-08-12T13:49:06Z</time>
      </trkpt>
      <trkpt lat="45.31605" lon="5.78445">
        <ele>953.9333</ele>
        <time>2020-08-12T13:49:11Z</time>
      </trkpt>
      <trkpt lat="45.31593" lon="5.78457">
        <ele>955.18445</ele>
        <time>2020-08-12T13:49:16Z</time>
      </trkpt>
      <trkpt lat="45.31582" lon="5.78462">
        <ele>953.9354</ele>
        <time>2020-08-12T13:49:21Z</time>
      </trkpt>
      <trkpt lat="45.3157" lon="5.78461">
        <ele>955.21014</ele>
        <time>2020-08-12T13:49:26Z</time>
      </trkpt>
      <trkpt lat="45.31559" lon="5.78454">
        <ele>948.7003</ele>
        <time>2020-08-12T13:49:31Z</time>
      </trkpt>
      <trkpt lat="45.31546" lon="5.78447">
        <ele>954.26935</ele>
        <time>2020-08-12T13:49:36Z</time>
      </trkpt>
      <trkpt lat="45.31535" lon="5.78437">
        <ele>956.3426</ele>
        <time>2020-08-12T13:49:41Z</time>
      </trkpt>
      <trkpt lat="45.31524" lon="5.7843">
        <ele>960.78076</ele>
        <time>2020-08-12T13:49:46Z</time>
      </trkpt>
      <trkpt lat="45.31514" lon="5.78421">
        <ele>963.48944</ele>
        <time>2020-08-12T13:49:51Z</time>
      </trkpt>
      <trkpt lat="45.31502" lon="5.7841">
        <ele>966.2852</ele>
        <time>2020-08-12T13:49:56Z</time>
      </trkpt>
      <trkpt lat="45.31492" lon="5.78396">
        <ele>969.3705</ele>
        <time>2020-08-12T13:50:01Z</time>
      </trkpt>
      <trkpt lat="45.31485" lon="5.78381">
        <ele>970.7606</ele>
        <time>2020-08-12T13:50:06Z</time>
      </trkpt>
      <trkpt lat="45.31479" lon="5.78367">
        <ele>972.499</ele>
        <time>2020-08-12T13:50:11Z</time>
      </trkpt>
      <trkpt lat="45.31476" lon="5.7835">
        <ele>976.8374</ele>
        <time>2020-08-12T13:50:16Z</time>
      </trkpt>
      <trkpt lat="45.31473" lon="5.78337">
        <ele>977.23914</ele>
        <time>2020-08-12T13:50:21Z</time>
      </trkpt>
      <trkpt lat="45.31469" lon="5.78321">
        <ele>975.45544</ele>
        <time>2020-08-12T13:50:26Z</time>
      </trkpt>
      <trkpt lat="45.31466" lon="5.78302">
        <ele>972.3105</ele>
        <time>2020-08-12T13:50:31Z</time>
      </trkpt>
      <trkpt lat="45.31461" lon="5.78287">
        <ele>971.0048</ele>
        <time>2020-08-12T13:50:36Z</time>
      </trkpt>
      <trkpt lat="45.31458" lon="5.78269">
        <ele>971.1762</ele>
        <time>2020-08-12T13:50:41Z</time>
      </trkpt>
      <trkpt lat="45.31454" lon="5.78254">
        <ele>971.4847</ele>
        <time>2020-08-12T13:50:46Z</time>
      </trkpt>
      <trkpt lat="45.3145" lon="5.78236">
        <ele>974.2771</ele>
        <time>2020-08-12T13:50:51Z</time>
      </trkpt>
      <trkpt lat="45.31448" lon="5.78219">
        <ele>974.7281</ele>
        <time>2020-08-12T13:50:56Z</time>
      </trkpt>
      <trkpt lat="45.31441" lon="5.78181">
        <ele>978.8998</ele>
        <time>2020-08-12T13:51:06Z</time>
      </trkpt>
      <trkpt lat="45.31435" lon="5.78163">
        <ele>981.4499</ele>
        <time>2020-08-12T13:51:11Z</time>
      </trkpt>
      <trkpt lat="45.31429" lon="5.78148">
        <ele>985.8317</ele>
        <time>2020-08-12T13:51:16Z</time>
      </trkpt>
      <trkpt lat="45.31422" lon="5.78129">
        <ele>984.10205</ele>
        <time>2020-08-12T13:51:21Z</time>
      </trkpt>
      <trkpt lat="45.31416" lon="5.7811">
        <ele>979.6648</ele>
        <time>2020-08-12T13:51:26Z</time>
      </trkpt>
      <trkpt lat="45.31413" lon="5.78092">
        <ele>975.6601</ele>
        <time>2020-08-12T13:51:31Z</time>
      </trkpt>
      <trkpt lat="45.31408" lon="5.78077">
        <ele>978.8666</ele>
        <time>2020-08-12T13:51:36Z</time>
      </trkpt>
      <trkpt lat="45.31403" lon="5.7806">
        <ele>979.8405</ele>
        <time>2020-08-12T13:51:41Z</time>
      </trkpt>
      <trkpt lat="45.31397" lon="5.78042">
        <ele>980.16943</ele>
        <time>2020-08-12T13:51:46Z</time>
      </trkpt>
      <trkpt lat="45.3139" lon="5.78024">
        <ele>981.8474</ele>
        <time>2020-08-12T13:51:51Z</time>
      </trkpt>
      <trkpt lat="45.31382" lon="5.78007">
        <ele>978.1423</ele>
        <time>2020-08-12T13:51:56Z</time>
      </trkpt>
      <trkpt lat="45.31376" lon="5.77991">
        <ele>988.24756</ele>
        <time>2020-08-12T13:52:01Z</time>
      </trkpt>
      <trkpt lat="45.31369" lon="5.77975">
        <ele>991.4343</ele>
        <time>2020-08-12T13:52:06Z</time>
      </trkpt>
      <trkpt lat="45.31363" lon="5.77961">
        <ele>996.96857</ele>
        <time>2020-08-12T13:52:11Z</time>
      </trkpt>
      <trkpt lat="45.31356" lon="5.77946">
        <ele>1000.1233</ele>
        <time>2020-08-12T13:52:16Z</time>
      </trkpt>
      <trkpt lat="45.3135" lon="5.7793">
        <ele>999.2836</ele>
        <time>2020-08-12T13:52:21Z</time>
      </trkpt>
      <trkpt lat="45.31342" lon="5.77915">
        <ele>995.93494</ele>
        <time>2020-08-12T13:52:26Z</time>
      </trkpt>
      <trkpt lat="45.31334" lon="5.77903">
        <ele>1000.58014</ele>
        <time>2020-08-12T13:52:31Z</time>
      </trkpt>
      <trkpt lat="45.31326" lon="5.77892">
        <ele>998.45795</ele>
        <time>2020-08-12T13:52:36Z</time>
      </trkpt>
      <trkpt lat="45.31316" lon="5.7788">
        <ele>999.44775</ele>
        <time>2020-08-12T13:52:41Z</time>
      </trkpt>
      <trkpt lat="45.31306" lon="5.7787">
        <ele>995.53076</ele>
        <time>2020-08-12T13:52:46Z</time>
      </trkpt>
      <trkpt lat="45.31296" lon="5.77859">
        <ele>998.44617</ele>
        <time>2020-08-12T13:52:51Z</time>
      </trkpt>
      <trkpt lat="45.31284" lon="5.77849">
        <ele>999.01556</ele>
        <time>2020-08-12T13:52:56Z</time>
      </trkpt>
      <trkpt lat="45.31273" lon="5.77841">
        <ele>999.7823</ele>
        <time>2020-08-12T13:53:01Z</time>
      </trkpt>
      <trkpt lat="45.31263" lon="5.77828">
        <ele>998.8869</ele>
        <time>2020-08-12T13:53:06Z</time>
      </trkpt>
      <trkpt lat="45.31253" lon="5.77816">
        <ele>1000.2327</ele>
        <time>2020-08-12T13:53:11Z</time>
      </trkpt>
      <trkpt lat="45.31242" lon="5.77807">
        <ele>998.637</ele>
        <time>2020-08-12T13:53:16Z</time>
      </trkpt>
      <trkpt lat="45.31232" lon="5.77798">
        <ele>997.672</ele>
        <time>2020-08-12T13:53:21Z</time>
      </trkpt>
      <trkpt lat="45.31212" lon="5.77778">
        <ele>997.9379</ele>
        <time>2020-08-12T13:53:31Z</time>
      </trkpt>
      <trkpt lat="45.31203" lon="5.77767">
        <ele>1000.21234</ele>
        <time>2020-08-12T13:53:36Z</time>
      </trkpt>
      <trkpt lat="45.31195" lon="5.77757">
        <ele>1002.62854</ele>
        <time>2020-08-12T13:53:41Z</time>
      </trkpt>
      <trkpt lat="45.31186" lon="5.77743">
        <ele>1003.9156</ele>
        <time>2020-08-12T13:53:46Z</time>
      </trkpt>
      <trkpt lat="45.31179" lon="5.7773">
        <ele>1011.37427</ele>
        <time>2020-08-12T13:53:51Z</time>
      </trkpt>
      <trkpt lat="45.31172" lon="5.77713">
        <ele>1011.16724</ele>
        <time>2020-08-12T13:53:56Z</time>
      </trkpt>
      <trkpt lat="45.31168" lon="5.77694">
        <ele>1004.44434</ele>
        <time>2020-08-12T13:54:01Z</time>
      </trkpt>
      <trkpt lat="45.31167" lon="5.7768">
        <ele>1013.1618</ele>
        <time>2020-08-12T13:54:06Z</time>
      </trkpt>
      <trkpt lat="45.31162" lon="5.77666">
        <ele>1016.27045</ele>
        <time>2020-08-12T13:54:11Z</time>
      </trkpt>
      <trkpt lat="45.31159" lon="5.77654">
        <ele>1015.1555</ele>
        <time>2020-08-12T13:54:16Z</time>
      </trkpt>
      <trkpt lat="45.31158" lon="5.77641">
        <ele>1014.7445</ele>
        <time>2020-08-12T13:54:21Z</time>
      </trkpt>
      <trkpt lat="45.31162" lon="5.77624">
        <ele>1013.0234</ele>
        <time>2020-08-12T13:54:26Z</time>
      </trkpt>
      <trkpt lat="45.31165" lon="5.77605">
        <ele>1016.06976</ele>
        <time>2020-08-12T13:54:31Z</time>
      </trkpt>
      <trkpt lat="45.31173" lon="5.77589">
        <ele>1016.10626</ele>
        <time>2020-08-12T13:54:36Z</time>
      </trkpt>
      <trkpt lat="45.31177" lon="5.77572">
        <ele>1023.38745</ele>
        <time>2020-08-12T13:54:41Z</time>
      </trkpt>
      <trkpt lat="45.31185" lon="5.77558">
        <ele>1025.4025</ele>
        <time>2020-08-12T13:54:46Z</time>
      </trkpt>
      <trkpt lat="45.31197" lon="5.77548">
        <ele>1025.6418</ele>
        <time>2020-08-12T13:54:51Z</time>
      </trkpt>
      <trkpt lat="45.31207" lon="5.77536">
        <ele>1026.7283</ele>
        <time>2020-08-12T13:54:56Z</time>
      </trkpt>
      <trkpt lat="45.31214" lon="5.77527">
        <ele>1026.3772</ele>
        <time>2020-08-12T13:55:01Z</time>
      </trkpt>
      <trkpt lat="45.31224" lon="5.77514">
        <ele>1021.8482</ele>
        <time>2020-08-12T13:55:06Z</time>
      </trkpt>
      <trkpt lat="45.31234" lon="5.77504">
        <ele>1027.2802</ele>
        <time>2020-08-12T13:55:11Z</time>
      </trkpt>
      <trkpt lat="45.31245" lon="5.7749">
        <ele>1027.5764</ele>
        <time>2020-08-12T13:55:16Z</time>
      </trkpt>
      <trkpt lat="45.31253" lon="5.77471">
        <ele>1028.8102</ele>
        <time>2020-08-12T13:55:21Z</time>
      </trkpt>
      <trkpt lat="45.31258" lon="5.77453">
        <ele>1039.0748</ele>
        <time>2020-08-12T13:55:26Z</time>
      </trkpt>
      <trkpt lat="45.31257" lon="5.77435">
        <ele>1044.1016</ele>
        <time>2020-08-12T13:55:31Z</time>
      </trkpt>
      <trkpt lat="45.31257" lon="5.77418">
        <ele>1044.5033</ele>
        <time>2020-08-12T13:55:36Z</time>
      </trkpt>
      <trkpt lat="45.31253" lon="5.77404">
        <ele>1046.1537</ele>
        <time>2020-08-12T13:55:41Z</time>
      </trkpt>
      <trkpt lat="45.31248" lon="5.77389">
        <ele>1048.3071</ele>
        <time>2020-08-12T13:55:46Z</time>
      </trkpt>
      <trkpt lat="45.31233" lon="5.77352">
        <ele>1049.7537</ele>
        <time>2020-08-12T13:55:56Z</time>
      </trkpt>
      <trkpt lat="45.31224" lon="5.77333">
        <ele>1051.2948</ele>
        <time>2020-08-12T13:56:01Z</time>
      </trkpt>
      <trkpt lat="45.31217" lon="5.77318">
        <ele>1052.4286</ele>
        <time>2020-08-12T13:56:06Z</time>
      </trkpt>
      <trkpt lat="45.31211" lon="5.77305">
        <ele>1053.9926</ele>
        <time>2020-08-12T13:56:11Z</time>
      </trkpt>
      <trkpt lat="45.31204" lon="5.77291">
        <ele>1052.0697</ele>
        <time>2020-08-12T13:56:16Z</time>
      </trkpt>
      <trkpt lat="45.31199" lon="5.77277">
        <ele>1053.4325</ele>
        <time>2020-08-12T13:56:21Z</time>
      </trkpt>
      <trkpt lat="45.31195" lon="5.77262">
        <ele>1052.0588</ele>
        <time>2020-08-12T13:56:26Z</time>
      </trkpt>
      <trkpt lat="45.31192" lon="5.77246">
        <ele>1048.189</ele>
        <time>2020-08-12T13:56:31Z</time>
      </trkpt>
      <trkpt lat="45.31187" lon="5.77232">
        <ele>1047.1799</ele>
        <time>2020-08-12T13:56:36Z</time>
      </trkpt>
      <trkpt lat="45.31182" lon="5.7722">
        <ele>1042.2922</ele>
        <time>2020-08-12T13:56:41Z</time>
      </trkpt>
      <trkpt lat="45.31178" lon="5.77206">
        <ele>1053.4164</ele>
        <time>2020-08-12T13:56:46Z</time>
      </trkpt>
      <trkpt lat="45.31175" lon="5.77194">
        <ele>1052.7952</ele>
        <time>2020-08-12T13:56:51Z</time>
      </trkpt>
      <trkpt lat="45.31171" lon="5.77178">
        <ele>1049.7278</ele>
        <time>2020-08-12T13:56:56Z</time>
      </trkpt>
      <trkpt lat="45.31168" lon="5.77162">
        <ele>1051.3065</ele>
        <time>2020-08-12T13:57:01Z</time>
      </trkpt>
      <trkpt lat="45.31163" lon="5.7715">
        <ele>1052.1599</ele>
        <time>2020-08-12T13:57:06Z</time>
      </trkpt>
      <trkpt lat="45.31159" lon="5.77135">
        <ele>1049.7676</ele>
        <time>2020-08-12T13:57:11Z</time>
      </trkpt>
      <trkpt lat="45.31153" lon="5.77121">
        <ele>1048.0686</ele>
        <time>2020-08-12T13:57:16Z</time>
      </trkpt>
      <trkpt lat="45.31146" lon="5.7711">
        <ele>1049.9589</ele>
        <time>2020-08-12T13:57:21Z</time>
      </trkpt>
      <trkpt lat="45.31137" lon="5.77101">
        <ele>1049.5946</ele>
        <time>2020-08-12T13:57:26Z</time>
      </trkpt>
      <trkpt lat="45.31131" lon="5.77093">
        <ele>1052.0955</ele>
        <time>2020-08-12T13:57:31Z</time>
      </trkpt>
      <trkpt lat="45.31119" lon="5.77082">
        <ele>1056.1144</ele>
        <time>2020-08-12T13:57:36Z</time>
      </trkpt>
      <trkpt lat="45.31109" lon="5.77075">
        <ele>1058.4697</ele>
        <time>2020-08-12T13:57:41Z</time>
      </trkpt>
      <trkpt lat="45.311" lon="5.77069">
        <ele>1060.2383</ele>
        <time>2020-08-12T13:57:46Z</time>
      </trkpt>
      <trkpt lat="45.31093" lon="5.77062">
        <ele>1060.3717</ele>
        <time>2020-08-12T13:57:51Z</time>
      </trkpt>
      <trkpt lat="45.31089" lon="5.77055">
        <ele>1056.0251</ele>
        <time>2020-08-12T13:57:56Z</time>
      </trkpt>
      <trkpt lat="45.31082" lon="5.77048">
        <ele>1064.819</ele>
        <time>2020-08-12T13:58:01Z</time>
      </trkpt>
      <trkpt lat="45.31076" lon="5.77038">
        <ele>1070.6503</ele>
        <time>2020-08-12T13:58:06Z</time>
      </trkpt>
      <trkpt lat="45.31069" lon="5.77028">
        <ele>1069.4747</ele>
        <time>2020-08-12T13:58:11Z</time>
      </trkpt>
      <trkpt lat="45.3106" lon="5.77019">
        <ele>1077.0931</ele>
        <time>2020-08-12T13:58:16Z</time>
      </trkpt>
      <trkpt lat="45.31048" lon="5.7701">
        <ele>1074.1528</ele>
        <time>2020-08-12T13:58:21Z</time>
      </trkpt>
      <trkpt lat="45.3104" lon="5.77">
        <ele>1074.3411</ele>
        <time>2020-08-12T13:58:26Z</time>
      </trkpt>
      <trkpt lat="45.31031" lon="5.76991">
        <ele>1074.5143</ele>
        <time>2020-08-12T13:58:31Z</time>
      </trkpt>
      <trkpt lat="45.31027" lon="5.76981">
        <ele>1078.039</ele>
        <time>2020-08-12T13:58:36Z</time>
      </trkpt>
      <trkpt lat="45.31019" lon="5.7697">
        <ele>1081.3909</ele>
        <time>2020-08-12T13:58:41Z</time>
      </trkpt>
      <trkpt lat="45.31011" lon="5.76958">
        <ele>1086.1802</ele>
        <time>2020-08-12T13:58:46Z</time>
      </trkpt>
      <trkpt lat="45.31005" lon="5.76946">
        <ele>1089.3717</ele>
        <time>2020-08-12T13:58:51Z</time>
      </trkpt>
      <trkpt lat="45.30993" lon="5.76933">
        <ele>1089.2135</ele>
        <time>2020-08-12T13:58:56Z</time>
      </trkpt>
      <trkpt lat="45.30973" lon="5.76932">
        <ele>1085.5515</ele>
        <time>2020-08-12T13:59:01Z</time>
      </trkpt>
      <trkpt lat="45.30959" lon="5.76942">
        <ele>1084.9585</ele>
        <time>2020-08-12T13:59:06Z</time>
      </trkpt>
      <trkpt lat="45.30954" lon="5.76959">
        <ele>1089.7948</ele>
        <time>2020-08-12T13:59:11Z</time>
      </trkpt>
      <trkpt lat="45.30953" lon="5.76976">
        <ele>1088.8809</ele>
        <time>2020-08-12T13:59:16Z</time>
      </trkpt>
      <trkpt lat="45.30952" lon="5.77003">
        <ele>1088.4633</ele>
        <time>2020-08-12T13:59:21Z</time>
      </trkpt>
      <trkpt lat="45.30955" lon="5.77023">
        <ele>1087.9606</ele>
        <time>2020-08-12T13:59:26Z</time>
      </trkpt>
      <trkpt lat="45.30958" lon="5.77045">
        <ele>1085.4042</ele>
        <time>2020-08-12T13:59:31Z</time>
      </trkpt>
      <trkpt lat="45.30959" lon="5.77059">
        <ele>1083.3495</ele>
        <time>2020-08-12T13:59:36Z</time>
      </trkpt>
      <trkpt lat="45.30963" lon="5.77078">
        <ele>1083.2451</ele>
        <time>2020-08-12T13:59:41Z</time>
      </trkpt>
      <trkpt lat="45.30964" lon="5.77085">
        <ele>1084.2406</ele>
        <time>2020-08-12T13:59:46Z</time>
      </trkpt>
      <trkpt lat="45.30968" lon="5.77104">
        <ele>1092.286</ele>
        <time>2020-08-12T13:59:51Z</time>
      </trkpt>
      <trkpt lat="45.30972" lon="5.77119">
        <ele>1095.8931</ele>
        <time>2020-08-12T13:59:56Z</time>
      </trkpt>
      <trkpt lat="45.30975" lon="5.77133">
        <ele>1092.019</ele>
        <time>2020-08-12T14:00:01Z</time>
      </trkpt>
      <trkpt lat="45.30981" lon="5.77146">
        <ele>1092.399</ele>
        <time>2020-08-12T14:00:06Z</time>
      </trkpt>
      <trkpt lat="45.3099" lon="5.77165">
        <ele>1089.7561</ele>
        <time>2020-08-12T14:00:11Z</time>
      </trkpt>
      <trkpt lat="45.30999" lon="5.7718">
        <ele>1096.5068</ele>
        <time>2020-08-12T14:00:16Z</time>
      </trkpt>
      <trkpt lat="45.31007" lon="5.77193">
        <ele>1102.5756</ele>
        <time>2020-08-12T14:00:21Z</time>
      </trkpt>
      <trkpt lat="45.31002" lon="5.77208">
        <ele>1103.4459</ele>
        <time>2020-08-12T14:00:26Z</time>
      </trkpt>
      <trkpt lat="45.30993" lon="5.7722">
        <ele>1112.4784</ele>
        <time>2020-08-12T14:00:31Z</time>
      </trkpt>
      <trkpt lat="45.30984" lon="5.7723">
        <ele>1113.263</ele>
        <time>2020-08-12T14:00:36Z</time>
      </trkpt>
      <trkpt lat="45.3097" lon="5.77256">
        <ele>1103.642</ele>
        <time>2020-08-12T14:00:46Z</time>
      </trkpt>
      <trkpt lat="45.30962" lon="5.77271">
        <ele>1106.6388</ele>
        <time>2020-08-12T14:00:51Z</time>
      </trkpt>
      <trkpt lat="45.30951" lon="5.77293">
        <ele>1109.0682</ele>
        <time>2020-08-12T14:00:56Z</time>
      </trkpt>
      <trkpt lat="45.30941" lon="5.7731">
        <ele>1109.5563</ele>
        <time>2020-08-12T14:01:01Z</time>
      </trkpt>
      <trkpt lat="45.30933" lon="5.77318">
        <ele>1110.3568</ele>
        <time>2020-08-12T14:01:06Z</time>
      </trkpt>
      <trkpt lat="45.30925" lon="5.77322">
        <ele>1110.3278</ele>
        <time>2020-08-12T14:01:11Z</time>
      </trkpt>
      <trkpt lat="45.30916" lon="5.77326">
        <ele>1113.9493</ele>
        <time>2020-08-12T14:01:16Z</time>
      </trkpt>
      <trkpt lat="45.30906" lon="5.77329">
        <ele>1114.027</ele>
        <time>2020-08-12T14:01:21Z</time>
      </trkpt>
      <trkpt lat="45.30894" lon="5.77332">
        <ele>1115.1995</ele>
        <time>2020-08-12T14:01:26Z</time>
      </trkpt>
      <trkpt lat="45.30882" lon="5.77332">
        <ele>1116.4098</ele>
        <time>2020-08-12T14:01:31Z</time>
      </trkpt>
      <trkpt lat="45.30874" lon="5.77333">
        <ele>1115.3956</ele>
        <time>2020-08-12T14:01:36Z</time>
      </trkpt>
      <trkpt lat="45.30862" lon="5.77331">
        <ele>1112.4343</ele>
        <time>2020-08-12T14:01:41Z</time>
      </trkpt>
      <trkpt lat="45.30855" lon="5.77327">
        <ele>1113.9763</ele>
        <time>2020-08-12T14:01:46Z</time>
      </trkpt>
      <trkpt lat="45.30847" lon="5.77322">
        <ele>1114.8999</ele>
        <time>2020-08-12T14:01:51Z</time>
      </trkpt>
      <trkpt lat="45.30823" lon="5.77299">
        <ele>1129.4725</ele>
        <time>2020-08-12T14:02:01Z</time>
      </trkpt>
      <trkpt lat="45.30811" lon="5.77285">
        <ele>1136.3242</ele>
        <time>2020-08-12T14:02:06Z</time>
      </trkpt>
      <trkpt lat="45.30799" lon="5.77275">
        <ele>1133.3085</ele>
        <time>2020-08-12T14:02:11Z</time>
      </trkpt>
      <trkpt lat="45.30792" lon="5.77265">
        <ele>1136.9003</ele>
        <time>2020-08-12T14:02:16Z</time>
      </trkpt>
      <trkpt lat="45.30782" lon="5.77255">
        <ele>1140.5056</ele>
        <time>2020-08-12T14:02:21Z</time>
      </trkpt>
      <trkpt lat="45.30772" lon="5.77246">
        <ele>1146.1141</ele>
        <time>2020-08-12T14:02:26Z</time>
      </trkpt>
      <trkpt lat="45.30763" lon="5.77242">
        <ele>1145.5875</ele>
        <time>2020-08-12T14:02:31Z</time>
      </trkpt>
      <trkpt lat="45.30752" lon="5.77237">
        <ele>1145.9781</ele>
        <time>2020-08-12T14:02:36Z</time>
      </trkpt>
      <trkpt lat="45.30741" lon="5.77234">
        <ele>1149.6334</ele>
        <time>2020-08-12T14:02:41Z</time>
      </trkpt>
      <trkpt lat="45.30729" lon="5.77231">
        <ele>1143.1447</ele>
        <time>2020-08-12T14:02:46Z</time>
      </trkpt>
      <trkpt lat="45.30718" lon="5.77227">
        <ele>1141.6168</ele>
        <time>2020-08-12T14:02:51Z</time>
      </trkpt>
      <trkpt lat="45.3071" lon="5.77226">
        <ele>1143.4122</ele>
        <time>2020-08-12T14:02:56Z</time>
      </trkpt>
      <trkpt lat="45.30701" lon="5.77226">
        <ele>1150.6858</ele>
        <time>2020-08-12T14:03:01Z</time>
      </trkpt>
      <trkpt lat="45.30681" lon="5.77223">
        <ele>1148.3469</ele>
        <time>2020-08-12T14:03:11Z</time>
      </trkpt>
      <trkpt lat="45.30672" lon="5.77217">
        <ele>1149.1693</ele>
        <time>2020-08-12T14:03:16Z</time>
      </trkpt>
      <trkpt lat="45.30661" lon="5.77208">
        <ele>1147.7793</ele>
        <time>2020-08-12T14:03:21Z</time>
      </trkpt>
      <trkpt lat="45.3065" lon="5.772">
        <ele>1149.9054</ele>
        <time>2020-08-12T14:03:26Z</time>
      </trkpt>
      <trkpt lat="45.30644" lon="5.77192">
        <ele>1149.3884</ele>
        <time>2020-08-12T14:03:31Z</time>
      </trkpt>
      <trkpt lat="45.30642" lon="5.77187">
        <ele>1146.8416</ele>
        <time>2020-08-12T14:03:36Z</time>
      </trkpt>
      <trkpt lat="45.30637" lon="5.77178">
        <ele>1145.5066</ele>
        <time>2020-08-12T14:03:41Z</time>
      </trkpt>
      <trkpt lat="45.30631" lon="5.77166">
        <ele>1142.944</ele>
        <time>2020-08-12T14:03:46Z</time>
      </trkpt>
      <trkpt lat="45.30619" lon="5.77154">
        <ele>1156.1716</ele>
        <time>2020-08-12T14:03:51Z</time>
      </trkpt>
      <trkpt lat="45.30609" lon="5.77144">
        <ele>1158.7562</ele>
        <time>2020-08-12T14:03:56Z</time>
      </trkpt>
      <trkpt lat="45.30602" lon="5.77133">
        <ele>1160.7517</ele>
        <time>2020-08-12T14:04:01Z</time>
      </trkpt>
      <trkpt lat="45.30596" lon="5.7712">
        <ele>1163.8713</ele>
        <time>2020-08-12T14:04:06Z</time>
      </trkpt>
      <trkpt lat="45.30593" lon="5.7711">
        <ele>1168.1895</ele>
        <time>2020-08-12T14:04:11Z</time>
      </trkpt>
      <trkpt lat="45.30591" lon="5.77104">
        <ele>1181.8972</ele>
        <time>2020-08-12T14:04:16Z</time>
      </trkpt>
      <trkpt lat="45.30591" lon="5.77085">
        <ele>1190.3785</ele>
        <time>2020-08-12T14:04:21Z</time>
      </trkpt>
      <trkpt lat="45.30587" lon="5.77073">
        <ele>1188.2703</ele>
        <time>2020-08-12T14:04:26Z</time>
      </trkpt>
      <trkpt lat="45.30583" lon="5.77063">
        <ele>1180.3561</ele>
        <time>2020-08-12T14:04:31Z</time>
      </trkpt>
      <trkpt lat="45.3058" lon="5.77046">
        <ele>1175.5085</ele>
        <time>2020-08-12T14:04:36Z</time>
      </trkpt>
      <trkpt lat="45.30577" lon="5.77032">
        <ele>1172.8561</ele>
        <time>2020-08-12T14:04:41Z</time>
      </trkpt>
      <trkpt lat="45.30572" lon="5.77016">
        <ele>1172.3549</ele>
        <time>2020-08-12T14:04:46Z</time>
      </trkpt>
      <trkpt lat="45.30566" lon="5.77003">
        <ele>1168.1376</ele>
        <time>2020-08-12T14:04:51Z</time>
      </trkpt>
      <trkpt lat="45.30561" lon="5.76991">
        <ele>1169.1216</ele>
        <time>2020-08-12T14:04:56Z</time>
      </trkpt>
      <trkpt lat="45.30554" lon="5.76979">
        <ele>1166.8263</ele>
        <time>2020-08-12T14:05:01Z</time>
      </trkpt>
      <trkpt lat="45.3055" lon="5.76967">
        <ele>1165.8467</ele>
        <time>2020-08-12T14:05:06Z</time>
      </trkpt>
      <trkpt lat="45.30543" lon="5.76956">
        <ele>1165.824</ele>
        <time>2020-08-12T14:05:11Z</time>
      </trkpt>
      <trkpt lat="45.30535" lon="5.76944">
        <ele>1166.4397</ele>
        <time>2020-08-12T14:05:16Z</time>
      </trkpt>
      <trkpt lat="45.30528" lon="5.76932">
        <ele>1167.2043</ele>
        <time>2020-08-12T14:05:21Z</time>
      </trkpt>
      <trkpt lat="45.3052" lon="5.76918">
        <ele>1166.4083</ele>
        <time>2020-08-12T14:05:26Z</time>
      </trkpt>
      <trkpt lat="45.30502" lon="5.76891">
        <ele>1175.4945</ele>
        <time>2020-08-12T14:05:36Z</time>
      </trkpt>
      <trkpt lat="45.30494" lon="5.7688">
        <ele>1178.4757</ele>
        <time>2020-08-12T14:05:41Z</time>
      </trkpt>
      <trkpt lat="45.30487" lon="5.76871">
        <ele>1178.0769</ele>
        <time>2020-08-12T14:05:46Z</time>
      </trkpt>
      <trkpt lat="45.30483" lon="5.76861">
        <ele>1179.5801</ele>
        <time>2020-08-12T14:05:51Z</time>
      </trkpt>
      <trkpt lat="45.30478" lon="5.76854">
        <ele>1180.7386</ele>
        <time>2020-08-12T14:05:56Z</time>
      </trkpt>
      <trkpt lat="45.30471" lon="5.76845">
        <ele>1179.5369</ele>
        <time>2020-08-12T14:06:01Z</time>
      </trkpt>
      <trkpt lat="45.30461" lon="5.76835">
        <ele>1180.0804</ele>
        <time>2020-08-12T14:06:06Z</time>
      </trkpt>
      <trkpt lat="45.30456" lon="5.76829">
        <ele>1182.1328</ele>
        <time>2020-08-12T14:06:11Z</time>
      </trkpt>
      <trkpt lat="45.30449" lon="5.76824">
        <ele>1183.2341</ele>
        <time>2020-08-12T14:06:16Z</time>
      </trkpt>
      <trkpt lat="45.30438" lon="5.76816">
        <ele>1184.222</ele>
        <time>2020-08-12T14:06:21Z</time>
      </trkpt>
      <trkpt lat="45.30422" lon="5.76812">
        <ele>1184.5636</ele>
        <time>2020-08-12T14:06:26Z</time>
      </trkpt>
      <trkpt lat="45.30407" lon="5.76815">
        <ele>1187.0369</ele>
        <time>2020-08-12T14:06:31Z</time>
      </trkpt>
      <trkpt lat="45.30387" lon="5.76813">
        <ele>1188.7319</ele>
        <time>2020-08-12T14:06:36Z</time>
      </trkpt>
      <trkpt lat="45.30365" lon="5.76814">
        <ele>1187.3752</ele>
        <time>2020-08-12T14:06:41Z</time>
      </trkpt>
      <trkpt lat="45.3034" lon="5.76816">
        <ele>1186.7817</ele>
        <time>2020-08-12T14:06:46Z</time>
      </trkpt>
      <trkpt lat="45.30317" lon="5.76818">
        <ele>1187.3655</ele>
        <time>2020-08-12T14:06:51Z</time>
      </trkpt>
      <trkpt lat="45.30296" lon="5.76821">
        <ele>1188.3838</ele>
        <time>2020-08-12T14:06:56Z</time>
      </trkpt>
      <trkpt lat="45.30277" lon="5.76827">
        <ele>1190.6942</ele>
        <time>2020-08-12T14:07:01Z</time>
      </trkpt>
      <trkpt lat="45.30263" lon="5.76837">
        <ele>1193.2048</ele>
        <time>2020-08-12T14:07:06Z</time>
      </trkpt>
      <trkpt lat="45.30251" lon="5.76856">
        <ele>1194.431</ele>
        <time>2020-08-12T14:07:11Z</time>
      </trkpt>
      <trkpt lat="45.3024" lon="5.76875">
        <ele>1188.9763</ele>
        <time>2020-08-12T14:07:16Z</time>
      </trkpt>
      <trkpt lat="45.30233" lon="5.76898">
        <ele>1188.1179</ele>
        <time>2020-08-12T14:07:21Z</time>
      </trkpt>
      <trkpt lat="45.30225" lon="5.76916">
        <ele>1190.6045</ele>
        <time>2020-08-12T14:07:26Z</time>
      </trkpt>
      <trkpt lat="45.30217" lon="5.76933">
        <ele>1192.1506</ele>
        <time>2020-08-12T14:07:31Z</time>
      </trkpt>
      <trkpt lat="45.3021" lon="5.76948">
        <ele>1194.0624</ele>
        <time>2020-08-12T14:07:36Z</time>
      </trkpt>
      <trkpt lat="45.30206" lon="5.76966">
        <ele>1188.8865</ele>
        <time>2020-08-12T14:07:41Z</time>
      </trkpt>
      <trkpt lat="45.30208" lon="5.76989">
        <ele>1191.8035</ele>
        <time>2020-08-12T14:07:46Z</time>
      </trkpt>
      <trkpt lat="45.30213" lon="5.77012">
        <ele>1197.923</ele>
        <time>2020-08-12T14:07:51Z</time>
      </trkpt>
      <trkpt lat="45.30223" lon="5.77045">
        <ele>1199.3885</ele>
        <time>2020-08-12T14:08:01Z</time>
      </trkpt>
      <trkpt lat="45.30223" lon="5.77057">
        <ele>1201.9402</ele>
        <time>2020-08-12T14:08:06Z</time>
      </trkpt>
      <trkpt lat="45.3022" lon="5.77072">
        <ele>1203.831</ele>
        <time>2020-08-12T14:08:11Z</time>
      </trkpt>
      <trkpt lat="45.30209" lon="5.77095">
        <ele>1199.8688</ele>
        <time>2020-08-12T14:08:16Z</time>
      </trkpt>
      <trkpt lat="45.30203" lon="5.77109">
        <ele>1198.0095</ele>
        <time>2020-08-12T14:08:21Z</time>
      </trkpt>
      <trkpt lat="45.30196" lon="5.77118">
        <ele>1198.3989</ele>
        <time>2020-08-12T14:08:26Z</time>
      </trkpt>
      <trkpt lat="45.30188" lon="5.77115">
        <ele>1205.8226</ele>
        <time>2020-08-12T14:08:31Z</time>
      </trkpt>
      <trkpt lat="45.30177" lon="5.7711">
        <ele>1207.4867</ele>
        <time>2020-08-12T14:08:36Z</time>
      </trkpt>
      <trkpt lat="45.30169" lon="5.77104">
        <ele>1206.5886</ele>
        <time>2020-08-12T14:08:41Z</time>
      </trkpt>
      <trkpt lat="45.30162" lon="5.77098">
        <ele>1205.999</ele>
        <time>2020-08-12T14:08:46Z</time>
      </trkpt>
      <trkpt lat="45.30148" lon="5.77084">
        <ele>1206.7488</ele>
        <time>2020-08-12T14:08:51Z</time>
      </trkpt>
      <trkpt lat="45.30134" lon="5.77077">
        <ele>1206.0747</ele>
        <time>2020-08-12T14:08:56Z</time>
      </trkpt>
      <trkpt lat="45.3012" lon="5.7707">
        <ele>1207.2064</ele>
        <time>2020-08-12T14:09:01Z</time>
      </trkpt>
      <trkpt lat="45.30111" lon="5.77065">
        <ele>1208.7537</ele>
        <time>2020-08-12T14:09:06Z</time>
      </trkpt>
      <trkpt lat="45.30101" lon="5.77061">
        <ele>1213.4988</ele>
        <time>2020-08-12T14:09:11Z</time>
      </trkpt>
      <trkpt lat="45.30092" lon="5.77058">
        <ele>1216.3907</ele>
        <time>2020-08-12T14:09:16Z</time>
      </trkpt>
      <trkpt lat="45.30084" lon="5.77054">
        <ele>1215.815</ele>
        <time>2020-08-12T14:09:21Z</time>
      </trkpt>
      <trkpt lat="45.30076" lon="5.77051">
        <ele>1214.5226</ele>
        <time>2020-08-12T14:09:26Z</time>
      </trkpt>
      <trkpt lat="45.30066" lon="5.77044">
        <ele>1220.0505</ele>
        <time>2020-08-12T14:09:31Z</time>
      </trkpt>
      <trkpt lat="45.30056" lon="5.77038">
        <ele>1222.6564</ele>
        <time>2020-08-12T14:09:36Z</time>
      </trkpt>
      <trkpt lat="45.30047" lon="5.77039">
        <ele>1222.0901</ele>
        <time>2020-08-12T14:09:41Z</time>
      </trkpt>
      <trkpt lat="45.30037" lon="5.77037">
        <ele>1218.1919</ele>
        <time>2020-08-12T14:09:46Z</time>
      </trkpt>
      <trkpt lat="45.30027" lon="5.77036">
        <ele>1216.0585</ele>
        <time>2020-08-12T14:09:51Z</time>
      </trkpt>
      <trkpt lat="45.30018" lon="5.77038">
        <ele>1214.1482</ele>
        <time>2020-08-12T14:09:56Z</time>
      </trkpt>
      <trkpt lat="45.30009" lon="5.77038">
        <ele>1215.5227</ele>
        <time>2020-08-12T14:10:01Z</time>
      </trkpt>
      <trkpt lat="45.29998" lon="5.77032">
        <ele>1216.4904</ele>
        <time>2020-08-12T14:10:06Z</time>
      </trkpt>
      <trkpt lat="45.29989" lon="5.77023">
        <ele>1219.663</ele>
        <time>2020-08-12T14:10:11Z</time>
      </trkpt>
      <trkpt lat="45.2998" lon="5.77016">
        <ele>1221.0898</ele>
        <time>2020-08-12T14:10:16Z</time>
      </trkpt>
      <trkpt lat="45.29959" lon="5.77006">
        <ele>1222.9606</ele>
        <time>2020-08-12T14:10:26Z</time>
      </trkpt>
      <trkpt lat="45.29948" lon="5.77">
        <ele>1223.935</ele>
        <time>2020-08-12T14:10:31Z</time>
      </trkpt>
      <trkpt lat="45.29936" lon="5.76996">
        <ele>1224.6431</ele>
        <time>2020-08-12T14:10:36Z</time>
      </trkpt>
      <trkpt lat="45.29925" lon="5.76992">
        <ele>1226.5359</ele>
        <time>2020-08-12T14:10:41Z</time>
      </trkpt>
      <trkpt lat="45.2991" lon="5.76988">
        <ele>1227.7042</ele>
        <time>2020-08-12T14:10:46Z</time>
      </trkpt>
      <trkpt lat="45.29898" lon="5.76985">
        <ele>1230.442</ele>
        <time>2020-08-12T14:10:51Z</time>
      </trkpt>
      <trkpt lat="45.29887" lon="5.76981">
        <ele>1232.5215</ele>
        <time>2020-08-12T14:10:56Z</time>
      </trkpt>
      <trkpt lat="45.29876" lon="5.7698">
        <ele>1239.2053</ele>
        <time>2020-08-12T14:11:01Z</time>
      </trkpt>
      <trkpt lat="45.29863" lon="5.76981">
        <ele>1243.1471</ele>
        <time>2020-08-12T14:11:06Z</time>
      </trkpt>
      <trkpt lat="45.29852" lon="5.76982">
        <ele>1244.4313</ele>
        <time>2020-08-12T14:11:11Z</time>
      </trkpt>
      <trkpt lat="45.29841" lon="5.76983">
        <ele>1244.7292</ele>
        <time>2020-08-12T14:11:16Z</time>
      </trkpt>
      <trkpt lat="45.29832" lon="5.76986">
        <ele>1241.253</ele>
        <time>2020-08-12T14:11:21Z</time>
      </trkpt>
      <trkpt lat="45.29824" lon="5.76988">
        <ele>1244.1409</ele>
        <time>2020-08-12T14:11:26Z</time>
      </trkpt>
      <trkpt lat="45.29811" lon="5.76987">
        <ele>1244.4562</ele>
        <time>2020-08-12T14:11:31Z</time>
      </trkpt>
      <trkpt lat="45.29801" lon="5.76986">
        <ele>1245.7999</ele>
        <time>2020-08-12T14:11:36Z</time>
      </trkpt>
      <trkpt lat="45.29789" lon="5.76985">
        <ele>1247.9122</ele>
        <time>2020-08-12T14:11:41Z</time>
      </trkpt>
      <trkpt lat="45.2978" lon="5.76984">
        <ele>1249.008</ele>
        <time>2020-08-12T14:11:46Z</time>
      </trkpt>
      <trkpt lat="45.29768" lon="5.76981">
        <ele>1248.6525</ele>
        <time>2020-08-12T14:11:51Z</time>
      </trkpt>
      <trkpt lat="45.29758" lon="5.76977">
        <ele>1248.4141</ele>
        <time>2020-08-12T14:11:56Z</time>
      </trkpt>
      <trkpt lat="45.29748" lon="5.76974">
        <ele>1250.4486</ele>
        <time>2020-08-12T14:12:01Z</time>
      </trkpt>
      <trkpt lat="45.29739" lon="5.76972">
        <ele>1252.635</ele>
        <time>2020-08-12T14:12:06Z</time>
      </trkpt>
      <trkpt lat="45.29726" lon="5.7697">
        <ele>1250.157</ele>
        <time>2020-08-12T14:12:11Z</time>
      </trkpt>
      <trkpt lat="45.29716" lon="5.76967">
        <ele>1249.4968</ele>
        <time>2020-08-12T14:12:16Z</time>
      </trkpt>
      <trkpt lat="45.29705" lon="5.76967">
        <ele>1249.2291</ele>
        <time>2020-08-12T14:12:21Z</time>
      </trkpt>
      <trkpt lat="45.29696" lon="5.76965">
        <ele>1251.1033</ele>
        <time>2020-08-12T14:12:26Z</time>
      </trkpt>
      <trkpt lat="45.29683" lon="5.76959">
        <ele>1252.6415</ele>
        <time>2020-08-12T14:12:31Z</time>
      </trkpt>
      <trkpt lat="45.29672" lon="5.76954">
        <ele>1255.1718</ele>
        <time>2020-08-12T14:12:36Z</time>
      </trkpt>
      <trkpt lat="45.2966" lon="5.76946">
        <ele>1262.3284</ele>
        <time>2020-08-12T14:12:41Z</time>
      </trkpt>
      <trkpt lat="45.29645" lon="5.76933">
        <ele>1270.9214</ele>
        <time>2020-08-12T14:12:51Z</time>
      </trkpt>
      <trkpt lat="45.29633" lon="5.76918">
        <ele>1271.2393</ele>
        <time>2020-08-12T14:12:56Z</time>
      </trkpt>
      <trkpt lat="45.29623" lon="5.76905">
        <ele>1270.1456</ele>
        <time>2020-08-12T14:13:01Z</time>
      </trkpt>
      <trkpt lat="45.29616" lon="5.76893">
        <ele>1269.3429</ele>
        <time>2020-08-12T14:13:06Z</time>
      </trkpt>
      <trkpt lat="45.29604" lon="5.76878">
        <ele>1270.7336</ele>
        <time>2020-08-12T14:13:11Z</time>
      </trkpt>
      <trkpt lat="45.29586" lon="5.76862">
        <ele>1271.7285</ele>
        <time>2020-08-12T14:13:16Z</time>
      </trkpt>
      <trkpt lat="45.29571" lon="5.76847">
        <ele>1273.0533</ele>
        <time>2020-08-12T14:13:21Z</time>
      </trkpt>
      <trkpt lat="45.29556" lon="5.76837">
        <ele>1272.5227</ele>
        <time>2020-08-12T14:13:26Z</time>
      </trkpt>
      <trkpt lat="45.29542" lon="5.76826">
        <ele>1273.828</ele>
        <time>2020-08-12T14:13:31Z</time>
      </trkpt>
      <trkpt lat="45.29528" lon="5.76825">
        <ele>1274.4661</ele>
        <time>2020-08-12T14:13:36Z</time>
      </trkpt>
      <trkpt lat="45.29515" lon="5.76828">
        <ele>1271.5995</ele>
        <time>2020-08-12T14:13:41Z</time>
      </trkpt>
      <trkpt lat="45.29499" lon="5.76832">
        <ele>1268.8699</ele>
        <time>2020-08-12T14:13:46Z</time>
      </trkpt>
      <trkpt lat="45.29483" lon="5.76833">
        <ele>1269.4568</ele>
        <time>2020-08-12T14:13:51Z</time>
      </trkpt>
      <trkpt lat="45.29469" lon="5.76833">
        <ele>1274.2631</ele>
        <time>2020-08-12T14:13:56Z</time>
      </trkpt>
      <trkpt lat="45.29459" lon="5.76832">
        <ele>1277.0714</ele>
        <time>2020-08-12T14:14:01Z</time>
      </trkpt>
      <trkpt lat="45.29443" lon="5.7682">
        <ele>1274.7091</ele>
        <time>2020-08-12T14:14:06Z</time>
      </trkpt>
      <trkpt lat="45.29427" lon="5.76807">
        <ele>1275.015</ele>
        <time>2020-08-12T14:14:11Z</time>
      </trkpt>
      <trkpt lat="45.29415" lon="5.76798">
        <ele>1275.804</ele>
        <time>2020-08-12T14:14:16Z</time>
      </trkpt>
      <trkpt lat="45.29403" lon="5.76788">
        <ele>1277.6791</ele>
        <time>2020-08-12T14:14:21Z</time>
      </trkpt>
      <trkpt lat="45.29388" lon="5.7678">
        <ele>1274.695</ele>
        <time>2020-08-12T14:14:26Z</time>
      </trkpt>
      <trkpt lat="45.29377" lon="5.76777">
        <ele>1281.2584</ele>
        <time>2020-08-12T14:14:31Z</time>
      </trkpt>
      <trkpt lat="45.29366" lon="5.76775">
        <ele>1285.0728</ele>
        <time>2020-08-12T14:14:36Z</time>
      </trkpt>
      <trkpt lat="45.29359" lon="5.76776">
        <ele>1287.8986</ele>
        <time>2020-08-12T14:14:41Z</time>
      </trkpt>
      <trkpt lat="45.29346" lon="5.76774">
        <ele>1290.336</ele>
        <time>2020-08-12T14:14:46Z</time>
      </trkpt>
      <trkpt lat="45.29335" lon="5.76774">
        <ele>1290.2275</ele>
        <time>2020-08-12T14:14:51Z</time>
      </trkpt>
      <trkpt lat="45.29325" lon="5.76774">
        <ele>1287.0984</ele>
        <time>2020-08-12T14:14:56Z</time>
      </trkpt>
      <trkpt lat="45.29314" lon="5.76774">
        <ele>1287.4861</ele>
        <time>2020-08-12T14:15:01Z</time>
      </trkpt>
      <trkpt lat="45.29301" lon="5.76769">
        <ele>1288.6879</ele>
        <time>2020-08-12T14:15:06Z</time>
      </trkpt>
      <trkpt lat="45.29289" lon="5.76761">
        <ele>1290.588</ele>
        <time>2020-08-12T14:15:11Z</time>
      </trkpt>
      <trkpt lat="45.29278" lon="5.76752">
        <ele>1291.7205</ele>
        <time>2020-08-12T14:15:16Z</time>
      </trkpt>
      <trkpt lat="45.29268" lon="5.76744">
        <ele>1292.8455</ele>
        <time>2020-08-12T14:15:21Z</time>
      </trkpt>
      <trkpt lat="45.29258" lon="5.76738">
        <ele>1294.9816</ele>
        <time>2020-08-12T14:15:26Z</time>
      </trkpt>
      <trkpt lat="45.29246" lon="5.76729">
        <ele>1293.509</ele>
        <time>2020-08-12T14:15:31Z</time>
      </trkpt>
      <trkpt lat="45.29236" lon="5.76724">
        <ele>1289.9614</ele>
        <time>2020-08-12T14:15:36Z</time>
      </trkpt>
      <trkpt lat="45.29225" lon="5.76717">
        <ele>1286.5024</ele>
        <time>2020-08-12T14:15:41Z</time>
      </trkpt>
      <trkpt lat="45.29215" lon="5.76712">
        <ele>1286.7314</ele>
        <time>2020-08-12T14:15:46Z</time>
      </trkpt>
      <trkpt lat="45.29201" lon="5.76709">
        <ele>1289.0852</ele>
        <time>2020-08-12T14:15:51Z</time>
      </trkpt>
      <trkpt lat="45.29191" lon="5.76708">
        <ele>1287.7118</ele>
        <time>2020-08-12T14:15:56Z</time>
      </trkpt>
      <trkpt lat="45.29181" lon="5.76707">
        <ele>1287.46</ele>
        <time>2020-08-12T14:16:01Z</time>
      </trkpt>
      <trkpt lat="45.2917" lon="5.76709">
        <ele>1291.7976</ele>
        <time>2020-08-12T14:16:06Z</time>
      </trkpt>
      <trkpt lat="45.29158" lon="5.76709">
        <ele>1292.9856</ele>
        <time>2020-08-12T14:16:11Z</time>
      </trkpt>
      <trkpt lat="45.29149" lon="5.76709">
        <ele>1294.6199</ele>
        <time>2020-08-12T14:16:16Z</time>
      </trkpt>
      <trkpt lat="45.29137" lon="5.76707">
        <ele>1299.2859</ele>
        <time>2020-08-12T14:16:21Z</time>
      </trkpt>
      <trkpt lat="45.29126" lon="5.76705">
        <ele>1305.0206</ele>
        <time>2020-08-12T14:16:26Z</time>
      </trkpt>
      <trkpt lat="45.29119" lon="5.76704">
        <ele>1306.708</ele>
        <time>2020-08-12T14:16:31Z</time>
      </trkpt>
      <trkpt lat="45.2911" lon="5.76701">
        <ele>1307.7316</ele>
        <time>2020-08-12T14:16:36Z</time>
      </trkpt>
      <trkpt lat="45.29089" lon="5.76703">
        <ele>1308.4194</ele>
        <time>2020-08-12T14:16:41Z</time>
      </trkpt>
      <trkpt lat="45.29073" lon="5.76704">
        <ele>1306.7058</ele>
        <time>2020-08-12T14:16:46Z</time>
      </trkpt>
      <trkpt lat="45.29058" lon="5.767">
        <ele>1305.93</ele>
        <time>2020-08-12T14:16:51Z</time>
      </trkpt>
      <trkpt lat="45.29046" lon="5.76704">
        <ele>1311.5796</ele>
        <time>2020-08-12T14:16:56Z</time>
      </trkpt>
      <trkpt lat="45.29039" lon="5.76705">
        <ele>1305.5172</ele>
        <time>2020-08-12T14:17:01Z</time>
      </trkpt>
      <trkpt lat="45.29037" lon="5.76699">
        <ele>1296.4977</ele>
        <time>2020-08-12T14:17:41Z</time>
      </trkpt>
      <trkpt lat="45.29031" lon="5.76701">
        <ele>1298.5907</ele>
        <time>2020-08-12T14:17:56Z</time>
      </trkpt>
      <trkpt lat="45.29017" lon="5.767">
        <ele>1302.044</ele>
        <time>2020-08-12T14:18:01Z</time>
      </trkpt>
      <trkpt lat="45.29007" lon="5.76702">
        <ele>1298.0281</ele>
        <time>2020-08-12T14:18:06Z</time>
      </trkpt>
      <trkpt lat="45.28999" lon="5.76703">
        <ele>1300.0701</ele>
        <time>2020-08-12T14:18:11Z</time>
      </trkpt>
      <trkpt lat="45.28989" lon="5.76705">
        <ele>1301.442</ele>
        <time>2020-08-12T14:18:16Z</time>
      </trkpt>
      <trkpt lat="45.28986" lon="5.76711">
        <ele>1300.8446</ele>
        <time>2020-08-12T14:18:21Z</time>
      </trkpt>
      <trkpt lat="45.28988" lon="5.76717">
        <ele>1298.2616</ele>
        <time>2020-08-12T14:18:26Z</time>
      </trkpt>
      <trkpt lat="45.28996" lon="5.76716">
        <ele>1297.1375</ele>
        <time>2020-08-12T14:18:31Z</time>
      </trkpt>
      <trkpt lat="45.29002" lon="5.76717">
        <ele>1292.3025</ele>
        <time>2020-08-12T14:18:36Z</time>
      </trkpt>
      <trkpt lat="45.29002" lon="5.76718">
        <ele>1291.3773</ele>
        <time>2020-08-12T14:19:36Z</time>
      </trkpt>
      <trkpt lat="45.29002" lon="5.7672">
        <ele>1292.6946</ele>
        <time>2020-08-12T14:20:16Z</time>
      </trkpt>
      <trkpt lat="45.29012" lon="5.76718">
        <ele>1296.2708</ele>
        <time>2020-08-12T14:21:06Z</time>
      </trkpt>
      <trkpt lat="45.29023" lon="5.76717">
        <ele>1298.2931</ele>
        <time>2020-08-12T14:21:11Z</time>
      </trkpt>
      <trkpt lat="45.29036" lon="5.76719">
        <ele>1297.9813</ele>
        <time>2020-08-12T14:21:16Z</time>
      </trkpt>
      <trkpt lat="45.29048" lon="5.76724">
        <ele>1297.0104</ele>
        <time>2020-08-12T14:21:21Z</time>
      </trkpt>
      <trkpt lat="45.29059" lon="5.7672">
        <ele>1292.7</ele>
        <time>2020-08-12T14:21:31Z</time>
      </trkpt>
      <trkpt lat="45.29079" lon="5.76721">
        <ele>1299.2859</ele>
        <time>2020-08-12T14:21:36Z</time>
      </trkpt>
      <trkpt lat="45.29108" lon="5.76722">
        <ele>1295.8026</ele>
        <time>2020-08-12T14:21:41Z</time>
      </trkpt>
      <trkpt lat="45.29152" lon="5.76723">
        <ele>1299.0925</ele>
        <time>2020-08-12T14:21:46Z</time>
      </trkpt>
      <trkpt lat="45.292" lon="5.76725">
        <ele>1301.7843</ele>
        <time>2020-08-12T14:21:51Z</time>
      </trkpt>
      <trkpt lat="45.29246" lon="5.76747">
        <ele>1300.0452</ele>
        <time>2020-08-12T14:21:56Z</time>
      </trkpt>
      <trkpt lat="45.29296" lon="5.7678">
        <ele>1303.0673</ele>
        <time>2020-08-12T14:22:01Z</time>
      </trkpt>
      <trkpt lat="45.29355" lon="5.7679">
        <ele>1303.3715</ele>
        <time>2020-08-12T14:22:06Z</time>
      </trkpt>
      <trkpt lat="45.29414" lon="5.76808">
        <ele>1302.7598</ele>
        <time>2020-08-12T14:22:11Z</time>
      </trkpt>
      <trkpt lat="45.29471" lon="5.76852">
        <ele>1301.5659</ele>
        <time>2020-08-12T14:22:16Z</time>
      </trkpt>
      <trkpt lat="45.2953" lon="5.76847">
        <ele>1301.2802</ele>
        <time>2020-08-12T14:22:21Z</time>
      </trkpt>
      <trkpt lat="45.29586" lon="5.76866">
        <ele>1303.1249</ele>
        <time>2020-08-12T14:22:26Z</time>
      </trkpt>
      <trkpt lat="45.29629" lon="5.76919">
        <ele>1304.3307</ele>
        <time>2020-08-12T14:22:31Z</time>
      </trkpt>
      <trkpt lat="45.29673" lon="5.76969">
        <ele>1303.1378</ele>
        <time>2020-08-12T14:22:36Z</time>
      </trkpt>
      <trkpt lat="45.2973" lon="5.76981">
        <ele>1300.4905</ele>
        <time>2020-08-12T14:22:41Z</time>
      </trkpt>
      <trkpt lat="45.29797" lon="5.76989">
        <ele>1295.2509</ele>
        <time>2020-08-12T14:22:46Z</time>
      </trkpt>
      <trkpt lat="45.29871" lon="5.76988">
        <ele>1292.2982</ele>
        <time>2020-08-12T14:22:51Z</time>
      </trkpt>
      <trkpt lat="45.29941" lon="5.76997">
        <ele>1292.2776</ele>
        <time>2020-08-12T14:22:56Z</time>
      </trkpt>
      <trkpt lat="45.3" lon="5.77034">
        <ele>1289.7139</ele>
        <time>2020-08-12T14:23:01Z</time>
      </trkpt>
      <trkpt lat="45.30056" lon="5.7705">
        <ele>1286.4264</ele>
        <time>2020-08-12T14:23:06Z</time>
      </trkpt>
      <trkpt lat="45.30177" lon="5.7711">
        <ele>1277.2993</ele>
        <time>2020-08-12T14:23:16Z</time>
      </trkpt>
      <trkpt lat="45.30216" lon="5.77102">
        <ele>1272.7365</ele>
        <time>2020-08-12T14:23:21Z</time>
      </trkpt>
      <trkpt lat="45.3022" lon="5.77042">
        <ele>1268.1605</ele>
        <time>2020-08-12T14:23:26Z</time>
      </trkpt>
      <trkpt lat="45.30205" lon="5.76966">
        <ele>1266.4705</ele>
        <time>2020-08-12T14:23:31Z</time>
      </trkpt>
      <trkpt lat="45.30223" lon="5.76875">
        <ele>1258.3411</ele>
        <time>2020-08-12T14:23:36Z</time>
      </trkpt>
      <trkpt lat="45.30267" lon="5.76827">
        <ele>1257.8347</ele>
        <time>2020-08-12T14:23:41Z</time>
      </trkpt>
      <trkpt lat="45.30336" lon="5.76815">
        <ele>1255.5555</ele>
        <time>2020-08-12T14:23:46Z</time>
      </trkpt>
      <trkpt lat="45.30391" lon="5.76806">
        <ele>1252.2101</ele>
        <time>2020-08-12T14:23:51Z</time>
      </trkpt>
      <trkpt lat="45.30445" lon="5.76813">
        <ele>1250.8507</ele>
        <time>2020-08-12T14:23:56Z</time>
      </trkpt>
      <trkpt lat="45.305" lon="5.76844">
        <ele>1244.9623</ele>
        <time>2020-08-12T14:24:01Z</time>
      </trkpt>
      <trkpt lat="45.3055" lon="5.76907">
        <ele>1241.7937</ele>
        <time>2020-08-12T14:24:06Z</time>
      </trkpt>
      <trkpt lat="45.30583" lon="5.76982">
        <ele>1239.6418</ele>
        <time>2020-08-12T14:24:11Z</time>
      </trkpt>
      <trkpt lat="45.30597" lon="5.77062">
        <ele>1233.4757</ele>
        <time>2020-08-12T14:24:16Z</time>
      </trkpt>
      <trkpt lat="45.3061" lon="5.77132">
        <ele>1229.8268</ele>
        <time>2020-08-12T14:24:21Z</time>
      </trkpt>
      <trkpt lat="45.30646" lon="5.77187">
        <ele>1225.9944</ele>
        <time>2020-08-12T14:24:26Z</time>
      </trkpt>
      <trkpt lat="45.30696" lon="5.77225">
        <ele>1220.9209</ele>
        <time>2020-08-12T14:24:31Z</time>
      </trkpt>
      <trkpt lat="45.30754" lon="5.7725">
        <ele>1216.1439</ele>
        <time>2020-08-12T14:24:36Z</time>
      </trkpt>
      <trkpt lat="45.3081" lon="5.77289">
        <ele>1209.8098</ele>
        <time>2020-08-12T14:24:41Z</time>
      </trkpt>
      <trkpt lat="45.30856" lon="5.77337">
        <ele>1206.6266</ele>
        <time>2020-08-12T14:24:46Z</time>
      </trkpt>
      <trkpt lat="45.30912" lon="5.77328">
        <ele>1189.825</ele>
        <time>2020-08-12T14:24:51Z</time>
      </trkpt>
      <trkpt lat="45.30952" lon="5.77262">
        <ele>1181.4109</ele>
        <time>2020-08-12T14:24:56Z</time>
      </trkpt>
      <trkpt lat="45.30985" lon="5.77217">
        <ele>1175.9126</ele>
        <time>2020-08-12T14:25:01Z</time>
      </trkpt>
      <trkpt lat="45.30991" lon="5.77181">
        <ele>1170.353</ele>
        <time>2020-08-12T14:25:06Z</time>
      </trkpt>
      <trkpt lat="45.30975" lon="5.77139">
        <ele>1165.8154</ele>
        <time>2020-08-12T14:25:11Z</time>
      </trkpt>
      <trkpt lat="45.30956" lon="5.77075">
        <ele>1159.6752</ele>
        <time>2020-08-12T14:25:16Z</time>
      </trkpt>
      <trkpt lat="45.30917" lon="5.76974">
        <ele>1157.9055</ele>
        <time>2020-08-12T14:25:21Z</time>
      </trkpt>
      <trkpt lat="45.30938" lon="5.76929">
        <ele>1158.1041</ele>
        <time>2020-08-12T14:25:26Z</time>
      </trkpt>
      <trkpt lat="45.30981" lon="5.76983">
        <ele>1155.146</ele>
        <time>2020-08-12T14:25:31Z</time>
      </trkpt>
      <trkpt lat="45.31032" lon="5.77038">
        <ele>1150.0242</ele>
        <time>2020-08-12T14:25:36Z</time>
      </trkpt>
      <trkpt lat="45.31095" lon="5.77086">
        <ele>1146.057</ele>
        <time>2020-08-12T14:25:41Z</time>
      </trkpt>
      <trkpt lat="45.31147" lon="5.7713">
        <ele>1143.8934</ele>
        <time>2020-08-12T14:25:46Z</time>
      </trkpt>
      <trkpt lat="45.31178" lon="5.7721">
        <ele>1140.1549</ele>
        <time>2020-08-12T14:25:51Z</time>
      </trkpt>
      <trkpt lat="45.31205" lon="5.77293">
        <ele>1136.1797</ele>
        <time>2020-08-12T14:25:56Z</time>
      </trkpt>
      <trkpt lat="45.31232" lon="5.77368">
        <ele>1132.5126</ele>
        <time>2020-08-12T14:26:01Z</time>
      </trkpt>
      <trkpt lat="45.31257" lon="5.77437">
        <ele>1130.8766</ele>
        <time>2020-08-12T14:26:06Z</time>
      </trkpt>
      <trkpt lat="45.31239" lon="5.77508">
        <ele>1128.9128</ele>
        <time>2020-08-12T14:26:11Z</time>
      </trkpt>
      <trkpt lat="45.31194" lon="5.7756">
        <ele>1122.3413</ele>
        <time>2020-08-12T14:26:16Z</time>
      </trkpt>
      <trkpt lat="45.31166" lon="5.77612">
        <ele>1121.0273</ele>
        <time>2020-08-12T14:26:21Z</time>
      </trkpt>
      <trkpt lat="45.31164" lon="5.77682">
        <ele>1113.1315</ele>
        <time>2020-08-12T14:26:26Z</time>
      </trkpt>
      <trkpt lat="45.31186" lon="5.77754">
        <ele>1109.4971</ele>
        <time>2020-08-12T14:26:31Z</time>
      </trkpt>
      <trkpt lat="45.31231" lon="5.7781">
        <ele>1106.9867</ele>
        <time>2020-08-12T14:26:36Z</time>
      </trkpt>
      <trkpt lat="45.31284" lon="5.77859">
        <ele>1104.2893</ele>
        <time>2020-08-12T14:26:41Z</time>
      </trkpt>
      <trkpt lat="45.31332" lon="5.77905">
        <ele>1100.6509</ele>
        <time>2020-08-12T14:26:46Z</time>
      </trkpt>
      <trkpt lat="45.31368" lon="5.77975">
        <ele>1097.9423</ele>
        <time>2020-08-12T14:26:51Z</time>
      </trkpt>
      <trkpt lat="45.31398" lon="5.78048">
        <ele>1088.5397</ele>
        <time>2020-08-12T14:26:56Z</time>
      </trkpt>
      <trkpt lat="45.31423" lon="5.78119">
        <ele>1087.1737</ele>
        <time>2020-08-12T14:27:01Z</time>
      </trkpt>
      <trkpt lat="45.31448" lon="5.78185">
        <ele>1083.1321</ele>
        <time>2020-08-12T14:27:06Z</time>
      </trkpt>
      <trkpt lat="45.31462" lon="5.7826">
        <ele>1079.964</ele>
        <time>2020-08-12T14:27:11Z</time>
      </trkpt>
      <trkpt lat="45.31474" lon="5.78335">
        <ele>1076.8081</ele>
        <time>2020-08-12T14:27:16Z</time>
      </trkpt>
      <trkpt lat="45.3149" lon="5.78403">
        <ele>1075.3718</ele>
        <time>2020-08-12T14:27:21Z</time>
      </trkpt>
      <trkpt lat="45.31535" lon="5.78449">
        <ele>1069.8738</ele>
        <time>2020-08-12T14:27:26Z</time>
      </trkpt>
      <trkpt lat="45.3158" lon="5.78468">
        <ele>1066.5332</ele>
        <time>2020-08-12T14:27:31Z</time>
      </trkpt>
      <trkpt lat="45.31615" lon="5.78434">
        <ele>1065.6545</ele>
        <time>2020-08-12T14:27:36Z</time>
      </trkpt>
      <trkpt lat="45.31635" lon="5.78453">
        <ele>1064.321</ele>
        <time>2020-08-12T14:27:41Z</time>
      </trkpt>
      <trkpt lat="45.31635" lon="5.78503">
        <ele>1058.8665</ele>
        <time>2020-08-12T14:27:46Z</time>
      </trkpt>
      <trkpt lat="45.31646" lon="5.78561">
        <ele>1055.6296</ele>
        <time>2020-08-12T14:27:51Z</time>
      </trkpt>
      <trkpt lat="45.31677" lon="5.7861">
        <ele>1050.062</ele>
        <time>2020-08-12T14:27:56Z</time>
      </trkpt>
      <trkpt lat="45.31743" lon="5.78713">
        <ele>1042.0817</ele>
        <time>2020-08-12T14:28:06Z</time>
      </trkpt>
      <trkpt lat="45.31777" lon="5.78761">
        <ele>1039.4841</ele>
        <time>2020-08-12T14:28:11Z</time>
      </trkpt>
      <trkpt lat="45.3182" lon="5.78766">
        <ele>1040.0363</ele>
        <time>2020-08-12T14:28:16Z</time>
      </trkpt>
      <trkpt lat="45.31843" lon="5.78818">
        <ele>1038.0684</ele>
        <time>2020-08-12T14:28:21Z</time>
      </trkpt>
      <trkpt lat="45.31876" lon="5.78871">
        <ele>1034.1482</ele>
        <time>2020-08-12T14:28:26Z</time>
      </trkpt>
      <trkpt lat="45.31909" lon="5.7893">
        <ele>1030.7622</ele>
        <time>2020-08-12T14:28:31Z</time>
      </trkpt>
      <trkpt lat="45.31939" lon="5.78994">
        <ele>1027.219</ele>
        <time>2020-08-12T14:28:36Z</time>
      </trkpt>
      <trkpt lat="45.31969" lon="5.79058">
        <ele>1024.345</ele>
        <time>2020-08-12T14:28:41Z</time>
      </trkpt>
      <trkpt lat="45.31999" lon="5.79123">
        <ele>1021.5895</ele>
        <time>2020-08-12T14:28:46Z</time>
      </trkpt>
      <trkpt lat="45.32034" lon="5.79186">
        <ele>1014.5374</ele>
        <time>2020-08-12T14:28:51Z</time>
      </trkpt>
      <trkpt lat="45.32068" lon="5.79248">
        <ele>1015.2263</ele>
        <time>2020-08-12T14:28:56Z</time>
      </trkpt>
      <trkpt lat="45.32084" lon="5.79327">
        <ele>1007.3673</ele>
        <time>2020-08-12T14:29:01Z</time>
      </trkpt>
      <trkpt lat="45.32103" lon="5.79396">
        <ele>1005.78296</ele>
        <time>2020-08-12T14:29:06Z</time>
      </trkpt>
      <trkpt lat="45.32138" lon="5.79434">
        <ele>1004.8702</ele>
        <time>2020-08-12T14:29:11Z</time>
      </trkpt>
      <trkpt lat="45.32143" lon="5.79499">
        <ele>1000.01715</ele>
        <time>2020-08-12T14:29:16Z</time>
      </trkpt>
      <trkpt lat="45.32166" lon="5.7956">
        <ele>996.7584</ele>
        <time>2020-08-12T14:29:21Z</time>
      </trkpt>
      <trkpt lat="45.32207" lon="5.79593">
        <ele>993.2321</ele>
        <time>2020-08-12T14:29:26Z</time>
      </trkpt>
      <trkpt lat="45.32256" lon="5.79577">
        <ele>989.1104</ele>
        <time>2020-08-12T14:29:31Z</time>
      </trkpt>
      <trkpt lat="45.32289" lon="5.79537">
        <ele>985.77386</ele>
        <time>2020-08-12T14:29:36Z</time>
      </trkpt>
      <trkpt lat="45.32315" lon="5.79478">
        <ele>979.7119</ele>
        <time>2020-08-12T14:29:41Z</time>
      </trkpt>
      <trkpt lat="45.32338" lon="5.7942">
        <ele>977.3099</ele>
        <time>2020-08-12T14:29:46Z</time>
      </trkpt>
      <trkpt lat="45.3237" lon="5.79409">
        <ele>978.28375</ele>
        <time>2020-08-12T14:29:51Z</time>
      </trkpt>
      <trkpt lat="45.324" lon="5.79463">
        <ele>977.88086</ele>
        <time>2020-08-12T14:29:56Z</time>
      </trkpt>
      <trkpt lat="45.3243" lon="5.79521">
        <ele>976.66174</ele>
        <time>2020-08-12T14:30:01Z</time>
      </trkpt>
      <trkpt lat="45.3247" lon="5.79569">
        <ele>972.8407</ele>
        <time>2020-08-12T14:30:06Z</time>
      </trkpt>
      <trkpt lat="45.32509" lon="5.79619">
        <ele>971.1644</ele>
        <time>2020-08-12T14:30:11Z</time>
      </trkpt>
      <trkpt lat="45.32548" lon="5.79667">
        <ele>970.2059</ele>
        <time>2020-08-12T14:30:16Z</time>
      </trkpt>
      <trkpt lat="45.3259" lon="5.79712">
        <ele>968.2085</ele>
        <time>2020-08-12T14:30:21Z</time>
      </trkpt>
      <trkpt lat="45.32671" lon="5.79792">
        <ele>963.03656</ele>
        <time>2020-08-12T14:30:31Z</time>
      </trkpt>
      <trkpt lat="45.32684" lon="5.79867">
        <ele>958.89233</ele>
        <time>2020-08-12T14:30:36Z</time>
      </trkpt>
      <trkpt lat="45.32691" lon="5.79943">
        <ele>953.5855</ele>
        <time>2020-08-12T14:30:41Z</time>
      </trkpt>
      <trkpt lat="45.327" lon="5.80013">
        <ele>948.79877</ele>
        <time>2020-08-12T14:30:46Z</time>
      </trkpt>
      <trkpt lat="45.32725" lon="5.80065">
        <ele>942.1667</ele>
        <time>2020-08-12T14:30:51Z</time>
      </trkpt>
      <trkpt lat="45.32767" lon="5.80109">
        <ele>937.38446</ele>
        <time>2020-08-12T14:30:56Z</time>
      </trkpt>
      <trkpt lat="45.32807" lon="5.80155">
        <ele>931.7863</ele>
        <time>2020-08-12T14:31:01Z</time>
      </trkpt>
      <trkpt lat="45.32839" lon="5.8021">
        <ele>925.27344</ele>
        <time>2020-08-12T14:31:06Z</time>
      </trkpt>
      <trkpt lat="45.32863" lon="5.80275">
        <ele>923.2265</ele>
        <time>2020-08-12T14:31:11Z</time>
      </trkpt>
      <trkpt lat="45.32888" lon="5.80334">
        <ele>922.1064</ele>
        <time>2020-08-12T14:31:16Z</time>
      </trkpt>
      <trkpt lat="45.32927" lon="5.80376">
        <ele>919.2518</ele>
        <time>2020-08-12T14:31:21Z</time>
      </trkpt>
      <trkpt lat="45.32966" lon="5.80415">
        <ele>915.2457</ele>
        <time>2020-08-12T14:31:26Z</time>
      </trkpt>
      <trkpt lat="45.33006" lon="5.80456">
        <ele>910.63354</ele>
        <time>2020-08-12T14:31:31Z</time>
      </trkpt>
      <trkpt lat="45.33045" lon="5.80497">
        <ele>907.08826</ele>
        <time>2020-08-12T14:31:36Z</time>
      </trkpt>
      <trkpt lat="45.33085" lon="5.80536">
        <ele>907.8872</ele>
        <time>2020-08-12T14:31:41Z</time>
      </trkpt>
      <trkpt lat="45.33126" lon="5.80569">
        <ele>905.3484</ele>
        <time>2020-08-12T14:31:46Z</time>
      </trkpt>
      <trkpt lat="45.33169" lon="5.80583">
        <ele>898.32294</ele>
        <time>2020-08-12T14:31:51Z</time>
      </trkpt>
      <trkpt lat="45.33207" lon="5.80597">
        <ele>896.3531</ele>
        <time>2020-08-12T14:31:56Z</time>
      </trkpt>
      <trkpt lat="45.33233" lon="5.80607">
        <ele>895.846</ele>
        <time>2020-08-12T14:32:01Z</time>
      </trkpt>
      <trkpt lat="45.33252" lon="5.80618">
        <ele>893.4889</ele>
        <time>2020-08-12T14:32:06Z</time>
      </trkpt>
      <trkpt lat="45.33276" lon="5.80633">
        <ele>890.625</ele>
        <time>2020-08-12T14:32:11Z</time>
      </trkpt>
      <trkpt lat="45.33303" lon="5.80653">
        <ele>887.6548</ele>
        <time>2020-08-12T14:32:16Z</time>
      </trkpt>
      <trkpt lat="45.33331" lon="5.80683">
        <ele>882.0494</ele>
        <time>2020-08-12T14:32:21Z</time>
      </trkpt>
      <trkpt lat="45.33358" lon="5.80714">
        <ele>880.736</ele>
        <time>2020-08-12T14:32:26Z</time>
      </trkpt>
      <trkpt lat="45.3339" lon="5.80733">
        <ele>878.6151</ele>
        <time>2020-08-12T14:32:31Z</time>
      </trkpt>
      <trkpt lat="45.33424" lon="5.80742">
        <ele>874.5361</ele>
        <time>2020-08-12T14:32:36Z</time>
      </trkpt>
      <trkpt lat="45.33455" lon="5.80756">
        <ele>871.3087</ele>
        <time>2020-08-12T14:32:41Z</time>
      </trkpt>
      <trkpt lat="45.33487" lon="5.80766">
        <ele>861.0442</ele>
        <time>2020-08-12T14:32:46Z</time>
      </trkpt>
      <trkpt lat="45.33554" lon="5.80749">
        <ele>863.0302</ele>
        <time>2020-08-12T14:32:56Z</time>
      </trkpt>
      <trkpt lat="45.33585" lon="5.80737">
        <ele>862.4866</ele>
        <time>2020-08-12T14:33:01Z</time>
      </trkpt>
      <trkpt lat="45.33617" lon="5.80722">
        <ele>860.29913</ele>
        <time>2020-08-12T14:33:06Z</time>
      </trkpt>
      <trkpt lat="45.33649" lon="5.8071">
        <ele>857.5747</ele>
        <time>2020-08-12T14:33:11Z</time>
      </trkpt>
      <trkpt lat="45.33683" lon="5.80707">
        <ele>857.83154</ele>
        <time>2020-08-12T14:33:16Z</time>
      </trkpt>
      <trkpt lat="45.33718" lon="5.80713">
        <ele>854.78455</ele>
        <time>2020-08-12T14:33:21Z</time>
      </trkpt>
      <trkpt lat="45.33757" lon="5.80714">
        <ele>853.6815</ele>
        <time>2020-08-12T14:33:26Z</time>
      </trkpt>
      <trkpt lat="45.3379" lon="5.80722">
        <ele>852.3101</ele>
        <time>2020-08-12T14:33:31Z</time>
      </trkpt>
      <trkpt lat="45.33823" lon="5.80739">
        <ele>852.2387</ele>
        <time>2020-08-12T14:33:36Z</time>
      </trkpt>
      <trkpt lat="45.33857" lon="5.80748">
        <ele>849.0965</ele>
        <time>2020-08-12T14:33:41Z</time>
      </trkpt>
      <trkpt lat="45.33881" lon="5.80749">
        <ele>847.0403</ele>
        <time>2020-08-12T14:33:46Z</time>
      </trkpt>
      <trkpt lat="45.33902" lon="5.80749">
        <ele>841.40106</ele>
        <time>2020-08-12T14:33:51Z</time>
      </trkpt>
      <trkpt lat="45.3392" lon="5.80752">
        <ele>841.56616</ele>
        <time>2020-08-12T14:33:56Z</time>
      </trkpt>
      <trkpt lat="45.33929" lon="5.80754">
        <ele>840.19434</ele>
        <time>2020-08-12T14:34:01Z</time>
      </trkpt>
      <trkpt lat="45.33933" lon="5.80761">
        <ele>838.76196</ele>
        <time>2020-08-12T14:34:06Z</time>
      </trkpt>
      <trkpt lat="45.33946" lon="5.80771">
        <ele>833.41113</ele>
        <time>2020-08-12T14:34:11Z</time>
      </trkpt>
      <trkpt lat="45.3397" lon="5.80781">
        <ele>832.90857</ele>
        <time>2020-08-12T14:34:16Z</time>
      </trkpt>
      <trkpt lat="45.33987" lon="5.80758">
        <ele>837.8056</ele>
        <time>2020-08-12T14:34:21Z</time>
      </trkpt>
      <trkpt lat="45.33983" lon="5.80705">
        <ele>839.1123</ele>
        <time>2020-08-12T14:34:26Z</time>
      </trkpt>
      <trkpt lat="45.33978" lon="5.80657">
        <ele>839.69806</ele>
        <time>2020-08-12T14:34:31Z</time>
      </trkpt>
      <trkpt lat="45.33972" lon="5.8061">
        <ele>839.57025</ele>
        <time>2020-08-12T14:34:36Z</time>
      </trkpt>
      <trkpt lat="45.33989" lon="5.80566">
        <ele>838.1485</ele>
        <time>2020-08-12T14:34:41Z</time>
      </trkpt>
      <trkpt lat="45.34016" lon="5.80545">
        <ele>838.42224</ele>
        <time>2020-08-12T14:34:46Z</time>
      </trkpt>
      <trkpt lat="45.34035" lon="5.80511">
        <ele>833.55273</ele>
        <time>2020-08-12T14:34:51Z</time>
      </trkpt>
      <trkpt lat="45.34055" lon="5.80474">
        <ele>835.0104</ele>
        <time>2020-08-12T14:34:56Z</time>
      </trkpt>
      <trkpt lat="45.34076" lon="5.80438">
        <ele>836.3084</ele>
        <time>2020-08-12T14:35:01Z</time>
      </trkpt>
      <trkpt lat="45.34103" lon="5.80412">
        <ele>835.4853</ele>
        <time>2020-08-12T14:35:06Z</time>
      </trkpt>
      <trkpt lat="45.34134" lon="5.8039">
        <ele>833.13855</ele>
        <time>2020-08-12T14:35:11Z</time>
      </trkpt>
      <trkpt lat="45.34185" lon="5.80353">
        <ele>835.9293</ele>
        <time>2020-08-12T14:35:21Z</time>
      </trkpt>
      <trkpt lat="45.34222" lon="5.80333">
        <ele>835.58856</ele>
        <time>2020-08-12T14:35:26Z</time>
      </trkpt>
      <trkpt lat="45.34261" lon="5.80314">
        <ele>835.3181</ele>
        <time>2020-08-12T14:35:31Z</time>
      </trkpt>
      <trkpt lat="45.34298" lon="5.80293">
        <ele>834.7431</ele>
        <time>2020-08-12T14:35:36Z</time>
      </trkpt>
      <trkpt lat="45.34325" lon="5.80256">
        <ele>833.508</ele>
        <time>2020-08-12T14:35:41Z</time>
      </trkpt>
      <trkpt lat="45.34343" lon="5.80225">
        <ele>831.2339</ele>
        <time>2020-08-12T14:35:46Z</time>
      </trkpt>
      <trkpt lat="45.34361" lon="5.8019">
        <ele>829.3538</ele>
        <time>2020-08-12T14:35:51Z</time>
      </trkpt>
      <trkpt lat="45.3436" lon="5.80144">
        <ele>828.4926</ele>
        <time>2020-08-12T14:35:56Z</time>
      </trkpt>
      <trkpt lat="45.34358" lon="5.80105">
        <ele>828.16156</ele>
        <time>2020-08-12T14:36:01Z</time>
      </trkpt>
      <trkpt lat="45.34372" lon="5.80065">
        <ele>824.6927</ele>
        <time>2020-08-12T14:36:06Z</time>
      </trkpt>
      <trkpt lat="45.34376" lon="5.8002">
        <ele>825.08545</ele>
        <time>2020-08-12T14:36:11Z</time>
      </trkpt>
      <trkpt lat="45.34372" lon="5.79966">
        <ele>823.7689</ele>
        <time>2020-08-12T14:36:16Z</time>
      </trkpt>
      <trkpt lat="45.34388" lon="5.7989">
        <ele>822.2992</ele>
        <time>2020-08-12T14:36:21Z</time>
      </trkpt>
      <trkpt lat="45.34457" lon="5.79839">
        <ele>819.2015</ele>
        <time>2020-08-12T14:36:31Z</time>
      </trkpt>
      <trkpt lat="45.34485" lon="5.79813">
        <ele>817.847</ele>
        <time>2020-08-12T14:36:36Z</time>
      </trkpt>
      <trkpt lat="45.34515" lon="5.79773">
        <ele>817.42456</ele>
        <time>2020-08-12T14:36:41Z</time>
      </trkpt>
      <trkpt lat="45.34536" lon="5.79729">
        <ele>818.16296</ele>
        <time>2020-08-12T14:36:46Z</time>
      </trkpt>
      <trkpt lat="45.34551" lon="5.79689">
        <ele>818.21405</ele>
        <time>2020-08-12T14:36:51Z</time>
      </trkpt>
      <trkpt lat="45.34568" lon="5.79649">
        <ele>812.1244</ele>
        <time>2020-08-12T14:36:56Z</time>
      </trkpt>
      <trkpt lat="45.34582" lon="5.79607">
        <ele>819.8548</ele>
        <time>2020-08-12T14:37:01Z</time>
      </trkpt>
      <trkpt lat="45.34604" lon="5.79561">
        <ele>818.69073</ele>
        <time>2020-08-12T14:37:06Z</time>
      </trkpt>
      <trkpt lat="45.34623" lon="5.79525">
        <ele>818.595</ele>
        <time>2020-08-12T14:37:11Z</time>
      </trkpt>
      <trkpt lat="45.34638" lon="5.795">
        <ele>816.50635</ele>
        <time>2020-08-12T14:37:16Z</time>
      </trkpt>
      <trkpt lat="45.34655" lon="5.79459">
        <ele>815.72754</ele>
        <time>2020-08-12T14:37:21Z</time>
      </trkpt>
      <trkpt lat="45.34662" lon="5.79397">
        <ele>814.3818</ele>
        <time>2020-08-12T14:37:26Z</time>
      </trkpt>
      <trkpt lat="45.34676" lon="5.79342">
        <ele>814.8669</ele>
        <time>2020-08-12T14:37:31Z</time>
      </trkpt>
      <trkpt lat="45.34686" lon="5.79289">
        <ele>814.5669</ele>
        <time>2020-08-12T14:37:36Z</time>
      </trkpt>
      <trkpt lat="45.34723" lon="5.79201">
        <ele>814.6733</ele>
        <time>2020-08-12T14:37:46Z</time>
      </trkpt>
      <trkpt lat="45.34748" lon="5.79172">
        <ele>812.56476</ele>
        <time>2020-08-12T14:37:51Z</time>
      </trkpt>
      <trkpt lat="45.34786" lon="5.79134">
        <ele>810.38525</ele>
        <time>2020-08-12T14:37:56Z</time>
      </trkpt>
      <trkpt lat="45.34818" lon="5.79096">
        <ele>810.48737</ele>
        <time>2020-08-12T14:38:01Z</time>
      </trkpt>
      <trkpt lat="45.34835" lon="5.79042">
        <ele>810.4618</ele>
        <time>2020-08-12T14:38:06Z</time>
      </trkpt>
      <trkpt lat="45.34836" lon="5.78988">
        <ele>806.4362</ele>
        <time>2020-08-12T14:38:11Z</time>
      </trkpt>
      <trkpt lat="45.34821" lon="5.78943">
        <ele>808.4048</ele>
        <time>2020-08-12T14:38:16Z</time>
      </trkpt>
      <trkpt lat="45.34809" lon="5.78895">
        <ele>807.7773</ele>
        <time>2020-08-12T14:38:21Z</time>
      </trkpt>
      <trkpt lat="45.34798" lon="5.78848">
        <ele>805.74493</ele>
        <time>2020-08-12T14:38:26Z</time>
      </trkpt>
      <trkpt lat="45.348" lon="5.78776">
        <ele>805.41846</ele>
        <time>2020-08-12T14:38:31Z</time>
      </trkpt>
      <trkpt lat="45.348" lon="5.78708">
        <ele>805.52374</ele>
        <time>2020-08-12T14:38:36Z</time>
      </trkpt>
      <trkpt lat="45.34805" lon="5.78647">
        <ele>806.00977</ele>
        <time>2020-08-12T14:38:41Z</time>
      </trkpt>
      <trkpt lat="45.34814" lon="5.78588">
        <ele>805.70135</ele>
        <time>2020-08-12T14:38:46Z</time>
      </trkpt>
      <trkpt lat="45.34826" lon="5.78532">
        <ele>805.33234</ele>
        <time>2020-08-12T14:38:51Z</time>
      </trkpt>
      <trkpt lat="45.3484" lon="5.78482">
        <ele>803.74896</ele>
        <time>2020-08-12T14:38:56Z</time>
      </trkpt>
      <trkpt lat="45.34858" lon="5.7844">
        <ele>801.3214</ele>
        <time>2020-08-12T14:39:01Z</time>
      </trkpt>
      <trkpt lat="45.34888" lon="5.78405">
        <ele>801.0386</ele>
        <time>2020-08-12T14:39:06Z</time>
      </trkpt>
      <trkpt lat="45.34916" lon="5.78389">
        <ele>799.1259</ele>
        <time>2020-08-12T14:39:11Z</time>
      </trkpt>
      <trkpt lat="45.34945" lon="5.78426">
        <ele>797.409</ele>
        <time>2020-08-12T14:39:16Z</time>
      </trkpt>
      <trkpt lat="45.34973" lon="5.78454">
        <ele>796.67444</ele>
        <time>2020-08-12T14:39:21Z</time>
      </trkpt>
      <trkpt lat="45.34999" lon="5.78481">
        <ele>797.7131</ele>
        <time>2020-08-12T14:39:26Z</time>
      </trkpt>
      <trkpt lat="45.35027" lon="5.78505">
        <ele>797.6929</ele>
        <time>2020-08-12T14:39:31Z</time>
      </trkpt>
      <trkpt lat="45.35051" lon="5.78514">
        <ele>798.8857</ele>
        <time>2020-08-12T14:39:36Z</time>
      </trkpt>
      <trkpt lat="45.35074" lon="5.78477">
        <ele>798.2244</ele>
        <time>2020-08-12T14:39:41Z</time>
      </trkpt>
      <trkpt lat="45.35053" lon="5.78435">
        <ele>796.3439</ele>
        <time>2020-08-12T14:39:46Z</time>
      </trkpt>
      <trkpt lat="45.35025" lon="5.78374">
        <ele>795.0236</ele>
        <time>2020-08-12T14:39:51Z</time>
      </trkpt>
      <trkpt lat="45.35003" lon="5.78315">
        <ele>789.4852</ele>
        <time>2020-08-12T14:39:56Z</time>
      </trkpt>
      <trkpt lat="45.3499" lon="5.78237">
        <ele>786.92847</ele>
        <time>2020-08-12T14:40:01Z</time>
      </trkpt>
      <trkpt lat="45.3489" lon="5.78183">
        <ele>778.13513</ele>
        <time>2020-08-12T14:40:11Z</time>
      </trkpt>
      <trkpt lat="45.34879" lon="5.78125">
        <ele>774.32434</ele>
        <time>2020-08-12T14:40:16Z</time>
      </trkpt>
      <trkpt lat="45.34885" lon="5.78069">
        <ele>772.84076</ele>
        <time>2020-08-12T14:40:21Z</time>
      </trkpt>
      <trkpt lat="45.34888" lon="5.7801">
        <ele>768.3736</ele>
        <time>2020-08-12T14:40:26Z</time>
      </trkpt>
      <trkpt lat="45.34896" lon="5.77938">
        <ele>769.1731</ele>
        <time>2020-08-12T14:40:31Z</time>
      </trkpt>
      <trkpt lat="45.34916" lon="5.77889">
        <ele>764.10266</ele>
        <time>2020-08-12T14:40:36Z</time>
      </trkpt>
      <trkpt lat="45.34952" lon="5.77854">
        <ele>761.50946</ele>
        <time>2020-08-12T14:40:41Z</time>
      </trkpt>
      <trkpt lat="45.34958" lon="5.77808">
        <ele>755.74347</ele>
        <time>2020-08-12T14:40:46Z</time>
      </trkpt>
      <trkpt lat="45.34977" lon="5.77748">
        <ele>754.5582</ele>
        <time>2020-08-12T14:40:51Z</time>
      </trkpt>
      <trkpt lat="45.34987" lon="5.77663">
        <ele>748.1957</ele>
        <time>2020-08-12T14:40:56Z</time>
      </trkpt>
      <trkpt lat="45.34993" lon="5.77603">
        <ele>746.4889</ele>
        <time>2020-08-12T14:41:01Z</time>
      </trkpt>
      <trkpt lat="45.35004" lon="5.77547">
        <ele>742.3386</ele>
        <time>2020-08-12T14:41:06Z</time>
      </trkpt>
      <trkpt lat="45.35027" lon="5.77449">
        <ele>738.5814</ele>
        <time>2020-08-12T14:41:16Z</time>
      </trkpt>
      <trkpt lat="45.35031" lon="5.77378">
        <ele>733.58124</ele>
        <time>2020-08-12T14:41:21Z</time>
      </trkpt>
      <trkpt lat="45.35016" lon="5.77305">
        <ele>733.594</ele>
        <time>2020-08-12T14:41:26Z</time>
      </trkpt>
      <trkpt lat="45.34996" lon="5.77238">
        <ele>730.24207</ele>
        <time>2020-08-12T14:41:31Z</time>
      </trkpt>
      <trkpt lat="45.34986" lon="5.7718">
        <ele>726.37976</ele>
        <time>2020-08-12T14:41:36Z</time>
      </trkpt>
      <trkpt lat="45.34983" lon="5.77123">
        <ele>723.5301</ele>
        <time>2020-08-12T14:41:41Z</time>
      </trkpt>
      <trkpt lat="45.34979" lon="5.77065">
        <ele>718.4739</ele>
        <time>2020-08-12T14:41:46Z</time>
      </trkpt>
      <trkpt lat="45.35" lon="5.76997">
        <ele>719.278</ele>
        <time>2020-08-12T14:41:51Z</time>
      </trkpt>
      <trkpt lat="45.35" lon="5.76862">
        <ele>711.06635</ele>
        <time>2020-08-12T14:42:01Z</time>
      </trkpt>
      <trkpt lat="45.35007" lon="5.76703">
        <ele>704.198</ele>
        <time>2020-08-12T14:42:11Z</time>
      </trkpt>
      <trkpt lat="45.35026" lon="5.76639">
        <ele>698.08954</ele>
        <time>2020-08-12T14:42:16Z</time>
      </trkpt>
      <trkpt lat="45.3508" lon="5.76563">
        <ele>695.8149</ele>
        <time>2020-08-12T14:42:21Z</time>
      </trkpt>
      <trkpt lat="45.35127" lon="5.76527">
        <ele>692.3023</ele>
        <time>2020-08-12T14:42:26Z</time>
      </trkpt>
      <trkpt lat="45.35156" lon="5.76472">
        <ele>686.6403</ele>
        <time>2020-08-12T14:42:31Z</time>
      </trkpt>
      <trkpt lat="45.35174" lon="5.76395">
        <ele>681.4599</ele>
        <time>2020-08-12T14:42:36Z</time>
      </trkpt>
      <trkpt lat="45.35169" lon="5.76323">
        <ele>676.1305</ele>
        <time>2020-08-12T14:42:41Z</time>
      </trkpt>
      <trkpt lat="45.35158" lon="5.76261">
        <ele>674.22705</ele>
        <time>2020-08-12T14:42:46Z</time>
      </trkpt>
      <trkpt lat="45.35151" lon="5.76207">
        <ele>671.4853</ele>
        <time>2020-08-12T14:42:51Z</time>
      </trkpt>
      <trkpt lat="45.35164" lon="5.76133">
        <ele>667.9997</ele>
        <time>2020-08-12T14:42:56Z</time>
      </trkpt>
      <trkpt lat="45.35198" lon="5.76068">
        <ele>661.55835</ele>
        <time>2020-08-12T14:43:01Z</time>
      </trkpt>
      <trkpt lat="45.35233" lon="5.76003">
        <ele>660.1708</ele>
        <time>2020-08-12T14:43:06Z</time>
      </trkpt>
      <trkpt lat="45.35262" lon="5.75936">
        <ele>656.19446</ele>
        <time>2020-08-12T14:43:11Z</time>
      </trkpt>
      <trkpt lat="45.35299" lon="5.75891">
        <ele>653.5605</ele>
        <time>2020-08-12T14:43:16Z</time>
      </trkpt>
      <trkpt lat="45.35341" lon="5.75871">
        <ele>650.18005</ele>
        <time>2020-08-12T14:43:21Z</time>
      </trkpt>
      <trkpt lat="45.35385" lon="5.75819">
        <ele>646.28357</ele>
        <time>2020-08-12T14:43:26Z</time>
      </trkpt>
      <trkpt lat="45.35424" lon="5.75786">
        <ele>642.864</ele>
        <time>2020-08-12T14:43:31Z</time>
      </trkpt>
      <trkpt lat="45.3545" lon="5.75739">
        <ele>643.3339</ele>
        <time>2020-08-12T14:43:36Z</time>
      </trkpt>
      <trkpt lat="45.35466" lon="5.75686">
        <ele>641.48285</ele>
        <time>2020-08-12T14:43:41Z</time>
      </trkpt>
      <trkpt lat="45.35501" lon="5.75657">
        <ele>642.1249</ele>
        <time>2020-08-12T14:43:46Z</time>
      </trkpt>
      <trkpt lat="45.3555" lon="5.75665">
        <ele>633.93</ele>
        <time>2020-08-12T14:43:51Z</time>
      </trkpt>
      <trkpt lat="45.35594" lon="5.75684">
        <ele>631.1951</ele>
        <time>2020-08-12T14:43:56Z</time>
      </trkpt>
      <trkpt lat="45.35645" lon="5.75666">
        <ele>624.0012</ele>
        <time>2020-08-12T14:44:01Z</time>
      </trkpt>
      <trkpt lat="45.35689" lon="5.75654">
        <ele>620.67993</ele>
        <time>2020-08-12T14:44:06Z</time>
      </trkpt>
      <trkpt lat="45.35737" lon="5.7565">
        <ele>617.05005</ele>
        <time>2020-08-12T14:44:11Z</time>
      </trkpt>
      <trkpt lat="45.35776" lon="5.75666">
        <ele>618.0321</ele>
        <time>2020-08-12T14:44:16Z</time>
      </trkpt>
      <trkpt lat="45.35819" lon="5.75606">
        <ele>614.59564</ele>
        <time>2020-08-12T14:44:21Z</time>
      </trkpt>
      <trkpt lat="45.35854" lon="5.75554">
        <ele>609.39026</ele>
        <time>2020-08-12T14:44:26Z</time>
      </trkpt>
      <trkpt lat="45.359" lon="5.75514">
        <ele>607.61774</ele>
        <time>2020-08-12T14:44:31Z</time>
      </trkpt>
      <trkpt lat="45.35952" lon="5.75478">
        <ele>605.371</ele>
        <time>2020-08-12T14:44:36Z</time>
      </trkpt>
      <trkpt lat="45.36002" lon="5.75445">
        <ele>603.6884</ele>
        <time>2020-08-12T14:44:41Z</time>
      </trkpt>
      <trkpt lat="45.36054" lon="5.75436">
        <ele>600.52075</ele>
        <time>2020-08-12T14:44:46Z</time>
      </trkpt>
      <trkpt lat="45.36108" lon="5.75416">
        <ele>594.90546</ele>
        <time>2020-08-12T14:44:51Z</time>
      </trkpt>
      <trkpt lat="45.36215" lon="5.7542">
        <ele>588.907</ele>
        <time>2020-08-12T14:45:01Z</time>
      </trkpt>
      <trkpt lat="45.36274" lon="5.75398">
        <ele>582.1233</ele>
        <time>2020-08-12T14:45:06Z</time>
      </trkpt>
      <trkpt lat="45.36325" lon="5.75404">
        <ele>581.484</ele>
        <time>2020-08-12T14:45:11Z</time>
      </trkpt>
      <trkpt lat="45.36364" lon="5.75387">
        <ele>576.3882</ele>
        <time>2020-08-12T14:45:16Z</time>
      </trkpt>
      <trkpt lat="45.36397" lon="5.75346">
        <ele>573.00214</ele>
        <time>2020-08-12T14:45:21Z</time>
      </trkpt>
      <trkpt lat="45.3644" lon="5.7532">
        <ele>568.55347</ele>
        <time>2020-08-12T14:45:26Z</time>
      </trkpt>
      <trkpt lat="45.36487" lon="5.75304">
        <ele>565.9137</ele>
        <time>2020-08-12T14:45:31Z</time>
      </trkpt>
      <trkpt lat="45.36534" lon="5.75277">
        <ele>564.36346</ele>
        <time>2020-08-12T14:45:36Z</time>
      </trkpt>
      <trkpt lat="45.36559" lon="5.75214">
        <ele>563.5563</ele>
        <time>2020-08-12T14:45:41Z</time>
      </trkpt>
      <trkpt lat="45.36576" lon="5.75146">
        <ele>562.8996</ele>
        <time>2020-08-12T14:45:46Z</time>
      </trkpt>
      <trkpt lat="45.36602" lon="5.75098">
        <ele>562.2766</ele>
        <time>2020-08-12T14:45:51Z</time>
      </trkpt>
      <trkpt lat="45.36641" lon="5.75084">
        <ele>559.39667</ele>
        <time>2020-08-12T14:45:56Z</time>
      </trkpt>
      <trkpt lat="45.36691" lon="5.75084">
        <ele>557.90894</ele>
        <time>2020-08-12T14:46:01Z</time>
      </trkpt>
      <trkpt lat="45.36734" lon="5.75051">
        <ele>555.6607</ele>
        <time>2020-08-12T14:46:06Z</time>
      </trkpt>
      <trkpt lat="45.36776" lon="5.75022">
        <ele>552.57745</ele>
        <time>2020-08-12T14:46:11Z</time>
      </trkpt>
      <trkpt lat="45.36811" lon="5.74992">
        <ele>550.5506</ele>
        <time>2020-08-12T14:46:16Z</time>
      </trkpt>
      <trkpt lat="45.36857" lon="5.7497">
        <ele>551.3289</ele>
        <time>2020-08-12T14:46:21Z</time>
      </trkpt>
      <trkpt lat="45.36905" lon="5.74958">
        <ele>552.2472</ele>
        <time>2020-08-12T14:46:26Z</time>
      </trkpt>
      <trkpt lat="45.36947" lon="5.74942">
        <ele>551.74756</ele>
        <time>2020-08-12T14:46:31Z</time>
      </trkpt>
      <trkpt lat="45.36989" lon="5.74926">
        <ele>551.03546</ele>
        <time>2020-08-12T14:46:36Z</time>
      </trkpt>
      <trkpt lat="45.37026" lon="5.74909">
        <ele>549.57666</ele>
        <time>2020-08-12T14:46:41Z</time>
      </trkpt>
      <trkpt lat="45.37061" lon="5.74905">
        <ele>545.68243</ele>
        <time>2020-08-12T14:46:46Z</time>
      </trkpt>
      <trkpt lat="45.37074" lon="5.74922">
        <ele>545.68243</ele>
        <time>2020-08-12T14:46:51Z</time>
      </trkpt>
      <trkpt lat="45.3707" lon="5.74942">
        <ele>540.2256</ele>
        <time>2020-08-12T14:46:56Z</time>
      </trkpt>
      <trkpt lat="45.37072" lon="5.74949">
        <ele>523.6693</ele>
        <time>2020-08-12T14:47:01Z</time>
      </trkpt>
      <trkpt lat="45.37098" lon="5.74964">
        <ele>513.6419</ele>
        <time>2020-08-12T14:48:18Z</time>
      </trkpt>
      <trkpt lat="45.37115" lon="5.74978">
        <ele>514.6532</ele>
        <time>2020-08-12T14:49:01Z</time>
      </trkpt>
      <trkpt lat="45.37137" lon="5.74992">
        <ele>514.9472</ele>
        <time>2020-08-12T14:49:06Z</time>
      </trkpt>
      <trkpt lat="45.37164" lon="5.75004">
        <ele>512.78925</ele>
        <time>2020-08-12T14:49:11Z</time>
      </trkpt>
      <trkpt lat="45.37192" lon="5.75014">
        <ele>510.64096</ele>
        <time>2020-08-12T14:49:16Z</time>
      </trkpt>
      <trkpt lat="45.37227" lon="5.75011">
        <ele>508.37527</ele>
        <time>2020-08-12T14:49:21Z</time>
      </trkpt>
      <trkpt lat="45.37263" lon="5.75005">
        <ele>507.5039</ele>
        <time>2020-08-12T14:49:26Z</time>
      </trkpt>
      <trkpt lat="45.37307" lon="5.7501">
        <ele>507.49973</ele>
        <time>2020-08-12T14:49:31Z</time>
      </trkpt>
      <trkpt lat="45.37351" lon="5.75032">
        <ele>506.7061</ele>
        <time>2020-08-12T14:49:36Z</time>
      </trkpt>
      <trkpt lat="45.374" lon="5.75019">
        <ele>506.9087</ele>
        <time>2020-08-12T14:49:41Z</time>
      </trkpt>
      <trkpt lat="45.37484" lon="5.74978">
        <ele>504.80713</ele>
        <time>2020-08-12T14:49:51Z</time>
      </trkpt>
      <trkpt lat="45.37511" lon="5.74933">
        <ele>504.29803</ele>
        <time>2020-08-12T14:49:56Z</time>
      </trkpt>
      <trkpt lat="45.37869" lon="5.74751">
        <ele>495.514</ele>
        <time>2020-08-12T14:50:40Z</time>
      </trkpt>
      <trkpt lat="45.37921" lon="5.7474">
        <ele>495.84454</ele>
        <time>2020-08-12T14:50:46Z</time>
      </trkpt>
      <trkpt lat="45.37962" lon="5.74715">
        <ele>496.58954</ele>
        <time>2020-08-12T14:50:51Z</time>
      </trkpt>
      <trkpt lat="45.37994" lon="5.74665">
        <ele>492.74728</ele>
        <time>2020-08-12T14:50:56Z</time>
      </trkpt>
      <trkpt lat="45.37986" lon="5.746">
        <ele>491.05405</ele>
        <time>2020-08-12T14:51:01Z</time>
      </trkpt>
      <trkpt lat="45.37974" lon="5.74543">
        <ele>489.1102</ele>
        <time>2020-08-12T14:51:06Z</time>
      </trkpt>
      <trkpt lat="45.37981" lon="5.74472">
        <ele>487.26514</ele>
        <time>2020-08-12T14:51:11Z</time>
      </trkpt>
      <trkpt lat="45.37967" lon="5.744">
        <ele>485.4863</ele>
        <time>2020-08-12T14:51:16Z</time>
      </trkpt>
      <trkpt lat="45.37937" lon="5.7434">
        <ele>485.08252</ele>
        <time>2020-08-12T14:51:21Z</time>
      </trkpt>
      <trkpt lat="45.37909" lon="5.74285">
        <ele>484.6462</ele>
        <time>2020-08-12T14:51:26Z</time>
      </trkpt>
      <trkpt lat="45.37883" lon="5.74227">
        <ele>482.49005</ele>
        <time>2020-08-12T14:51:31Z</time>
      </trkpt>
      <trkpt lat="45.37873" lon="5.74165">
        <ele>481.93112</ele>
        <time>2020-08-12T14:51:36Z</time>
      </trkpt>
      <trkpt lat="45.37886" lon="5.74103">
        <ele>482.18384</ele>
        <time>2020-08-12T14:51:41Z</time>
      </trkpt>
      <trkpt lat="45.37906" lon="5.74047">
        <ele>480.71786</ele>
        <time>2020-08-12T14:51:46Z</time>
      </trkpt>
      <trkpt lat="45.37924" lon="5.74007">
        <ele>480.1076</ele>
        <time>2020-08-12T14:51:51Z</time>
      </trkpt>
      <trkpt lat="45.37943" lon="5.73969">
        <ele>470.4335</ele>
        <time>2020-08-12T14:51:56Z</time>
      </trkpt>
      <trkpt lat="45.37958" lon="5.73912">
        <ele>471.04037</ele>
        <time>2020-08-12T14:52:01Z</time>
      </trkpt>
      <trkpt lat="45.37977" lon="5.73859">
        <ele>476.71786</ele>
        <time>2020-08-12T14:52:06Z</time>
      </trkpt>
      <trkpt lat="45.38028" lon="5.73776">
        <ele>475.79108</ele>
        <time>2020-08-12T14:52:16Z</time>
      </trkpt>
      <trkpt lat="45.38048" lon="5.73732">
        <ele>474.78677</ele>
        <time>2020-08-12T14:52:21Z</time>
      </trkpt>
      <trkpt lat="45.38064" lon="5.73685">
        <ele>474.56976</ele>
        <time>2020-08-12T14:52:26Z</time>
      </trkpt>
      <trkpt lat="45.38084" lon="5.73643">
        <ele>474.7417</ele>
        <time>2020-08-12T14:52:31Z</time>
      </trkpt>
      <trkpt lat="45.38117" lon="5.73609">
        <ele>474.10956</ele>
        <time>2020-08-12T14:52:36Z</time>
      </trkpt>
      <trkpt lat="45.38155" lon="5.73585">
        <ele>472.03613</ele>
        <time>2020-08-12T14:52:41Z</time>
      </trkpt>
      <trkpt lat="45.382" lon="5.73566">
        <ele>470.88736</ele>
        <time>2020-08-12T14:52:46Z</time>
      </trkpt>
      <trkpt lat="45.38239" lon="5.73547">
        <ele>467.46017</ele>
        <time>2020-08-12T14:52:51Z</time>
      </trkpt>
      <trkpt lat="45.3828" lon="5.73533">
        <ele>467.89404</ele>
        <time>2020-08-12T14:52:56Z</time>
      </trkpt>
      <trkpt lat="45.38322" lon="5.73532">
        <ele>468.38138</ele>
        <time>2020-08-12T14:53:01Z</time>
      </trkpt>
      <trkpt lat="45.38364" lon="5.73528">
        <ele>468.05545</ele>
        <time>2020-08-12T14:53:06Z</time>
      </trkpt>
      <trkpt lat="45.38403" lon="5.73532">
        <ele>468.85196</ele>
        <time>2020-08-12T14:53:11Z</time>
      </trkpt>
      <trkpt lat="45.38442" lon="5.7353">
        <ele>467.08606</ele>
        <time>2020-08-12T14:53:16Z</time>
      </trkpt>
      <trkpt lat="45.38482" lon="5.73529">
        <ele>467.46017</ele>
        <time>2020-08-12T14:53:21Z</time>
      </trkpt>
      <trkpt lat="45.38522" lon="5.73539">
        <ele>467.53146</ele>
        <time>2020-08-12T14:53:26Z</time>
      </trkpt>
      <trkpt lat="45.38556" lon="5.73559">
        <ele>464.24728</ele>
        <time>2020-08-12T14:53:31Z</time>
      </trkpt>
      <trkpt lat="45.3859" lon="5.73568">
        <ele>464.98602</ele>
        <time>2020-08-12T14:53:36Z</time>
      </trkpt>
      <trkpt lat="45.38616" lon="5.73575">
        <ele>462.6588</ele>
        <time>2020-08-12T14:53:41Z</time>
      </trkpt>
      <trkpt lat="45.3863" lon="5.73577">
        <ele>461.0579</ele>
        <time>2020-08-12T14:53:46Z</time>
      </trkpt>
      <trkpt lat="45.38642" lon="5.73578">
        <ele>457.14822</ele>
        <time>2020-08-12T14:53:51Z</time>
      </trkpt>
      <trkpt lat="45.3866" lon="5.73576">
        <ele>457.56094</ele>
        <time>2020-08-12T14:53:56Z</time>
      </trkpt>
      <trkpt lat="45.38665" lon="5.73576">
        <ele>456.1552</ele>
        <time>2020-08-12T14:54:01Z</time>
      </trkpt>
      <trkpt lat="45.38683" lon="5.73574">
        <ele>445.00342</ele>
        <time>2020-08-12T14:54:31Z</time>
      </trkpt>
      <trkpt lat="45.38731" lon="5.73577">
        <ele>449.9791</ele>
        <time>2020-08-12T14:54:41Z</time>
      </trkpt>
      <trkpt lat="45.38749" lon="5.7358">
        <ele>449.3728</ele>
        <time>2020-08-12T14:54:46Z</time>
      </trkpt>
      <trkpt lat="45.38777" lon="5.7358">
        <ele>448.39163</ele>
        <time>2020-08-12T14:54:51Z</time>
      </trkpt>
      <trkpt lat="45.38799" lon="5.7357">
        <ele>448.45132</ele>
        <time>2020-08-12T14:54:56Z</time>
      </trkpt>
      <trkpt lat="45.38808" lon="5.73537">
        <ele>444.22867</ele>
        <time>2020-08-12T14:55:01Z</time>
      </trkpt>
      <trkpt lat="45.38809" lon="5.73498">
        <ele>447.82724</ele>
        <time>2020-08-12T14:55:06Z</time>
      </trkpt>
      <trkpt lat="45.3881" lon="5.73465">
        <ele>448.9822</ele>
        <time>2020-08-12T14:55:11Z</time>
      </trkpt>
      <trkpt lat="45.38811" lon="5.73438">
        <ele>448.83142</ele>
        <time>2020-08-12T14:55:16Z</time>
      </trkpt>
      <trkpt lat="45.38813" lon="5.73405">
        <ele>441.59894</ele>
        <time>2020-08-12T14:55:26Z</time>
      </trkpt>
      <trkpt lat="45.38819" lon="5.734">
        <ele>440.25906</ele>
        <time>2020-08-12T14:55:31Z</time>
      </trkpt>
      <trkpt lat="45.38832" lon="5.73394">
        <ele>443.46024</ele>
        <time>2020-08-12T14:55:36Z</time>
      </trkpt>
      <trkpt lat="45.38861" lon="5.73388">
        <ele>442.99228</ele>
        <time>2020-08-12T14:55:41Z</time>
      </trkpt>
      <trkpt lat="45.38898" lon="5.73378">
        <ele>444.0329</ele>
        <time>2020-08-12T14:55:46Z</time>
      </trkpt>
      <trkpt lat="45.38931" lon="5.73363">
        <ele>441.68372</ele>
        <time>2020-08-12T14:55:51Z</time>
      </trkpt>
      <trkpt lat="45.38957" lon="5.73348">
        <ele>439.765</ele>
        <time>2020-08-12T14:55:56Z</time>
      </trkpt>
      <trkpt lat="45.38987" lon="5.73331">
        <ele>438.4179</ele>
        <time>2020-08-12T14:56:01Z</time>
      </trkpt>
      <trkpt lat="45.39019" lon="5.7331">
        <ele>437.28546</ele>
        <time>2020-08-12T14:56:06Z</time>
      </trkpt>
      <trkpt lat="45.39049" lon="5.73286">
        <ele>440.21823</ele>
        <time>2020-08-12T14:56:11Z</time>
      </trkpt>
      <trkpt lat="45.39076" lon="5.73258">
        <ele>439.03754</ele>
        <time>2020-08-12T14:56:16Z</time>
      </trkpt>
      <trkpt lat="45.39103" lon="5.73233">
        <ele>440.83478</ele>
        <time>2020-08-12T14:56:21Z</time>
      </trkpt>
      <trkpt lat="45.39125" lon="5.73201">
        <ele>442.86456</ele>
        <time>2020-08-12T14:56:26Z</time>
      </trkpt>
      <trkpt lat="45.39148" lon="5.73168">
        <ele>442.04697</ele>
        <time>2020-08-12T14:56:31Z</time>
      </trkpt>
      <trkpt lat="45.39174" lon="5.73133">
        <ele>441.578</ele>
        <time>2020-08-12T14:56:36Z</time>
      </trkpt>
      <trkpt lat="45.39204" lon="5.73098">
        <ele>440.3093</ele>
        <time>2020-08-12T14:56:41Z</time>
      </trkpt>
      <trkpt lat="45.39236" lon="5.7308">
        <ele>438.77274</ele>
        <time>2020-08-12T14:56:46Z</time>
      </trkpt>
      <trkpt lat="45.3927" lon="5.73096">
        <ele>434.85745</ele>
        <time>2020-08-12T14:56:51Z</time>
      </trkpt>
      <trkpt lat="45.39299" lon="5.73071">
        <ele>435.55966</ele>
        <time>2020-08-12T14:56:56Z</time>
      </trkpt>
      <trkpt lat="45.39332" lon="5.73039">
        <ele>431.09244</ele>
        <time>2020-08-12T14:57:01Z</time>
      </trkpt>
      <trkpt lat="45.39365" lon="5.73008">
        <ele>423.24316</ele>
        <time>2020-08-12T14:57:06Z</time>
      </trkpt>
      <trkpt lat="45.39401" lon="5.72977">
        <ele>428.663</ele>
        <time>2020-08-12T14:57:11Z</time>
      </trkpt>
      <trkpt lat="45.39434" lon="5.72946">
        <ele>432.72476</ele>
        <time>2020-08-12T14:57:16Z</time>
      </trkpt>
      <trkpt lat="45.39463" lon="5.7291">
        <ele>435.51675</ele>
        <time>2020-08-12T14:57:21Z</time>
      </trkpt>
      <trkpt lat="45.39493" lon="5.72875">
        <ele>436.3184</ele>
        <time>2020-08-12T14:57:26Z</time>
      </trkpt>
      <trkpt lat="45.3952" lon="5.72835">
        <ele>435.75116</ele>
        <time>2020-08-12T14:57:31Z</time>
      </trkpt>
      <trkpt lat="45.39551" lon="5.72798">
        <ele>433.02405</ele>
        <time>2020-08-12T14:57:36Z</time>
      </trkpt>
      <trkpt lat="45.39582" lon="5.72767">
        <ele>430.201</ele>
        <time>2020-08-12T14:57:41Z</time>
      </trkpt>
      <trkpt lat="45.39648" lon="5.72712">
        <ele>429.7427</ele>
        <time>2020-08-12T14:57:51Z</time>
      </trkpt>
      <trkpt lat="45.3968" lon="5.72684">
        <ele>428.92978</ele>
        <time>2020-08-12T14:57:56Z</time>
      </trkpt>
      <trkpt lat="45.39712" lon="5.72653">
        <ele>428.69437</ele>
        <time>2020-08-12T14:58:01Z</time>
      </trkpt>
      <trkpt lat="45.39745" lon="5.72622">
        <ele>426.31644</ele>
        <time>2020-08-12T14:58:06Z</time>
      </trkpt>
      <trkpt lat="45.39777" lon="5.72593">
        <ele>424.24</ele>
        <time>2020-08-12T14:58:11Z</time>
      </trkpt>
      <trkpt lat="45.39808" lon="5.72565">
        <ele>424.7013</ele>
        <time>2020-08-12T14:58:16Z</time>
      </trkpt>
      <trkpt lat="45.3984" lon="5.72538">
        <ele>425.80804</ele>
        <time>2020-08-12T14:58:21Z</time>
      </trkpt>
      <trkpt lat="45.39871" lon="5.7251">
        <ele>427.27783</ele>
        <time>2020-08-12T14:58:26Z</time>
      </trkpt>
      <trkpt lat="45.399" lon="5.72483">
        <ele>427.1544</ele>
        <time>2020-08-12T14:58:31Z</time>
      </trkpt>
      <trkpt lat="45.39922" lon="5.72451">
        <ele>425.00256</ele>
        <time>2020-08-12T14:58:36Z</time>
      </trkpt>
      <trkpt lat="45.39941" lon="5.72411">
        <ele>424.46072</ele>
        <time>2020-08-12T14:58:41Z</time>
      </trkpt>
      <trkpt lat="45.39966" lon="5.7238">
        <ele>424.07056</ele>
        <time>2020-08-12T14:58:46Z</time>
      </trkpt>
      <trkpt lat="45.39992" lon="5.72359">
        <ele>423.50467</ele>
        <time>2020-08-12T14:58:51Z</time>
      </trkpt>
      <trkpt lat="45.40015" lon="5.72343">
        <ele>422.4587</ele>
        <time>2020-08-12T14:58:56Z</time>
      </trkpt>
      <trkpt lat="45.40041" lon="5.72323">
        <ele>419.75513</ele>
        <time>2020-08-12T14:59:01Z</time>
      </trkpt>
      <trkpt lat="45.40058" lon="5.72324">
        <ele>416.03442</ele>
        <time>2020-08-12T14:59:06Z</time>
      </trkpt>
      <trkpt lat="45.40083" lon="5.72337">
        <ele>412.0822</ele>
        <time>2020-08-12T15:00:16Z</time>
      </trkpt>
      <trkpt lat="45.40096" lon="5.72339">
        <ele>411.46854</ele>
        <time>2020-08-12T15:00:21Z</time>
      </trkpt>
      <trkpt lat="45.40115" lon="5.72324">
        <ele>412.1732</ele>
        <time>2020-08-12T15:00:26Z</time>
      </trkpt>
      <trkpt lat="45.40148" lon="5.72311">
        <ele>415.32654</ele>
        <time>2020-08-12T15:00:31Z</time>
      </trkpt>
      <trkpt lat="45.40186" lon="5.72295">
        <ele>415.4217</ele>
        <time>2020-08-12T15:00:36Z</time>
      </trkpt>
      <trkpt lat="45.40223" lon="5.72265">
        <ele>415.04526</ele>
        <time>2020-08-12T15:00:41Z</time>
      </trkpt>
      <trkpt lat="45.40258" lon="5.72235">
        <ele>414.36145</ele>
        <time>2020-08-12T15:00:46Z</time>
      </trkpt>
      <trkpt lat="45.40287" lon="5.72196">
        <ele>415.60468</ele>
        <time>2020-08-12T15:00:51Z</time>
      </trkpt>
      <trkpt lat="45.40317" lon="5.72166">
        <ele>415.34534</ele>
        <time>2020-08-12T15:00:56Z</time>
      </trkpt>
      <trkpt lat="45.40347" lon="5.72135">
        <ele>416.1484</ele>
        <time>2020-08-12T15:01:01Z</time>
      </trkpt>
      <trkpt lat="45.40375" lon="5.72105">
        <ele>417.6249</ele>
        <time>2020-08-12T15:01:06Z</time>
      </trkpt>
      <trkpt lat="45.40403" lon="5.72075">
        <ele>418.92685</ele>
        <time>2020-08-12T15:01:11Z</time>
      </trkpt>
      <trkpt lat="45.40431" lon="5.72045">
        <ele>417.60922</ele>
        <time>2020-08-12T15:01:16Z</time>
      </trkpt>
      <trkpt lat="45.40457" lon="5.72017">
        <ele>416.69003</ele>
        <time>2020-08-12T15:01:21Z</time>
      </trkpt>
      <trkpt lat="45.40481" lon="5.71994">
        <ele>418.06097</ele>
        <time>2020-08-12T15:01:26Z</time>
      </trkpt>
      <trkpt lat="45.4049" lon="5.71972">
        <ele>413.32428</ele>
        <time>2020-08-12T15:01:31Z</time>
      </trkpt>
      <trkpt lat="45.40488" lon="5.71947">
        <ele>414.94385</ele>
        <time>2020-08-12T15:01:36Z</time>
      </trkpt>
      <trkpt lat="45.40482" lon="5.71924">
        <ele>417.01</ele>
        <time>2020-08-12T15:01:41Z</time>
      </trkpt>
      <trkpt lat="45.40475" lon="5.71906">
        <ele>418.51483</ele>
        <time>2020-08-12T15:01:46Z</time>
      </trkpt>
      <trkpt lat="45.4047" lon="5.7189">
        <ele>418.8777</ele>
        <time>2020-08-12T15:01:51Z</time>
      </trkpt>
      <trkpt lat="45.40467" lon="5.71872">
        <ele>419.9465</ele>
        <time>2020-08-12T15:01:56Z</time>
      </trkpt>
      <trkpt lat="45.40463" lon="5.71855">
        <ele>420.58447</ele>
        <time>2020-08-12T15:02:01Z</time>
      </trkpt>
      <trkpt lat="45.40457" lon="5.71837">
        <ele>420.45688</ele>
        <time>2020-08-12T15:02:06Z</time>
      </trkpt>
      <trkpt lat="45.40452" lon="5.71819">
        <ele>421.22873</ele>
        <time>2020-08-12T15:02:11Z</time>
      </trkpt>
      <trkpt lat="45.40447" lon="5.71801">
        <ele>423.61343</ele>
        <time>2020-08-12T15:02:16Z</time>
      </trkpt>
      <trkpt lat="45.40441" lon="5.71782">
        <ele>426.6376</ele>
        <time>2020-08-12T15:02:21Z</time>
      </trkpt>
      <trkpt lat="45.40436" lon="5.71764">
        <ele>428.65042</ele>
        <time>2020-08-12T15:02:26Z</time>
      </trkpt>
      <trkpt lat="45.40431" lon="5.71745">
        <ele>427.92227</ele>
        <time>2020-08-12T15:02:31Z</time>
      </trkpt>
      <trkpt lat="45.4043" lon="5.71706">
        <ele>428.4872</ele>
        <time>2020-08-12T15:02:41Z</time>
      </trkpt>
      <trkpt lat="45.40434" lon="5.7169">
        <ele>426.75894</ele>
        <time>2020-08-12T15:02:46Z</time>
      </trkpt>
      <trkpt lat="45.40441" lon="5.71676">
        <ele>428.81992</ele>
        <time>2020-08-12T15:02:51Z</time>
      </trkpt>
      <trkpt lat="45.40451" lon="5.71661">
        <ele>430.19574</ele>
        <time>2020-08-12T15:02:56Z</time>
      </trkpt>
      <trkpt lat="45.40459" lon="5.71646">
        <ele>431.41995</ele>
        <time>2020-08-12T15:03:01Z</time>
      </trkpt>
      <trkpt lat="45.40464" lon="5.71628">
        <ele>431.3174</ele>
        <time>2020-08-12T15:03:06Z</time>
      </trkpt>
      <trkpt lat="45.40465" lon="5.7161">
        <ele>431.17615</ele>
        <time>2020-08-12T15:03:11Z</time>
      </trkpt>
      <trkpt lat="45.40464" lon="5.71591">
        <ele>431.77255</ele>
        <time>2020-08-12T15:03:16Z</time>
      </trkpt>
      <trkpt lat="45.40458" lon="5.71575">
        <ele>432.8723</ele>
        <time>2020-08-12T15:03:21Z</time>
      </trkpt>
      <trkpt lat="45.40451" lon="5.71559">
        <ele>433.33377</ele>
        <time>2020-08-12T15:03:26Z</time>
      </trkpt>
      <trkpt lat="45.40445" lon="5.71544">
        <ele>433.85596</ele>
        <time>2020-08-12T15:03:31Z</time>
      </trkpt>
      <trkpt lat="45.40438" lon="5.7153">
        <ele>435.05627</ele>
        <time>2020-08-12T15:03:36Z</time>
      </trkpt>
      <trkpt lat="45.40431" lon="5.71515">
        <ele>435.20486</ele>
        <time>2020-08-12T15:03:41Z</time>
      </trkpt>
      <trkpt lat="45.40423" lon="5.715">
        <ele>435.69153</ele>
        <time>2020-08-12T15:03:46Z</time>
      </trkpt>
      <trkpt lat="45.40415" lon="5.71484">
        <ele>435.53662</ele>
        <time>2020-08-12T15:03:51Z</time>
      </trkpt>
      <trkpt lat="45.40408" lon="5.7147">
        <ele>436.91077</ele>
        <time>2020-08-12T15:03:56Z</time>
      </trkpt>
      <trkpt lat="45.40401" lon="5.71454">
        <ele>438.71515</ele>
        <time>2020-08-12T15:04:01Z</time>
      </trkpt>
      <trkpt lat="45.40393" lon="5.71441">
        <ele>438.86902</ele>
        <time>2020-08-12T15:04:06Z</time>
      </trkpt>
      <trkpt lat="45.40385" lon="5.71425">
        <ele>439.47507</ele>
        <time>2020-08-12T15:04:11Z</time>
      </trkpt>
      <trkpt lat="45.40377" lon="5.71409">
        <ele>440.72067</ele>
        <time>2020-08-12T15:04:16Z</time>
      </trkpt>
      <trkpt lat="45.40371" lon="5.71395">
        <ele>440.1031</ele>
        <time>2020-08-12T15:04:21Z</time>
      </trkpt>
      <trkpt lat="45.40367" lon="5.7138">
        <ele>440.0696</ele>
        <time>2020-08-12T15:04:26Z</time>
      </trkpt>
      <trkpt lat="45.40368" lon="5.71362">
        <ele>440.63275</ele>
        <time>2020-08-12T15:04:31Z</time>
      </trkpt>
      <trkpt lat="45.40373" lon="5.71351">
        <ele>441.85437</ele>
        <time>2020-08-12T15:04:36Z</time>
      </trkpt>
      <trkpt lat="45.40384" lon="5.71343">
        <ele>444.63068</ele>
        <time>2020-08-12T15:04:41Z</time>
      </trkpt>
      <trkpt lat="45.40394" lon="5.71336">
        <ele>445.084</ele>
        <time>2020-08-12T15:04:46Z</time>
      </trkpt>
      <trkpt lat="45.40405" lon="5.71329">
        <ele>448.35184</ele>
        <time>2020-08-12T15:04:51Z</time>
      </trkpt>
      <trkpt lat="45.40416" lon="5.71328">
        <ele>448.64816</ele>
        <time>2020-08-12T15:04:56Z</time>
      </trkpt>
      <trkpt lat="45.40429" lon="5.71329">
        <ele>448.70682</ele>
        <time>2020-08-12T15:05:01Z</time>
      </trkpt>
      <trkpt lat="45.40446" lon="5.71322">
        <ele>449.51102</ele>
        <time>2020-08-12T15:05:06Z</time>
      </trkpt>
      <trkpt lat="45.40458" lon="5.71317">
        <ele>449.51834</ele>
        <time>2020-08-12T15:05:11Z</time>
      </trkpt>
      <trkpt lat="45.40469" lon="5.71315">
        <ele>449.74454</ele>
        <time>2020-08-12T15:05:16Z</time>
      </trkpt>
      <trkpt lat="45.40483" lon="5.71306">
        <ele>450.19168</ele>
        <time>2020-08-12T15:05:21Z</time>
      </trkpt>
      <trkpt lat="45.40495" lon="5.71297">
        <ele>450.4849</ele>
        <time>2020-08-12T15:05:26Z</time>
      </trkpt>
      <trkpt lat="45.40506" lon="5.71284">
        <ele>451.21902</ele>
        <time>2020-08-12T15:05:31Z</time>
      </trkpt>
      <trkpt lat="45.40518" lon="5.71273">
        <ele>450.85352</ele>
        <time>2020-08-12T15:05:36Z</time>
      </trkpt>
      <trkpt lat="45.40529" lon="5.71263">
        <ele>450.54984</ele>
        <time>2020-08-12T15:05:41Z</time>
      </trkpt>
      <trkpt lat="45.4054" lon="5.71257">
        <ele>451.27765</ele>
        <time>2020-08-12T15:05:46Z</time>
      </trkpt>
      <trkpt lat="45.40555" lon="5.71247">
        <ele>453.2958</ele>
        <time>2020-08-12T15:05:51Z</time>
      </trkpt>
      <trkpt lat="45.40565" lon="5.71234">
        <ele>455.84622</ele>
        <time>2020-08-12T15:05:56Z</time>
      </trkpt>
      <trkpt lat="45.4057" lon="5.71219">
        <ele>455.21564</ele>
        <time>2020-08-12T15:06:01Z</time>
      </trkpt>
      <trkpt lat="45.40577" lon="5.712">
        <ele>455.31097</ele>
        <time>2020-08-12T15:06:06Z</time>
      </trkpt>
      <trkpt lat="45.40587" lon="5.71185">
        <ele>456.79105</ele>
        <time>2020-08-12T15:06:11Z</time>
      </trkpt>
      <trkpt lat="45.40598" lon="5.71175">
        <ele>458.2775</ele>
        <time>2020-08-12T15:06:16Z</time>
      </trkpt>
      <trkpt lat="45.40611" lon="5.71162">
        <ele>459.75668</ele>
        <time>2020-08-12T15:06:21Z</time>
      </trkpt>
      <trkpt lat="45.40621" lon="5.7115">
        <ele>462.24075</ele>
        <time>2020-08-12T15:06:26Z</time>
      </trkpt>
      <trkpt lat="45.40632" lon="5.71143">
        <ele>462.97736</ele>
        <time>2020-08-12T15:06:31Z</time>
      </trkpt>
      <trkpt lat="45.40643" lon="5.71132">
        <ele>464.63184</ele>
        <time>2020-08-12T15:06:36Z</time>
      </trkpt>
      <trkpt lat="45.40654" lon="5.71122">
        <ele>466.21313</ele>
        <time>2020-08-12T15:06:41Z</time>
      </trkpt>
      <trkpt lat="45.40668" lon="5.71114">
        <ele>467.73267</ele>
        <time>2020-08-12T15:06:46Z</time>
      </trkpt>
      <trkpt lat="45.40679" lon="5.71109">
        <ele>468.1372</ele>
        <time>2020-08-12T15:06:51Z</time>
      </trkpt>
      <trkpt lat="45.40694" lon="5.71103">
        <ele>468.89807</ele>
        <time>2020-08-12T15:06:56Z</time>
      </trkpt>
      <trkpt lat="45.4071" lon="5.711">
        <ele>468.51868</ele>
        <time>2020-08-12T15:07:01Z</time>
      </trkpt>
      <trkpt lat="45.40721" lon="5.71104">
        <ele>468.23676</ele>
        <time>2020-08-12T15:07:06Z</time>
      </trkpt>
      <trkpt lat="45.40732" lon="5.71108">
        <ele>469.67572</ele>
        <time>2020-08-12T15:07:11Z</time>
      </trkpt>
      <trkpt lat="45.40748" lon="5.71111">
        <ele>469.67468</ele>
        <time>2020-08-12T15:07:16Z</time>
      </trkpt>
      <trkpt lat="45.40765" lon="5.71099">
        <ele>473.37262</ele>
        <time>2020-08-12T15:07:21Z</time>
      </trkpt>
      <trkpt lat="45.40777" lon="5.71087">
        <ele>473.85168</ele>
        <time>2020-08-12T15:07:26Z</time>
      </trkpt>
      <trkpt lat="45.40789" lon="5.71074">
        <ele>475.06143</ele>
        <time>2020-08-12T15:07:31Z</time>
      </trkpt>
      <trkpt lat="45.40802" lon="5.71065">
        <ele>474.7501</ele>
        <time>2020-08-12T15:07:36Z</time>
      </trkpt>
      <trkpt lat="45.4082" lon="5.71064">
        <ele>475.23022</ele>
        <time>2020-08-12T15:07:41Z</time>
      </trkpt>
      <trkpt lat="45.40839" lon="5.71059">
        <ele>476.98416</ele>
        <time>2020-08-12T15:07:46Z</time>
      </trkpt>
      <trkpt lat="45.40856" lon="5.71052">
        <ele>478.7361</ele>
        <time>2020-08-12T15:07:51Z</time>
      </trkpt>
      <trkpt lat="45.40873" lon="5.71045">
        <ele>478.69836</ele>
        <time>2020-08-12T15:07:56Z</time>
      </trkpt>
      <trkpt lat="45.40889" lon="5.71036">
        <ele>478.74033</ele>
        <time>2020-08-12T15:08:01Z</time>
      </trkpt>
      <trkpt lat="45.40904" lon="5.71025">
        <ele>478.52536</ele>
        <time>2020-08-12T15:08:06Z</time>
      </trkpt>
      <trkpt lat="45.40918" lon="5.71018">
        <ele>478.77283</ele>
        <time>2020-08-12T15:08:11Z</time>
      </trkpt>
      <trkpt lat="45.40934" lon="5.71015">
        <ele>480.2324</ele>
        <time>2020-08-12T15:08:16Z</time>
      </trkpt>
      <trkpt lat="45.40953" lon="5.71013">
        <ele>480.95486</ele>
        <time>2020-08-12T15:08:21Z</time>
      </trkpt>
      <trkpt lat="45.40967" lon="5.71017">
        <ele>481.18973</ele>
        <time>2020-08-12T15:08:26Z</time>
      </trkpt>
      <trkpt lat="45.40985" lon="5.71022">
        <ele>481.7434</ele>
        <time>2020-08-12T15:08:31Z</time>
      </trkpt>
      <trkpt lat="45.41002" lon="5.71024">
        <ele>482.99237</ele>
        <time>2020-08-12T15:08:36Z</time>
      </trkpt>
      <trkpt lat="45.41017" lon="5.71025">
        <ele>484.0631</ele>
        <time>2020-08-12T15:08:41Z</time>
      </trkpt>
      <trkpt lat="45.41036" lon="5.71023">
        <ele>483.6772</ele>
        <time>2020-08-12T15:08:46Z</time>
      </trkpt>
      <trkpt lat="45.41051" lon="5.7102">
        <ele>484.55182</ele>
        <time>2020-08-12T15:08:51Z</time>
      </trkpt>
      <trkpt lat="45.41067" lon="5.71014">
        <ele>484.5256</ele>
        <time>2020-08-12T15:08:56Z</time>
      </trkpt>
      <trkpt lat="45.41082" lon="5.71007">
        <ele>486.5131</ele>
        <time>2020-08-12T15:09:01Z</time>
      </trkpt>
      <trkpt lat="45.41099" lon="5.70999">
        <ele>488.35495</ele>
        <time>2020-08-12T15:09:06Z</time>
      </trkpt>
      <trkpt lat="45.41114" lon="5.70993">
        <ele>488.78503</ele>
        <time>2020-08-12T15:09:11Z</time>
      </trkpt>
      <trkpt lat="45.41131" lon="5.70979">
        <ele>489.38608</ele>
        <time>2020-08-12T15:09:16Z</time>
      </trkpt>
      <trkpt lat="45.41144" lon="5.70946">
        <ele>490.09732</ele>
        <time>2020-08-12T15:09:21Z</time>
      </trkpt>
      <trkpt lat="45.41144" lon="5.70911">
        <ele>492.293</ele>
        <time>2020-08-12T15:09:26Z</time>
      </trkpt>
      <trkpt lat="45.41139" lon="5.70877">
        <ele>493.702</ele>
        <time>2020-08-12T15:09:31Z</time>
      </trkpt>
      <trkpt lat="45.41132" lon="5.70843">
        <ele>494.57285</ele>
        <time>2020-08-12T15:09:36Z</time>
      </trkpt>
      <trkpt lat="45.41128" lon="5.70809">
        <ele>495.21707</ele>
        <time>2020-08-12T15:09:41Z</time>
      </trkpt>
      <trkpt lat="45.41123" lon="5.70774">
        <ele>496.1331</ele>
        <time>2020-08-12T15:09:46Z</time>
      </trkpt>
      <trkpt lat="45.41106" lon="5.70705">
        <ele>498.16986</ele>
        <time>2020-08-12T15:09:56Z</time>
      </trkpt>
      <trkpt lat="45.41096" lon="5.7067">
        <ele>499.95178</ele>
        <time>2020-08-12T15:10:01Z</time>
      </trkpt>
      <trkpt lat="45.41085" lon="5.70638">
        <ele>500.32434</ele>
        <time>2020-08-12T15:10:06Z</time>
      </trkpt>
      <trkpt lat="45.41073" lon="5.7061">
        <ele>500.74307</ele>
        <time>2020-08-12T15:10:11Z</time>
      </trkpt>
      <trkpt lat="45.4106" lon="5.70579">
        <ele>501.64673</ele>
        <time>2020-08-12T15:10:16Z</time>
      </trkpt>
      <trkpt lat="45.41047" lon="5.70551">
        <ele>501.9049</ele>
        <time>2020-08-12T15:10:21Z</time>
      </trkpt>
      <trkpt lat="45.41038" lon="5.70519">
        <ele>501.32452</ele>
        <time>2020-08-12T15:10:26Z</time>
      </trkpt>
      <trkpt lat="45.41027" lon="5.70482">
        <ele>501.1419</ele>
        <time>2020-08-12T15:10:31Z</time>
      </trkpt>
      <trkpt lat="45.41019" lon="5.70447">
        <ele>500.83545</ele>
        <time>2020-08-12T15:10:36Z</time>
      </trkpt>
      <trkpt lat="45.41014" lon="5.70415">
        <ele>501.02225</ele>
        <time>2020-08-12T15:10:41Z</time>
      </trkpt>
      <trkpt lat="45.41008" lon="5.70388">
        <ele>502.04242</ele>
        <time>2020-08-12T15:10:46Z</time>
      </trkpt>
      <trkpt lat="45.4101" lon="5.70352">
        <ele>502.89783</ele>
        <time>2020-08-12T15:10:51Z</time>
      </trkpt>
      <trkpt lat="45.41022" lon="5.70325">
        <ele>502.6459</ele>
        <time>2020-08-12T15:10:56Z</time>
      </trkpt>
      <trkpt lat="45.41042" lon="5.70319">
        <ele>506.1749</ele>
        <time>2020-08-12T15:11:01Z</time>
      </trkpt>
      <trkpt lat="45.41071" lon="5.70324">
        <ele>507.73383</ele>
        <time>2020-08-12T15:11:06Z</time>
      </trkpt>
      <trkpt lat="45.41101" lon="5.70331">
        <ele>506.8772</ele>
        <time>2020-08-12T15:11:11Z</time>
      </trkpt>
      <trkpt lat="45.41128" lon="5.70338">
        <ele>507.6467</ele>
        <time>2020-08-12T15:11:16Z</time>
      </trkpt>
      <trkpt lat="45.41159" lon="5.70346">
        <ele>507.0588</ele>
        <time>2020-08-12T15:11:21Z</time>
      </trkpt>
      <trkpt lat="45.41188" lon="5.70354">
        <ele>506.24313</ele>
        <time>2020-08-12T15:11:26Z</time>
      </trkpt>
      <trkpt lat="45.41214" lon="5.70344">
        <ele>508.4288</ele>
        <time>2020-08-12T15:11:31Z</time>
      </trkpt>
      <trkpt lat="45.41226" lon="5.70304">
        <ele>510.3564</ele>
        <time>2020-08-12T15:11:36Z</time>
      </trkpt>
      <trkpt lat="45.41245" lon="5.70284">
        <ele>510.84674</ele>
        <time>2020-08-12T15:11:41Z</time>
      </trkpt>
      <trkpt lat="45.41272" lon="5.70291">
        <ele>510.9318</ele>
        <time>2020-08-12T15:11:46Z</time>
      </trkpt>
      <trkpt lat="45.41299" lon="5.70311">
        <ele>510.43726</ele>
        <time>2020-08-12T15:11:51Z</time>
      </trkpt>
      <trkpt lat="45.41325" lon="5.70334">
        <ele>511.31293</ele>
        <time>2020-08-12T15:11:56Z</time>
      </trkpt>
      <trkpt lat="45.41352" lon="5.70346">
        <ele>511.41373</ele>
        <time>2020-08-12T15:12:01Z</time>
      </trkpt>
      <trkpt lat="45.4138" lon="5.70353">
        <ele>512.2695</ele>
        <time>2020-08-12T15:12:06Z</time>
      </trkpt>
      <trkpt lat="45.41408" lon="5.70361">
        <ele>512.95624</ele>
        <time>2020-08-12T15:12:11Z</time>
      </trkpt>
      <trkpt lat="45.41462" lon="5.7039">
        <ele>515.51746</ele>
        <time>2020-08-12T15:12:21Z</time>
      </trkpt>
      <trkpt lat="45.4149" lon="5.704">
        <ele>516.01526</ele>
        <time>2020-08-12T15:12:26Z</time>
      </trkpt>
      <trkpt lat="45.41519" lon="5.70403">
        <ele>515.9533</ele>
        <time>2020-08-12T15:12:31Z</time>
      </trkpt>
      <trkpt lat="45.41542" lon="5.70403">
        <ele>516.62964</ele>
        <time>2020-08-12T15:12:36Z</time>
      </trkpt>
      <trkpt lat="45.4157" lon="5.70406">
        <ele>516.9048</ele>
        <time>2020-08-12T15:12:41Z</time>
      </trkpt>
      <trkpt lat="45.41603" lon="5.70411">
        <ele>517.9088</ele>
        <time>2020-08-12T15:12:46Z</time>
      </trkpt>
      <trkpt lat="45.41633" lon="5.70412">
        <ele>518.66187</ele>
        <time>2020-08-12T15:12:51Z</time>
      </trkpt>
      <trkpt lat="45.41661" lon="5.70413">
        <ele>517.4246</ele>
        <time>2020-08-12T15:12:56Z</time>
      </trkpt>
      <trkpt lat="45.41689" lon="5.70409">
        <ele>518.1</ele>
        <time>2020-08-12T15:13:01Z</time>
      </trkpt>
      <trkpt lat="45.41715" lon="5.70396">
        <ele>519.0347</ele>
        <time>2020-08-12T15:13:06Z</time>
      </trkpt>
      <trkpt lat="45.41736" lon="5.70369">
        <ele>518.2145</ele>
        <time>2020-08-12T15:13:11Z</time>
      </trkpt>
      <trkpt lat="45.41745" lon="5.70333">
        <ele>519.01373</ele>
        <time>2020-08-12T15:13:16Z</time>
      </trkpt>
      <trkpt lat="45.41747" lon="5.70295">
        <ele>520.01263</ele>
        <time>2020-08-12T15:13:21Z</time>
      </trkpt>
      <trkpt lat="45.4175" lon="5.70261">
        <ele>517.63367</ele>
        <time>2020-08-12T15:13:26Z</time>
      </trkpt>
      <trkpt lat="45.41753" lon="5.7023">
        <ele>518.664</ele>
        <time>2020-08-12T15:13:31Z</time>
      </trkpt>
      <trkpt lat="45.41756" lon="5.70198">
        <ele>522.86145</ele>
        <time>2020-08-12T15:13:36Z</time>
      </trkpt>
      <trkpt lat="45.41766" lon="5.70176">
        <ele>525.3187</ele>
        <time>2020-08-12T15:13:41Z</time>
      </trkpt>
      <trkpt lat="45.41784" lon="5.70181">
        <ele>526.3704</ele>
        <time>2020-08-12T15:13:46Z</time>
      </trkpt>
      <trkpt lat="45.41795" lon="5.70199">
        <ele>526.7224</ele>
        <time>2020-08-12T15:13:51Z</time>
      </trkpt>
      <trkpt lat="45.41805" lon="5.7022">
        <ele>528.25433</ele>
        <time>2020-08-12T15:13:56Z</time>
      </trkpt>
      <trkpt lat="45.41814" lon="5.70238">
        <ele>528.48236</ele>
        <time>2020-08-12T15:14:01Z</time>
      </trkpt>
      <trkpt lat="45.41824" lon="5.70251">
        <ele>531.10626</ele>
        <time>2020-08-12T15:14:06Z</time>
      </trkpt>
      <trkpt lat="45.41839" lon="5.70262">
        <ele>531.4047</ele>
        <time>2020-08-12T15:14:11Z</time>
      </trkpt>
      <trkpt lat="45.41855" lon="5.70268">
        <ele>530.70276</ele>
        <time>2020-08-12T15:14:16Z</time>
      </trkpt>
      <trkpt lat="45.41869" lon="5.70276">
        <ele>531.20294</ele>
        <time>2020-08-12T15:14:21Z</time>
      </trkpt>
      <trkpt lat="45.41883" lon="5.70286">
        <ele>531.2555</ele>
        <time>2020-08-12T15:14:26Z</time>
      </trkpt>
      <trkpt lat="45.41898" lon="5.70295">
        <ele>529.9125</ele>
        <time>2020-08-12T15:14:31Z</time>
      </trkpt>
      <trkpt lat="45.41916" lon="5.70299">
        <ele>531.8377</ele>
        <time>2020-08-12T15:14:36Z</time>
      </trkpt>
      <trkpt lat="45.41948" lon="5.70307">
        <ele>535.8084</ele>
        <time>2020-08-12T15:14:46Z</time>
      </trkpt>
      <trkpt lat="45.41963" lon="5.7031">
        <ele>538.0789</ele>
        <time>2020-08-12T15:14:51Z</time>
      </trkpt>
      <trkpt lat="45.41979" lon="5.70314">
        <ele>539.559</ele>
        <time>2020-08-12T15:14:56Z</time>
      </trkpt>
      <trkpt lat="45.41994" lon="5.7032">
        <ele>540.0101</ele>
        <time>2020-08-12T15:15:01Z</time>
      </trkpt>
      <trkpt lat="45.42009" lon="5.70326">
        <ele>540.3906</ele>
        <time>2020-08-12T15:15:06Z</time>
      </trkpt>
      <trkpt lat="45.42024" lon="5.7033">
        <ele>540.7176</ele>
        <time>2020-08-12T15:15:11Z</time>
      </trkpt>
      <trkpt lat="45.42039" lon="5.70327">
        <ele>541.66693</ele>
        <time>2020-08-12T15:15:16Z</time>
      </trkpt>
      <trkpt lat="45.42055" lon="5.70318">
        <ele>543.0243</ele>
        <time>2020-08-12T15:15:21Z</time>
      </trkpt>
      <trkpt lat="45.42069" lon="5.70306">
        <ele>541.4556</ele>
        <time>2020-08-12T15:15:26Z</time>
      </trkpt>
      <trkpt lat="45.42082" lon="5.703">
        <ele>542.1958</ele>
        <time>2020-08-12T15:15:31Z</time>
      </trkpt>
      <trkpt lat="45.42095" lon="5.70304">
        <ele>543.00323</ele>
        <time>2020-08-12T15:15:36Z</time>
      </trkpt>
      <trkpt lat="45.42108" lon="5.70313">
        <ele>543.7414</ele>
        <time>2020-08-12T15:15:41Z</time>
      </trkpt>
      <trkpt lat="45.42122" lon="5.70323">
        <ele>542.78033</ele>
        <time>2020-08-12T15:15:46Z</time>
      </trkpt>
      <trkpt lat="45.42137" lon="5.70333">
        <ele>546.4112</ele>
        <time>2020-08-12T15:15:51Z</time>
      </trkpt>
      <trkpt lat="45.42152" lon="5.70342">
        <ele>546.6972</ele>
        <time>2020-08-12T15:15:56Z</time>
      </trkpt>
      <trkpt lat="45.42167" lon="5.70351">
        <ele>546.6604</ele>
        <time>2020-08-12T15:16:01Z</time>
      </trkpt>
      <trkpt lat="45.42182" lon="5.70361">
        <ele>546.09045</ele>
        <time>2020-08-12T15:16:06Z</time>
      </trkpt>
      <trkpt lat="45.42197" lon="5.70369">
        <ele>548.0339</ele>
        <time>2020-08-12T15:16:11Z</time>
      </trkpt>
      <trkpt lat="45.42211" lon="5.70379">
        <ele>547.772</ele>
        <time>2020-08-12T15:16:16Z</time>
      </trkpt>
      <trkpt lat="45.42226" lon="5.70386">
        <ele>546.5763</ele>
        <time>2020-08-12T15:16:21Z</time>
      </trkpt>
      <trkpt lat="45.42241" lon="5.70391">
        <ele>548.2579</ele>
        <time>2020-08-12T15:16:26Z</time>
      </trkpt>
      <trkpt lat="45.42256" lon="5.70393">
        <ele>552.2272</ele>
        <time>2020-08-12T15:16:31Z</time>
      </trkpt>
      <trkpt lat="45.42271" lon="5.70393">
        <ele>551.696</ele>
        <time>2020-08-12T15:16:36Z</time>
      </trkpt>
      <trkpt lat="45.42287" lon="5.70392">
        <ele>550.9713</ele>
        <time>2020-08-12T15:16:41Z</time>
      </trkpt>
      <trkpt lat="45.42303" lon="5.70393">
        <ele>549.03296</ele>
        <time>2020-08-12T15:16:46Z</time>
      </trkpt>
      <trkpt lat="45.42315" lon="5.70402">
        <ele>549.88904</ele>
        <time>2020-08-12T15:16:51Z</time>
      </trkpt>
      <trkpt lat="45.42323" lon="5.7042">
        <ele>554.371</ele>
        <time>2020-08-12T15:16:56Z</time>
      </trkpt>
      <trkpt lat="45.42322" lon="5.70443">
        <ele>554.96533</ele>
        <time>2020-08-12T15:17:01Z</time>
      </trkpt>
      <trkpt lat="45.42337" lon="5.70481">
        <ele>561.15173</ele>
        <time>2020-08-12T15:17:11Z</time>
      </trkpt>
      <trkpt lat="45.42352" lon="5.70492">
        <ele>561.2875</ele>
        <time>2020-08-12T15:17:16Z</time>
      </trkpt>
      <trkpt lat="45.42368" lon="5.70502">
        <ele>561.8441</ele>
        <time>2020-08-12T15:17:21Z</time>
      </trkpt>
      <trkpt lat="45.42384" lon="5.70512">
        <ele>563.0259</ele>
        <time>2020-08-12T15:17:26Z</time>
      </trkpt>
      <trkpt lat="45.424" lon="5.70522">
        <ele>562.52496</ele>
        <time>2020-08-12T15:17:31Z</time>
      </trkpt>
      <trkpt lat="45.42413" lon="5.70529">
        <ele>564.20245</ele>
        <time>2020-08-12T15:17:36Z</time>
      </trkpt>
      <trkpt lat="45.42426" lon="5.70529">
        <ele>564.6718</ele>
        <time>2020-08-12T15:17:41Z</time>
      </trkpt>
      <trkpt lat="45.42439" lon="5.70546">
        <ele>565.4075</ele>
        <time>2020-08-12T15:17:46Z</time>
      </trkpt>
      <trkpt lat="45.42455" lon="5.70569">
        <ele>567.1504</ele>
        <time>2020-08-12T15:17:51Z</time>
      </trkpt>
      <trkpt lat="45.42475" lon="5.70589">
        <ele>566.441</ele>
        <time>2020-08-12T15:17:56Z</time>
      </trkpt>
      <trkpt lat="45.42495" lon="5.70601">
        <ele>564.9086</ele>
        <time>2020-08-12T15:18:01Z</time>
      </trkpt>
      <trkpt lat="45.42519" lon="5.70614">
        <ele>566.8062</ele>
        <time>2020-08-12T15:18:06Z</time>
      </trkpt>
      <trkpt lat="45.42548" lon="5.70624">
        <ele>567.6988</ele>
        <time>2020-08-12T15:18:11Z</time>
      </trkpt>
      <trkpt lat="45.42577" lon="5.70638">
        <ele>569.06714</ele>
        <time>2020-08-12T15:18:16Z</time>
      </trkpt>
      <trkpt lat="45.42605" lon="5.70655">
        <ele>571.1619</ele>
        <time>2020-08-12T15:18:21Z</time>
      </trkpt>
      <trkpt lat="45.42626" lon="5.7067">
        <ele>571.3535</ele>
        <time>2020-08-12T15:18:26Z</time>
      </trkpt>
      <trkpt lat="45.4264" lon="5.7068">
        <ele>569.7682</ele>
        <time>2020-08-12T15:18:31Z</time>
      </trkpt>
      <trkpt lat="45.42654" lon="5.7069">
        <ele>569.9724</ele>
        <time>2020-08-12T15:18:36Z</time>
      </trkpt>
      <trkpt lat="45.4267" lon="5.70695">
        <ele>572.12305</ele>
        <time>2020-08-12T15:18:41Z</time>
      </trkpt>
      <trkpt lat="45.42683" lon="5.707">
        <ele>572.7031</ele>
        <time>2020-08-12T15:18:46Z</time>
      </trkpt>
      <trkpt lat="45.4269" lon="5.70701">
        <ele>572.6021</ele>
        <time>2020-08-12T15:18:51Z</time>
      </trkpt>
      <trkpt lat="45.42696" lon="5.70704">
        <ele>576.1597</ele>
        <time>2020-08-12T15:19:01Z</time>
      </trkpt>
      <trkpt lat="45.42703" lon="5.70714">
        <ele>576.086</ele>
        <time>2020-08-12T15:19:06Z</time>
      </trkpt>
      <trkpt lat="45.42714" lon="5.70719">
        <ele>577.478</ele>
        <time>2020-08-12T15:19:11Z</time>
      </trkpt>
      <trkpt lat="45.42726" lon="5.70721">
        <ele>575.39844</ele>
        <time>2020-08-12T15:19:16Z</time>
      </trkpt>
      <trkpt lat="45.42736" lon="5.70726">
        <ele>576.07654</ele>
        <time>2020-08-12T15:19:21Z</time>
      </trkpt>
      <trkpt lat="45.42749" lon="5.7073">
        <ele>574.5161</ele>
        <time>2020-08-12T15:19:26Z</time>
      </trkpt>
      <trkpt lat="45.42781" lon="5.70731">
        <ele>579.8548</ele>
        <time>2020-08-12T15:19:36Z</time>
      </trkpt>
      <trkpt lat="45.42794" lon="5.70734">
        <ele>581.1396</ele>
        <time>2020-08-12T15:19:41Z</time>
      </trkpt>
      <trkpt lat="45.42807" lon="5.70737">
        <ele>579.94006</ele>
        <time>2020-08-12T15:19:46Z</time>
      </trkpt>
      <trkpt lat="45.4282" lon="5.7074">
        <ele>579.66943</ele>
        <time>2020-08-12T15:19:51Z</time>
      </trkpt>
      <trkpt lat="45.42833" lon="5.70745">
        <ele>582.95325</ele>
        <time>2020-08-12T15:19:56Z</time>
      </trkpt>
      <trkpt lat="45.42841" lon="5.70751">
        <ele>584.2983</ele>
        <time>2020-08-12T15:20:01Z</time>
      </trkpt>
      <trkpt lat="45.42852" lon="5.7076">
        <ele>585.8288</ele>
        <time>2020-08-12T15:20:06Z</time>
      </trkpt>
      <trkpt lat="45.42864" lon="5.70771">
        <ele>587.2604</ele>
        <time>2020-08-12T15:20:11Z</time>
      </trkpt>
      <trkpt lat="45.42879" lon="5.70786">
        <ele>591.3987</ele>
        <time>2020-08-12T15:20:16Z</time>
      </trkpt>
      <trkpt lat="45.42893" lon="5.70801">
        <ele>589.4264</ele>
        <time>2020-08-12T15:20:21Z</time>
      </trkpt>
      <trkpt lat="45.42908" lon="5.70807">
        <ele>589.5981</ele>
        <time>2020-08-12T15:20:26Z</time>
      </trkpt>
      <trkpt lat="45.42927" lon="5.70816">
        <ele>589.8636</ele>
        <time>2020-08-12T15:20:31Z</time>
      </trkpt>
      <trkpt lat="45.42944" lon="5.70821">
        <ele>589.7983</ele>
        <time>2020-08-12T15:20:36Z</time>
      </trkpt>
      <trkpt lat="45.42959" lon="5.70827">
        <ele>591.6937</ele>
        <time>2020-08-12T15:20:41Z</time>
      </trkpt>
      <trkpt lat="45.42975" lon="5.70832">
        <ele>594.28265</ele>
        <time>2020-08-12T15:20:46Z</time>
      </trkpt>
      <trkpt lat="45.42991" lon="5.70839">
        <ele>595.2121</ele>
        <time>2020-08-12T15:20:51Z</time>
      </trkpt>
      <trkpt lat="45.43007" lon="5.70845">
        <ele>595.8887</ele>
        <time>2020-08-12T15:20:56Z</time>
      </trkpt>
      <trkpt lat="45.43023" lon="5.70851">
        <ele>594.4049</ele>
        <time>2020-08-12T15:21:01Z</time>
      </trkpt>
      <trkpt lat="45.43038" lon="5.70856">
        <ele>593.4692</ele>
        <time>2020-08-12T15:21:06Z</time>
      </trkpt>
      <trkpt lat="45.43052" lon="5.70862">
        <ele>597.5759</ele>
        <time>2020-08-12T15:21:11Z</time>
      </trkpt>
      <trkpt lat="45.43072" lon="5.70856">
        <ele>597.27136</ele>
        <time>2020-08-12T15:21:16Z</time>
      </trkpt>
      <trkpt lat="45.43097" lon="5.70854">
        <ele>599.4573</ele>
        <time>2020-08-12T15:21:21Z</time>
      </trkpt>
      <trkpt lat="45.43123" lon="5.70869">
        <ele>601.39355</ele>
        <time>2020-08-12T15:21:26Z</time>
      </trkpt>
      <trkpt lat="45.43146" lon="5.70885">
        <ele>603.28467</ele>
        <time>2020-08-12T15:21:31Z</time>
      </trkpt>
      <trkpt lat="45.43169" lon="5.70899">
        <ele>604.1607</ele>
        <time>2020-08-12T15:21:36Z</time>
      </trkpt>
      <trkpt lat="45.4319" lon="5.70912">
        <ele>603.9119</ele>
        <time>2020-08-12T15:21:41Z</time>
      </trkpt>
      <trkpt lat="45.43213" lon="5.70932">
        <ele>602.8219</ele>
        <time>2020-08-12T15:21:46Z</time>
      </trkpt>
      <trkpt lat="45.43235" lon="5.70954">
        <ele>602.3707</ele>
        <time>2020-08-12T15:21:51Z</time>
      </trkpt>
      <trkpt lat="45.43261" lon="5.70974">
        <ele>601.6792</ele>
        <time>2020-08-12T15:21:56Z</time>
      </trkpt>
      <trkpt lat="45.43298" lon="5.70979">
        <ele>601.4336</ele>
        <time>2020-08-12T15:22:01Z</time>
      </trkpt>
      <trkpt lat="45.43336" lon="5.70986">
        <ele>603.82336</ele>
        <time>2020-08-12T15:22:06Z</time>
      </trkpt>
      <trkpt lat="45.43375" lon="5.70993">
        <ele>602.4993</ele>
        <time>2020-08-12T15:22:11Z</time>
      </trkpt>
      <trkpt lat="45.43396" lon="5.7101">
        <ele>601.3682</ele>
        <time>2020-08-12T15:22:16Z</time>
      </trkpt>
      <trkpt lat="45.43407" lon="5.7101">
        <ele>598.00275</ele>
        <time>2020-08-12T15:22:21Z</time>
      </trkpt>
      <trkpt lat="45.43395" lon="5.70991">
        <ele>612.7384</ele>
        <time>2020-08-12T15:24:30Z</time>
      </trkpt>
      <trkpt lat="45.43381" lon="5.70984">
        <ele>611.379</ele>
        <time>2020-08-12T15:24:36Z</time>
      </trkpt>
      <trkpt lat="45.43348" lon="5.70982">
        <ele>616.4741</ele>
        <time>2020-08-12T15:24:41Z</time>
      </trkpt>
      <trkpt lat="45.43314" lon="5.70975">
        <ele>619.49207</ele>
        <time>2020-08-12T15:24:46Z</time>
      </trkpt>
      <trkpt lat="45.43285" lon="5.7097">
        <ele>621.1589</ele>
        <time>2020-08-12T15:24:51Z</time>
      </trkpt>
      <trkpt lat="45.43259" lon="5.70967">
        <ele>622.4555</ele>
        <time>2020-08-12T15:24:56Z</time>
      </trkpt>
      <trkpt lat="45.43243" lon="5.70958">
        <ele>621.8489</ele>
        <time>2020-08-12T15:25:01Z</time>
      </trkpt>
      <trkpt lat="45.43232" lon="5.70946">
        <ele>621.58936</ele>
        <time>2020-08-12T15:25:06Z</time>
      </trkpt>
      <trkpt lat="45.43222" lon="5.70933">
        <ele>621.5503</ele>
        <time>2020-08-12T15:25:11Z</time>
      </trkpt>
      <trkpt lat="45.43217" lon="5.70927">
        <ele>621.35406</ele>
        <time>2020-08-12T15:25:16Z</time>
      </trkpt>
      <trkpt lat="45.43227" lon="5.70944">
        <ele>622.1907</ele>
        <time>2020-08-12T15:25:21Z</time>
      </trkpt>
      <trkpt lat="45.43255" lon="5.70971">
        <ele>621.4902</ele>
        <time>2020-08-12T15:25:26Z</time>
      </trkpt>
      <trkpt lat="45.4329" lon="5.70979">
        <ele>619.6123</ele>
        <time>2020-08-12T15:25:31Z</time>
      </trkpt>
      <trkpt lat="45.43333" lon="5.70987">
        <ele>618.42346</ele>
        <time>2020-08-12T15:25:36Z</time>
      </trkpt>
      <trkpt lat="45.43375" lon="5.70991">
        <ele>618.13544</ele>
        <time>2020-08-12T15:25:41Z</time>
      </trkpt>
      <trkpt lat="45.4341" lon="5.70981">
        <ele>620.6894</ele>
        <time>2020-08-12T15:25:46Z</time>
      </trkpt>
      <trkpt lat="45.43432" lon="5.7097">
        <ele>619.9509</ele>
        <time>2020-08-12T15:25:51Z</time>
      </trkpt>
      <trkpt lat="45.4345" lon="5.70972">
        <ele>619.59436</ele>
        <time>2020-08-12T15:25:56Z</time>
      </trkpt>
      <trkpt lat="45.4347" lon="5.70976">
        <ele>621.18207</ele>
        <time>2020-08-12T15:26:01Z</time>
      </trkpt>
      <trkpt lat="45.43492" lon="5.70976">
        <ele>621.92377</ele>
        <time>2020-08-12T15:26:06Z</time>
      </trkpt>
      <trkpt lat="45.43514" lon="5.70961">
        <ele>624.093</ele>
        <time>2020-08-12T15:26:11Z</time>
      </trkpt>
      <trkpt lat="45.43533" lon="5.70936">
        <ele>623.3924</ele>
        <time>2020-08-12T15:26:16Z</time>
      </trkpt>
      <trkpt lat="45.43549" lon="5.70917">
        <ele>624.0065</ele>
        <time>2020-08-12T15:26:21Z</time>
      </trkpt>
      <trkpt lat="45.43562" lon="5.70903">
        <ele>626.0873</ele>
        <time>2020-08-12T15:26:26Z</time>
      </trkpt>
      <trkpt lat="45.43573" lon="5.70888">
        <ele>627.47076</ele>
        <time>2020-08-12T15:26:31Z</time>
      </trkpt>
      <trkpt lat="45.43585" lon="5.70876">
        <ele>627.171</ele>
        <time>2020-08-12T15:26:36Z</time>
      </trkpt>
      <trkpt lat="45.43597" lon="5.70867">
        <ele>627.8886</ele>
        <time>2020-08-12T15:26:41Z</time>
      </trkpt>
      <trkpt lat="45.4362" lon="5.70846">
        <ele>629.93494</ele>
        <time>2020-08-12T15:26:51Z</time>
      </trkpt>
      <trkpt lat="45.4363" lon="5.70838">
        <ele>630.3149</ele>
        <time>2020-08-12T15:26:56Z</time>
      </trkpt>
      <trkpt lat="45.4364" lon="5.70829">
        <ele>631.1508</ele>
        <time>2020-08-12T15:27:01Z</time>
      </trkpt>
      <trkpt lat="45.43649" lon="5.70823">
        <ele>631.726</ele>
        <time>2020-08-12T15:27:06Z</time>
      </trkpt>
      <trkpt lat="45.43662" lon="5.70822">
        <ele>632.5367</ele>
        <time>2020-08-12T15:27:11Z</time>
      </trkpt>
      <trkpt lat="45.43674" lon="5.70822">
        <ele>633.11084</ele>
        <time>2020-08-12T15:27:16Z</time>
      </trkpt>
      <trkpt lat="45.43688" lon="5.70826">
        <ele>634.7312</ele>
        <time>2020-08-12T15:27:21Z</time>
      </trkpt>
      <trkpt lat="45.43699" lon="5.70829">
        <ele>635.43</ele>
        <time>2020-08-12T15:27:26Z</time>
      </trkpt>
      <trkpt lat="45.4371" lon="5.70831">
        <ele>635.5092</ele>
        <time>2020-08-12T15:27:31Z</time>
      </trkpt>
      <trkpt lat="45.43718" lon="5.70829">
        <ele>636.09827</ele>
        <time>2020-08-12T15:27:36Z</time>
      </trkpt>
      <trkpt lat="45.43727" lon="5.70827">
        <ele>637.1402</ele>
        <time>2020-08-12T15:27:41Z</time>
      </trkpt>
      <trkpt lat="45.43742" lon="5.70829">
        <ele>637.37775</ele>
        <time>2020-08-12T15:27:46Z</time>
      </trkpt>
      <trkpt lat="45.43757" lon="5.70831">
        <ele>638.6795</ele>
        <time>2020-08-12T15:27:51Z</time>
      </trkpt>
      <trkpt lat="45.43769" lon="5.70831">
        <ele>638.5412</ele>
        <time>2020-08-12T15:27:56Z</time>
      </trkpt>
      <trkpt lat="45.43782" lon="5.7083">
        <ele>639.5875</ele>
        <time>2020-08-12T15:28:01Z</time>
      </trkpt>
      <trkpt lat="45.43795" lon="5.70831">
        <ele>641.81757</ele>
        <time>2020-08-12T15:28:06Z</time>
      </trkpt>
      <trkpt lat="45.43808" lon="5.70832">
        <ele>642.28534</ele>
        <time>2020-08-12T15:28:11Z</time>
      </trkpt>
      <trkpt lat="45.43823" lon="5.70833">
        <ele>642.57996</ele>
        <time>2020-08-12T15:28:16Z</time>
      </trkpt>
      <trkpt lat="45.43839" lon="5.7083">
        <ele>641.50183</ele>
        <time>2020-08-12T15:28:21Z</time>
      </trkpt>
      <trkpt lat="45.43853" lon="5.70824">
        <ele>647.607</ele>
        <time>2020-08-12T15:28:26Z</time>
      </trkpt>
      <trkpt lat="45.43865" lon="5.70818">
        <ele>648.209</ele>
        <time>2020-08-12T15:28:31Z</time>
      </trkpt>
      <trkpt lat="45.43877" lon="5.70809">
        <ele>650.37756</ele>
        <time>2020-08-12T15:28:36Z</time>
      </trkpt>
      <trkpt lat="45.43889" lon="5.70801">
        <ele>652.2262</ele>
        <time>2020-08-12T15:28:41Z</time>
      </trkpt>
      <trkpt lat="45.43902" lon="5.70792">
        <ele>652.45654</ele>
        <time>2020-08-12T15:28:46Z</time>
      </trkpt>
      <trkpt lat="45.43914" lon="5.70782">
        <ele>653.2647</ele>
        <time>2020-08-12T15:28:51Z</time>
      </trkpt>
      <trkpt lat="45.43927" lon="5.70772">
        <ele>652.71326</ele>
        <time>2020-08-12T15:28:56Z</time>
      </trkpt>
      <trkpt lat="45.43941" lon="5.70764">
        <ele>652.34875</ele>
        <time>2020-08-12T15:29:01Z</time>
      </trkpt>
      <trkpt lat="45.43955" lon="5.70757">
        <ele>651.61774</ele>
        <time>2020-08-12T15:29:06Z</time>
      </trkpt>
      <trkpt lat="45.4398" lon="5.70749">
        <ele>653.74225</ele>
        <time>2020-08-12T15:29:16Z</time>
      </trkpt>
      <trkpt lat="45.43992" lon="5.70749">
        <ele>656.466</ele>
        <time>2020-08-12T15:29:21Z</time>
      </trkpt>
      <trkpt lat="45.44005" lon="5.70749">
        <ele>655.7676</ele>
        <time>2020-08-12T15:29:26Z</time>
      </trkpt>
      <trkpt lat="45.44019" lon="5.70747">
        <ele>658.573</ele>
        <time>2020-08-12T15:29:31Z</time>
      </trkpt>
      <trkpt lat="45.44032" lon="5.70746">
        <ele>661.38715</ele>
        <time>2020-08-12T15:29:36Z</time>
      </trkpt>
      <trkpt lat="45.44044" lon="5.70743">
        <ele>660.4846</ele>
        <time>2020-08-12T15:29:41Z</time>
      </trkpt>
      <trkpt lat="45.44056" lon="5.70739">
        <ele>660.3716</ele>
        <time>2020-08-12T15:29:46Z</time>
      </trkpt>
      <trkpt lat="45.44068" lon="5.70735">
        <ele>660.7975</ele>
        <time>2020-08-12T15:29:51Z</time>
      </trkpt>
      <trkpt lat="45.4408" lon="5.7073">
        <ele>660.2891</ele>
        <time>2020-08-12T15:29:56Z</time>
      </trkpt>
      <trkpt lat="45.44095" lon="5.70727">
        <ele>662.2929</ele>
        <time>2020-08-12T15:30:01Z</time>
      </trkpt>
      <trkpt lat="45.44109" lon="5.70722">
        <ele>663.2515</ele>
        <time>2020-08-12T15:30:06Z</time>
      </trkpt>
      <trkpt lat="45.44123" lon="5.70718">
        <ele>662.8974</ele>
        <time>2020-08-12T15:30:11Z</time>
      </trkpt>
      <trkpt lat="45.44137" lon="5.70717">
        <ele>665.2132</ele>
        <time>2020-08-12T15:30:16Z</time>
      </trkpt>
      <trkpt lat="45.44151" lon="5.70719">
        <ele>665.5758</ele>
        <time>2020-08-12T15:30:21Z</time>
      </trkpt>
      <trkpt lat="45.44167" lon="5.70719">
        <ele>664.652</ele>
        <time>2020-08-12T15:30:26Z</time>
      </trkpt>
      <trkpt lat="45.44182" lon="5.70715">
        <ele>664.3666</ele>
        <time>2020-08-12T15:30:31Z</time>
      </trkpt>
      <trkpt lat="45.44193" lon="5.70707">
        <ele>664.44904</ele>
        <time>2020-08-12T15:30:36Z</time>
      </trkpt>
      <trkpt lat="45.44202" lon="5.70696">
        <ele>665.1044</ele>
        <time>2020-08-12T15:30:41Z</time>
      </trkpt>
      <trkpt lat="45.44209" lon="5.70681">
        <ele>665.48596</ele>
        <time>2020-08-12T15:30:46Z</time>
      </trkpt>
      <trkpt lat="45.44216" lon="5.70664">
        <ele>670.8605</ele>
        <time>2020-08-12T15:30:51Z</time>
      </trkpt>
      <trkpt lat="45.4422" lon="5.70643">
        <ele>671.0635</ele>
        <time>2020-08-12T15:30:56Z</time>
      </trkpt>
      <trkpt lat="45.44219" lon="5.70626">
        <ele>671.26117</ele>
        <time>2020-08-12T15:31:01Z</time>
      </trkpt>
      <trkpt lat="45.44213" lon="5.70606">
        <ele>671.34894</ele>
        <time>2020-08-12T15:31:06Z</time>
      </trkpt>
      <trkpt lat="45.44206" lon="5.70594">
        <ele>672.2466</ele>
        <time>2020-08-12T15:31:11Z</time>
      </trkpt>
      <trkpt lat="45.44196" lon="5.70578">
        <ele>672.3333</ele>
        <time>2020-08-12T15:31:16Z</time>
      </trkpt>
      <trkpt lat="45.44188" lon="5.70562">
        <ele>673.07556</ele>
        <time>2020-08-12T15:31:21Z</time>
      </trkpt>
      <trkpt lat="45.44182" lon="5.70545">
        <ele>671.9442</ele>
        <time>2020-08-12T15:31:26Z</time>
      </trkpt>
      <trkpt lat="45.44178" lon="5.70526">
        <ele>673.8771</ele>
        <time>2020-08-12T15:31:31Z</time>
      </trkpt>
      <trkpt lat="45.4418" lon="5.70491">
        <ele>674.8911</ele>
        <time>2020-08-12T15:31:41Z</time>
      </trkpt>
      <trkpt lat="45.44179" lon="5.70472">
        <ele>676.0036</ele>
        <time>2020-08-12T15:31:46Z</time>
      </trkpt>
      <trkpt lat="45.4418" lon="5.70454">
        <ele>681.4472</ele>
        <time>2020-08-12T15:31:51Z</time>
      </trkpt>
      <trkpt lat="45.4418" lon="5.70435">
        <ele>682.7864</ele>
        <time>2020-08-12T15:31:56Z</time>
      </trkpt>
      <trkpt lat="45.44182" lon="5.7042">
        <ele>686.7334</ele>
        <time>2020-08-12T15:32:01Z</time>
      </trkpt>
      <trkpt lat="45.44181" lon="5.704">
        <ele>684.62915</ele>
        <time>2020-08-12T15:32:06Z</time>
      </trkpt>
      <trkpt lat="45.44182" lon="5.70382">
        <ele>682.36115</ele>
        <time>2020-08-12T15:32:11Z</time>
      </trkpt>
      <trkpt lat="45.44187" lon="5.70362">
        <ele>681.7212</ele>
        <time>2020-08-12T15:32:16Z</time>
      </trkpt>
      <trkpt lat="45.44194" lon="5.70346">
        <ele>682.33466</ele>
        <time>2020-08-12T15:32:21Z</time>
      </trkpt>
      <trkpt lat="45.442" lon="5.70331">
        <ele>684.25146</ele>
        <time>2020-08-12T15:32:26Z</time>
      </trkpt>
      <trkpt lat="45.44207" lon="5.7032">
        <ele>684.9994</ele>
        <time>2020-08-12T15:32:31Z</time>
      </trkpt>
      <trkpt lat="45.44218" lon="5.70312">
        <ele>688.4199</ele>
        <time>2020-08-12T15:32:36Z</time>
      </trkpt>
      <trkpt lat="45.44231" lon="5.70303">
        <ele>689.4547</ele>
        <time>2020-08-12T15:32:41Z</time>
      </trkpt>
      <trkpt lat="45.44244" lon="5.70299">
        <ele>690.7859</ele>
        <time>2020-08-12T15:32:46Z</time>
      </trkpt>
      <trkpt lat="45.44257" lon="5.70301">
        <ele>688.2549</ele>
        <time>2020-08-12T15:32:51Z</time>
      </trkpt>
      <trkpt lat="45.44268" lon="5.70303">
        <ele>685.83307</ele>
        <time>2020-08-12T15:32:56Z</time>
      </trkpt>
      <trkpt lat="45.4428" lon="5.70308">
        <ele>688.2845</ele>
        <time>2020-08-12T15:33:01Z</time>
      </trkpt>
      <trkpt lat="45.44293" lon="5.70311">
        <ele>687.9152</ele>
        <time>2020-08-12T15:33:06Z</time>
      </trkpt>
      <trkpt lat="45.44304" lon="5.70311">
        <ele>685.87115</ele>
        <time>2020-08-12T15:33:11Z</time>
      </trkpt>
      <trkpt lat="45.44316" lon="5.70306">
        <ele>687.4349</ele>
        <time>2020-08-12T15:33:16Z</time>
      </trkpt>
      <trkpt lat="45.44327" lon="5.70297">
        <ele>689.3193</ele>
        <time>2020-08-12T15:33:21Z</time>
      </trkpt>
      <trkpt lat="45.44337" lon="5.70286">
        <ele>690.73083</ele>
        <time>2020-08-12T15:33:26Z</time>
      </trkpt>
      <trkpt lat="45.44345" lon="5.70272">
        <ele>695.23175</ele>
        <time>2020-08-12T15:33:31Z</time>
      </trkpt>
      <trkpt lat="45.44349" lon="5.70256">
        <ele>697.0416</ele>
        <time>2020-08-12T15:33:36Z</time>
      </trkpt>
      <trkpt lat="45.44355" lon="5.70237">
        <ele>701.10754</ele>
        <time>2020-08-12T15:33:41Z</time>
      </trkpt>
      <trkpt lat="45.44362" lon="5.70221">
        <ele>702.73267</ele>
        <time>2020-08-12T15:33:46Z</time>
      </trkpt>
      <trkpt lat="45.44368" lon="5.70206">
        <ele>701.33093</ele>
        <time>2020-08-12T15:33:51Z</time>
      </trkpt>
      <trkpt lat="45.44375" lon="5.70192">
        <ele>701.8603</ele>
        <time>2020-08-12T15:33:56Z</time>
      </trkpt>
      <trkpt lat="45.44389" lon="5.70166">
        <ele>705.7608</ele>
        <time>2020-08-12T15:34:06Z</time>
      </trkpt>
      <trkpt lat="45.44398" lon="5.70155">
        <ele>706.80804</ele>
        <time>2020-08-12T15:34:11Z</time>
      </trkpt>
      <trkpt lat="45.44405" lon="5.70147">
        <ele>707.0156</ele>
        <time>2020-08-12T15:34:16Z</time>
      </trkpt>
      <trkpt lat="45.44414" lon="5.7014">
        <ele>703.676</ele>
        <time>2020-08-12T15:34:21Z</time>
      </trkpt>
      <trkpt lat="45.44425" lon="5.70133">
        <ele>704.756</ele>
        <time>2020-08-12T15:34:26Z</time>
      </trkpt>
      <trkpt lat="45.44439" lon="5.70129">
        <ele>707.4286</ele>
        <time>2020-08-12T15:34:31Z</time>
      </trkpt>
      <trkpt lat="45.44452" lon="5.70124">
        <ele>706.4089</ele>
        <time>2020-08-12T15:34:36Z</time>
      </trkpt>
      <trkpt lat="45.44463" lon="5.7012">
        <ele>705.24304</ele>
        <time>2020-08-12T15:34:41Z</time>
      </trkpt>
      <trkpt lat="45.44474" lon="5.70119">
        <ele>706.23413</ele>
        <time>2020-08-12T15:34:46Z</time>
      </trkpt>
      <trkpt lat="45.44486" lon="5.70115">
        <ele>706.4851</ele>
        <time>2020-08-12T15:34:51Z</time>
      </trkpt>
      <trkpt lat="45.44497" lon="5.70111">
        <ele>703.5913</ele>
        <time>2020-08-12T15:34:56Z</time>
      </trkpt>
      <trkpt lat="45.44511" lon="5.70106">
        <ele>704.62573</ele>
        <time>2020-08-12T15:35:01Z</time>
      </trkpt>
      <trkpt lat="45.44522" lon="5.70104">
        <ele>707.6838</ele>
        <time>2020-08-12T15:35:06Z</time>
      </trkpt>
      <trkpt lat="45.44535" lon="5.70101">
        <ele>710.05176</ele>
        <time>2020-08-12T15:35:11Z</time>
      </trkpt>
      <trkpt lat="45.44549" lon="5.701">
        <ele>709.4269</ele>
        <time>2020-08-12T15:35:16Z</time>
      </trkpt>
      <trkpt lat="45.44561" lon="5.70098">
        <ele>711.1934</ele>
        <time>2020-08-12T15:35:21Z</time>
      </trkpt>
      <trkpt lat="45.44572" lon="5.70092">
        <ele>712.73346</ele>
        <time>2020-08-12T15:35:26Z</time>
      </trkpt>
      <trkpt lat="45.44577" lon="5.70077">
        <ele>713.69305</ele>
        <time>2020-08-12T15:35:31Z</time>
      </trkpt>
      <trkpt lat="45.44578" lon="5.7006">
        <ele>716.2153</ele>
        <time>2020-08-12T15:35:36Z</time>
      </trkpt>
      <trkpt lat="45.4457" lon="5.70047">
        <ele>715.66016</ele>
        <time>2020-08-12T15:35:41Z</time>
      </trkpt>
      <trkpt lat="45.44556" lon="5.70043">
        <ele>715.39954</ele>
        <time>2020-08-12T15:35:46Z</time>
      </trkpt>
      <trkpt lat="45.44545" lon="5.70042">
        <ele>714.0839</ele>
        <time>2020-08-12T15:35:51Z</time>
      </trkpt>
      <trkpt lat="45.44534" lon="5.70037">
        <ele>714.711</ele>
        <time>2020-08-12T15:35:56Z</time>
      </trkpt>
      <trkpt lat="45.44521" lon="5.70026">
        <ele>715.8583</ele>
        <time>2020-08-12T15:36:01Z</time>
      </trkpt>
      <trkpt lat="45.44511" lon="5.70016">
        <ele>717.1337</ele>
        <time>2020-08-12T15:36:06Z</time>
      </trkpt>
      <trkpt lat="45.44503" lon="5.70006">
        <ele>717.52783</ele>
        <time>2020-08-12T15:36:11Z</time>
      </trkpt>
      <trkpt lat="45.4449" lon="5.69995">
        <ele>718.3976</ele>
        <time>2020-08-12T15:36:16Z</time>
      </trkpt>
      <trkpt lat="45.44478" lon="5.69987">
        <ele>719.2367</ele>
        <time>2020-08-12T15:36:21Z</time>
      </trkpt>
      <trkpt lat="45.44453" lon="5.69973">
        <ele>718.8775</ele>
        <time>2020-08-12T15:36:31Z</time>
      </trkpt>
      <trkpt lat="45.44441" lon="5.69967">
        <ele>719.0386</ele>
        <time>2020-08-12T15:36:36Z</time>
      </trkpt>
      <trkpt lat="45.4443" lon="5.6996">
        <ele>722.29034</ele>
        <time>2020-08-12T15:36:41Z</time>
      </trkpt>
      <trkpt lat="45.44421" lon="5.69951">
        <ele>726.47516</ele>
        <time>2020-08-12T15:36:46Z</time>
      </trkpt>
      <trkpt lat="45.44412" lon="5.69939">
        <ele>729.004</ele>
        <time>2020-08-12T15:36:51Z</time>
      </trkpt>
      <trkpt lat="45.44404" lon="5.69927">
        <ele>730.08307</ele>
        <time>2020-08-12T15:36:56Z</time>
      </trkpt>
      <trkpt lat="45.44397" lon="5.69911">
        <ele>732.7035</ele>
        <time>2020-08-12T15:37:01Z</time>
      </trkpt>
      <trkpt lat="45.44392" lon="5.69896">
        <ele>736.95807</ele>
        <time>2020-08-12T15:37:06Z</time>
      </trkpt>
      <trkpt lat="45.44388" lon="5.69883">
        <ele>738.66095</ele>
        <time>2020-08-12T15:37:11Z</time>
      </trkpt>
      <trkpt lat="45.44385" lon="5.69867">
        <ele>740.61743</ele>
        <time>2020-08-12T15:37:16Z</time>
      </trkpt>
      <trkpt lat="45.44381" lon="5.6985">
        <ele>742.09045</ele>
        <time>2020-08-12T15:37:21Z</time>
      </trkpt>
      <trkpt lat="45.44376" lon="5.69833">
        <ele>744.1002</ele>
        <time>2020-08-12T15:37:26Z</time>
      </trkpt>
      <trkpt lat="45.44373" lon="5.69816">
        <ele>745.565</ele>
        <time>2020-08-12T15:37:31Z</time>
      </trkpt>
      <trkpt lat="45.44367" lon="5.69799">
        <ele>745.89166</ele>
        <time>2020-08-12T15:37:36Z</time>
      </trkpt>
      <trkpt lat="45.44364" lon="5.69783">
        <ele>747.783</ele>
        <time>2020-08-12T15:37:41Z</time>
      </trkpt>
      <trkpt lat="45.4436" lon="5.69766">
        <ele>750.8489</ele>
        <time>2020-08-12T15:37:46Z</time>
      </trkpt>
      <trkpt lat="45.44356" lon="5.69748">
        <ele>753.49396</ele>
        <time>2020-08-12T15:37:51Z</time>
      </trkpt>
      <trkpt lat="45.44351" lon="5.69737">
        <ele>752.64935</ele>
        <time>2020-08-12T15:37:56Z</time>
      </trkpt>
      <trkpt lat="45.44348" lon="5.69725">
        <ele>747.0044</ele>
        <time>2020-08-12T15:38:01Z</time>
      </trkpt>
      <trkpt lat="45.44344" lon="5.6971">
        <ele>745.0177</ele>
        <time>2020-08-12T15:38:06Z</time>
      </trkpt>
      <trkpt lat="45.44339" lon="5.69696">
        <ele>744.3961</ele>
        <time>2020-08-12T15:38:11Z</time>
      </trkpt>
      <trkpt lat="45.44335" lon="5.69679">
        <ele>744.09174</ele>
        <time>2020-08-12T15:38:16Z</time>
      </trkpt>
      <trkpt lat="45.44331" lon="5.69664">
        <ele>744.92755</ele>
        <time>2020-08-12T15:38:21Z</time>
      </trkpt>
      <trkpt lat="45.44326" lon="5.69646">
        <ele>749.8039</ele>
        <time>2020-08-12T15:38:26Z</time>
      </trkpt>
      <trkpt lat="45.4432" lon="5.69631">
        <ele>751.58624</ele>
        <time>2020-08-12T15:38:31Z</time>
      </trkpt>
      <trkpt lat="45.44312" lon="5.69619">
        <ele>749.4952</ele>
        <time>2020-08-12T15:38:36Z</time>
      </trkpt>
      <trkpt lat="45.44302" lon="5.69608">
        <ele>749.5461</ele>
        <time>2020-08-12T15:38:41Z</time>
      </trkpt>
      <trkpt lat="45.44293" lon="5.69595">
        <ele>750.5847</ele>
        <time>2020-08-12T15:38:46Z</time>
      </trkpt>
      <trkpt lat="45.44281" lon="5.69584">
        <ele>751.01013</ele>
        <time>2020-08-12T15:38:51Z</time>
      </trkpt>
      <trkpt lat="45.44272" lon="5.69576">
        <ele>750.71204</ele>
        <time>2020-08-12T15:38:56Z</time>
      </trkpt>
      <trkpt lat="45.44264" lon="5.69568">
        <ele>749.0061</ele>
        <time>2020-08-12T15:39:01Z</time>
      </trkpt>
      <trkpt lat="45.44254" lon="5.69559">
        <ele>747.73</ele>
        <time>2020-08-12T15:39:06Z</time>
      </trkpt>
      <trkpt lat="45.44244" lon="5.69555">
        <ele>747.82965</ele>
        <time>2020-08-12T15:39:11Z</time>
      </trkpt>
      <trkpt lat="45.44234" lon="5.69548">
        <ele>747.0606</ele>
        <time>2020-08-12T15:39:16Z</time>
      </trkpt>
      <trkpt lat="45.44222" lon="5.69539">
        <ele>744.2784</ele>
        <time>2020-08-12T15:39:21Z</time>
      </trkpt>
      <trkpt lat="45.4421" lon="5.6953">
        <ele>750.6717</ele>
        <time>2020-08-12T15:39:26Z</time>
      </trkpt>
      <trkpt lat="45.44202" lon="5.69522">
        <ele>748.429</ele>
        <time>2020-08-12T15:39:31Z</time>
      </trkpt>
      <trkpt lat="45.44183" lon="5.69501">
        <ele>742.678</ele>
        <time>2020-08-12T15:39:41Z</time>
      </trkpt>
      <trkpt lat="45.44173" lon="5.6949">
        <ele>756.9882</ele>
        <time>2020-08-12T15:39:46Z</time>
      </trkpt>
      <trkpt lat="45.44162" lon="5.69482">
        <ele>756.71765</ele>
        <time>2020-08-12T15:39:51Z</time>
      </trkpt>
      <trkpt lat="45.44151" lon="5.69478">
        <ele>758.7287</ele>
        <time>2020-08-12T15:39:56Z</time>
      </trkpt>
      <trkpt lat="45.4414" lon="5.69475">
        <ele>757.8754</ele>
        <time>2020-08-12T15:40:01Z</time>
      </trkpt>
      <trkpt lat="45.44127" lon="5.69472">
        <ele>755.72546</ele>
        <time>2020-08-12T15:40:06Z</time>
      </trkpt>
      <trkpt lat="45.44115" lon="5.69467">
        <ele>758.7531</ele>
        <time>2020-08-12T15:40:11Z</time>
      </trkpt>
      <trkpt lat="45.44104" lon="5.69461">
        <ele>757.4711</ele>
        <time>2020-08-12T15:40:16Z</time>
      </trkpt>
      <trkpt lat="45.44092" lon="5.69456">
        <ele>760.6253</ele>
        <time>2020-08-12T15:40:21Z</time>
      </trkpt>
      <trkpt lat="45.44079" lon="5.69453">
        <ele>760.79407</ele>
        <time>2020-08-12T15:40:26Z</time>
      </trkpt>
      <trkpt lat="45.44068" lon="5.69451">
        <ele>761.536</ele>
        <time>2020-08-12T15:40:31Z</time>
      </trkpt>
      <trkpt lat="45.44056" lon="5.69448">
        <ele>761.9754</ele>
        <time>2020-08-12T15:40:36Z</time>
      </trkpt>
      <trkpt lat="45.44044" lon="5.69444">
        <ele>762.3204</ele>
        <time>2020-08-12T15:40:41Z</time>
      </trkpt>
      <trkpt lat="45.44033" lon="5.69443">
        <ele>756.74097</ele>
        <time>2020-08-12T15:40:46Z</time>
      </trkpt>
      <trkpt lat="45.44022" lon="5.69437">
        <ele>757.95294</ele>
        <time>2020-08-12T15:40:51Z</time>
      </trkpt>
      <trkpt lat="45.44009" lon="5.69431">
        <ele>767.57837</ele>
        <time>2020-08-12T15:40:56Z</time>
      </trkpt>
      <trkpt lat="45.43998" lon="5.69425">
        <ele>767.43823</ele>
        <time>2020-08-12T15:41:01Z</time>
      </trkpt>
      <trkpt lat="45.43987" lon="5.69419">
        <ele>767.7769</ele>
        <time>2020-08-12T15:41:06Z</time>
      </trkpt>
      <trkpt lat="45.43978" lon="5.69413">
        <ele>768.1103</ele>
        <time>2020-08-12T15:41:11Z</time>
      </trkpt>
      <trkpt lat="45.43971" lon="5.69409">
        <ele>768.7431</ele>
        <time>2020-08-12T15:41:16Z</time>
      </trkpt>
      <trkpt lat="45.4396" lon="5.69406">
        <ele>767.57733</ele>
        <time>2020-08-12T15:41:21Z</time>
      </trkpt>
      <trkpt lat="45.43947" lon="5.69402">
        <ele>768.982</ele>
        <time>2020-08-12T15:41:26Z</time>
      </trkpt>
      <trkpt lat="45.43936" lon="5.69399">
        <ele>770.22534</ele>
        <time>2020-08-12T15:41:31Z</time>
      </trkpt>
      <trkpt lat="45.43928" lon="5.69393">
        <ele>770.889</ele>
        <time>2020-08-12T15:41:36Z</time>
      </trkpt>
      <trkpt lat="45.43919" lon="5.69391">
        <ele>771.3318</ele>
        <time>2020-08-12T15:41:41Z</time>
      </trkpt>
      <trkpt lat="45.43914" lon="5.69386">
        <ele>772.95013</ele>
        <time>2020-08-12T15:41:46Z</time>
      </trkpt>
      <trkpt lat="45.43899" lon="5.69384">
        <ele>774.3371</ele>
        <time>2020-08-12T15:41:51Z</time>
      </trkpt>
      <trkpt lat="45.43877" lon="5.69375">
        <ele>781.20294</ele>
        <time>2020-08-12T15:41:56Z</time>
      </trkpt>
      <trkpt lat="45.43849" lon="5.69359">
        <ele>797.74176</ele>
        <time>2020-08-12T15:42:06Z</time>
      </trkpt>
      <trkpt lat="45.43839" lon="5.6935">
        <ele>799.043</ele>
        <time>2020-08-12T15:42:11Z</time>
      </trkpt>
      <trkpt lat="45.43831" lon="5.69338">
        <ele>795.01404</ele>
        <time>2020-08-12T15:42:16Z</time>
      </trkpt>
      <trkpt lat="45.43826" lon="5.69326">
        <ele>791.87427</ele>
        <time>2020-08-12T15:42:21Z</time>
      </trkpt>
      <trkpt lat="45.43821" lon="5.69312">
        <ele>791.93915</ele>
        <time>2020-08-12T15:42:26Z</time>
      </trkpt>
      <trkpt lat="45.43818" lon="5.69293">
        <ele>792.55133</ele>
        <time>2020-08-12T15:42:31Z</time>
      </trkpt>
      <trkpt lat="45.43818" lon="5.69273">
        <ele>792.9265</ele>
        <time>2020-08-12T15:42:36Z</time>
      </trkpt>
      <trkpt lat="45.43818" lon="5.6925">
        <ele>800.35175</ele>
        <time>2020-08-12T15:42:41Z</time>
      </trkpt>
      <trkpt lat="45.43821" lon="5.69227">
        <ele>804.2073</ele>
        <time>2020-08-12T15:42:46Z</time>
      </trkpt>
      <trkpt lat="45.43823" lon="5.69203">
        <ele>805.77045</ele>
        <time>2020-08-12T15:42:51Z</time>
      </trkpt>
      <trkpt lat="45.43825" lon="5.69182">
        <ele>799.0759</ele>
        <time>2020-08-12T15:42:56Z</time>
      </trkpt>
      <trkpt lat="45.43828" lon="5.6916">
        <ele>795.9218</ele>
        <time>2020-08-12T15:43:01Z</time>
      </trkpt>
      <trkpt lat="45.4383" lon="5.69139">
        <ele>795.53064</ele>
        <time>2020-08-12T15:43:06Z</time>
      </trkpt>
      <trkpt lat="45.43833" lon="5.69125">
        <ele>796.3651</ele>
        <time>2020-08-12T15:43:11Z</time>
      </trkpt>
      <trkpt lat="45.43833" lon="5.69113">
        <ele>807.8092</ele>
        <time>2020-08-12T15:43:36Z</time>
      </trkpt>
      <trkpt lat="45.43834" lon="5.69075">
        <ele>808.8706</ele>
        <time>2020-08-12T15:43:46Z</time>
      </trkpt>
      <trkpt lat="45.43835" lon="5.69057">
        <ele>807.6412</ele>
        <time>2020-08-12T15:43:51Z</time>
      </trkpt>
      <trkpt lat="45.43838" lon="5.69035">
        <ele>807.8847</ele>
        <time>2020-08-12T15:43:56Z</time>
      </trkpt>
      <trkpt lat="45.4384" lon="5.69014">
        <ele>809.2897</ele>
        <time>2020-08-12T15:44:01Z</time>
      </trkpt>
      <trkpt lat="45.43842" lon="5.68993">
        <ele>811.0883</ele>
        <time>2020-08-12T15:44:06Z</time>
      </trkpt>
      <trkpt lat="45.43844" lon="5.68972">
        <ele>809.2897</ele>
        <time>2020-08-12T15:44:11Z</time>
      </trkpt>
      <trkpt lat="45.43844" lon="5.68952">
        <ele>807.71454</ele>
        <time>2020-08-12T15:44:16Z</time>
      </trkpt>
      <trkpt lat="45.43851" lon="5.68933">
        <ele>816.01373</ele>
        <time>2020-08-12T15:44:21Z</time>
      </trkpt>
      <trkpt lat="45.43863" lon="5.68918">
        <ele>814.81793</ele>
        <time>2020-08-12T15:44:26Z</time>
      </trkpt>
      <trkpt lat="45.43875" lon="5.68906">
        <ele>812.268</ele>
        <time>2020-08-12T15:44:31Z</time>
      </trkpt>
      <trkpt lat="45.43892" lon="5.689">
        <ele>812.19037</ele>
        <time>2020-08-12T15:44:36Z</time>
      </trkpt>
      <trkpt lat="45.43911" lon="5.68891">
        <ele>811.73505</ele>
        <time>2020-08-12T15:44:41Z</time>
      </trkpt>
      <trkpt lat="45.43928" lon="5.68881">
        <ele>814.18604</ele>
        <time>2020-08-12T15:44:46Z</time>
      </trkpt>
      <trkpt lat="45.43946" lon="5.68872">
        <ele>817.2894</ele>
        <time>2020-08-12T15:44:51Z</time>
      </trkpt>
      <trkpt lat="45.43964" lon="5.68862">
        <ele>823.7774</ele>
        <time>2020-08-12T15:44:56Z</time>
      </trkpt>
      <trkpt lat="45.43984" lon="5.68848">
        <ele>825.56757</ele>
        <time>2020-08-12T15:45:01Z</time>
      </trkpt>
      <trkpt lat="45.44" lon="5.68824">
        <ele>826.8012</ele>
        <time>2020-08-12T15:45:06Z</time>
      </trkpt>
      <trkpt lat="45.44007" lon="5.68796">
        <ele>829.19946</ele>
        <time>2020-08-12T15:45:11Z</time>
      </trkpt>
      <trkpt lat="45.44006" lon="5.68766">
        <ele>827.1248</ele>
        <time>2020-08-12T15:45:16Z</time>
      </trkpt>
      <trkpt lat="45.43995" lon="5.68742">
        <ele>826.05505</ele>
        <time>2020-08-12T15:45:21Z</time>
      </trkpt>
      <trkpt lat="45.43982" lon="5.68722">
        <ele>825.872</ele>
        <time>2020-08-12T15:45:26Z</time>
      </trkpt>
      <trkpt lat="45.43967" lon="5.68706">
        <ele>820.9104</ele>
        <time>2020-08-12T15:45:31Z</time>
      </trkpt>
      <trkpt lat="45.43953" lon="5.68685">
        <ele>824.7055</ele>
        <time>2020-08-12T15:45:36Z</time>
      </trkpt>
      <trkpt lat="45.43938" lon="5.68666">
        <ele>826.10724</ele>
        <time>2020-08-12T15:45:41Z</time>
      </trkpt>
      <trkpt lat="45.43925" lon="5.68649">
        <ele>827.8369</ele>
        <time>2020-08-12T15:45:46Z</time>
      </trkpt>
      <trkpt lat="45.43912" lon="5.68629">
        <ele>827.9827</ele>
        <time>2020-08-12T15:45:51Z</time>
      </trkpt>
      <trkpt lat="45.43899" lon="5.68613">
        <ele>827.4984</ele>
        <time>2020-08-12T15:45:56Z</time>
      </trkpt>
      <trkpt lat="45.43886" lon="5.68594">
        <ele>829.0515</ele>
        <time>2020-08-12T15:46:01Z</time>
      </trkpt>
      <trkpt lat="45.43862" lon="5.68558">
        <ele>830.50464</ele>
        <time>2020-08-12T15:46:11Z</time>
      </trkpt>
      <trkpt lat="45.43849" lon="5.68538">
        <ele>830.099</ele>
        <time>2020-08-12T15:46:16Z</time>
      </trkpt>
      <trkpt lat="45.43837" lon="5.68519">
        <ele>830.04364</ele>
        <time>2020-08-12T15:46:21Z</time>
      </trkpt>
      <trkpt lat="45.43824" lon="5.68502">
        <ele>831.5107</ele>
        <time>2020-08-12T15:46:26Z</time>
      </trkpt>
      <trkpt lat="45.43811" lon="5.68484">
        <ele>832.87665</ele>
        <time>2020-08-12T15:46:31Z</time>
      </trkpt>
      <trkpt lat="45.43796" lon="5.68469">
        <ele>833.7561</ele>
        <time>2020-08-12T15:46:36Z</time>
      </trkpt>
      <trkpt lat="45.43783" lon="5.68451">
        <ele>835.1211</ele>
        <time>2020-08-12T15:46:41Z</time>
      </trkpt>
      <trkpt lat="45.43769" lon="5.68435">
        <ele>837.0975</ele>
        <time>2020-08-12T15:46:46Z</time>
      </trkpt>
      <trkpt lat="45.43741" lon="5.68411">
        <ele>839.7971</ele>
        <time>2020-08-12T15:46:56Z</time>
      </trkpt>
      <trkpt lat="45.43725" lon="5.68397">
        <ele>839.42755</ele>
        <time>2020-08-12T15:47:01Z</time>
      </trkpt>
      <trkpt lat="45.4371" lon="5.68387">
        <ele>839.30505</ele>
        <time>2020-08-12T15:47:06Z</time>
      </trkpt>
      <trkpt lat="45.43695" lon="5.68376">
        <ele>840.0495</ele>
        <time>2020-08-12T15:47:11Z</time>
      </trkpt>
      <trkpt lat="45.43678" lon="5.68366">
        <ele>841.2967</ele>
        <time>2020-08-12T15:47:16Z</time>
      </trkpt>
      <trkpt lat="45.43662" lon="5.68355">
        <ele>841.63324</ele>
        <time>2020-08-12T15:47:21Z</time>
      </trkpt>
      <trkpt lat="45.43647" lon="5.68344">
        <ele>842.8475</ele>
        <time>2020-08-12T15:47:26Z</time>
      </trkpt>
      <trkpt lat="45.43634" lon="5.68335">
        <ele>844.08844</ele>
        <time>2020-08-12T15:47:31Z</time>
      </trkpt>
      <trkpt lat="45.4362" lon="5.68325">
        <ele>843.1596</ele>
        <time>2020-08-12T15:47:36Z</time>
      </trkpt>
      <trkpt lat="45.43604" lon="5.68313">
        <ele>843.9957</ele>
        <time>2020-08-12T15:47:41Z</time>
      </trkpt>
      <trkpt lat="45.43589" lon="5.68304">
        <ele>844.4133</ele>
        <time>2020-08-12T15:47:46Z</time>
      </trkpt>
      <trkpt lat="45.43572" lon="5.68292">
        <ele>847.13727</ele>
        <time>2020-08-12T15:47:51Z</time>
      </trkpt>
      <trkpt lat="45.43554" lon="5.68279">
        <ele>848.5723</ele>
        <time>2020-08-12T15:47:56Z</time>
      </trkpt>
      <trkpt lat="45.43537" lon="5.68267">
        <ele>847.4313</ele>
        <time>2020-08-12T15:48:01Z</time>
      </trkpt>
      <trkpt lat="45.43523" lon="5.68256">
        <ele>850.9323</ele>
        <time>2020-08-12T15:48:06Z</time>
      </trkpt>
      <trkpt lat="45.43507" lon="5.68245">
        <ele>853.33417</ele>
        <time>2020-08-12T15:48:11Z</time>
      </trkpt>
      <trkpt lat="45.43494" lon="5.68236">
        <ele>855.4282</ele>
        <time>2020-08-12T15:48:16Z</time>
      </trkpt>
      <trkpt lat="45.4348" lon="5.68224">
        <ele>854.2122</ele>
        <time>2020-08-12T15:48:21Z</time>
      </trkpt>
      <trkpt lat="45.43467" lon="5.68214">
        <ele>856.63574</ele>
        <time>2020-08-12T15:48:26Z</time>
      </trkpt>
      <trkpt lat="45.43454" lon="5.68202">
        <ele>857.8667</ele>
        <time>2020-08-12T15:48:31Z</time>
      </trkpt>
      <trkpt lat="45.43442" lon="5.68191">
        <ele>859.5082</ele>
        <time>2020-08-12T15:48:36Z</time>
      </trkpt>
      <trkpt lat="45.43425" lon="5.6818">
        <ele>860.62317</ele>
        <time>2020-08-12T15:48:41Z</time>
      </trkpt>
      <trkpt lat="45.43403" lon="5.68172">
        <ele>861.88104</ele>
        <time>2020-08-12T15:48:46Z</time>
      </trkpt>
      <trkpt lat="45.43388" lon="5.68163">
        <ele>861.8821</ele>
        <time>2020-08-12T15:48:51Z</time>
      </trkpt>
      <trkpt lat="45.43369" lon="5.68152">
        <ele>862.0857</ele>
        <time>2020-08-12T15:48:56Z</time>
      </trkpt>
      <trkpt lat="45.43354" lon="5.6814">
        <ele>861.7307</ele>
        <time>2020-08-12T15:49:01Z</time>
      </trkpt>
      <trkpt lat="45.43341" lon="5.68123">
        <ele>859.58386</ele>
        <time>2020-08-12T15:49:06Z</time>
      </trkpt>
      <trkpt lat="45.43329" lon="5.68104">
        <ele>859.54333</ele>
        <time>2020-08-12T15:49:11Z</time>
      </trkpt>
      <trkpt lat="45.43309" lon="5.68057">
        <ele>864.2893</ele>
        <time>2020-08-12T15:49:21Z</time>
      </trkpt>
      <trkpt lat="45.43307" lon="5.68034">
        <ele>864.6028</ele>
        <time>2020-08-12T15:49:26Z</time>
      </trkpt>
      <trkpt lat="45.43306" lon="5.68008">
        <ele>869.16205</ele>
        <time>2020-08-12T15:49:31Z</time>
      </trkpt>
      <trkpt lat="45.43304" lon="5.67977">
        <ele>871.7076</ele>
        <time>2020-08-12T15:49:36Z</time>
      </trkpt>
      <trkpt lat="45.43307" lon="5.6795">
        <ele>872.81464</ele>
        <time>2020-08-12T15:49:41Z</time>
      </trkpt>
      <trkpt lat="45.4331" lon="5.67924">
        <ele>869.7646</ele>
        <time>2020-08-12T15:49:46Z</time>
      </trkpt>
      <trkpt lat="45.4331" lon="5.67897">
        <ele>870.3074</ele>
        <time>2020-08-12T15:49:51Z</time>
      </trkpt>
      <trkpt lat="45.43312" lon="5.67873">
        <ele>869.99384</ele>
        <time>2020-08-12T15:49:56Z</time>
      </trkpt>
      <trkpt lat="45.43313" lon="5.6786">
        <ele>867.312</ele>
        <time>2020-08-12T15:50:01Z</time>
      </trkpt>
      <trkpt lat="45.43314" lon="5.67852">
        <ele>867.3845</ele>
        <time>2020-08-12T15:50:26Z</time>
      </trkpt>
      <trkpt lat="45.43313" lon="5.67844">
        <ele>868.0584</ele>
        <time>2020-08-12T15:51:21Z</time>
      </trkpt>
      <trkpt lat="45.43314" lon="5.67823">
        <ele>869.4553</ele>
        <time>2020-08-12T15:51:26Z</time>
      </trkpt>
      <trkpt lat="45.43315" lon="5.67805">
        <ele>868.53827</ele>
        <time>2020-08-12T15:51:31Z</time>
      </trkpt>
      <trkpt lat="45.43316" lon="5.67792">
        <ele>865.1241</ele>
        <time>2020-08-12T15:51:36Z</time>
      </trkpt>
      <trkpt lat="45.43313" lon="5.67796">
        <ele>868.0637</ele>
        <time>2020-08-12T15:52:01Z</time>
      </trkpt>
      <trkpt lat="45.43311" lon="5.67812">
        <ele>868.4348</ele>
        <time>2020-08-12T15:52:06Z</time>
      </trkpt>
      <trkpt lat="45.43311" lon="5.67823">
        <ele>867.2896</ele>
        <time>2020-08-12T15:52:11Z</time>
      </trkpt>
      <trkpt lat="45.43311" lon="5.67838">
        <ele>867.48157</ele>
        <time>2020-08-12T15:52:16Z</time>
      </trkpt>
      <trkpt lat="45.43312" lon="5.67858">
        <ele>872.1705</ele>
        <time>2020-08-12T15:52:21Z</time>
      </trkpt>
      <trkpt lat="45.43311" lon="5.67877">
        <ele>871.6383</ele>
        <time>2020-08-12T15:52:26Z</time>
      </trkpt>
      <trkpt lat="45.43313" lon="5.67907">
        <ele>869.96185</ele>
        <time>2020-08-12T15:52:31Z</time>
      </trkpt>
      <trkpt lat="45.43313" lon="5.67956">
        <ele>870.97284</ele>
        <time>2020-08-12T15:52:36Z</time>
      </trkpt>
      <trkpt lat="45.43308" lon="5.68015">
        <ele>872.244</ele>
        <time>2020-08-12T15:52:41Z</time>
      </trkpt>
      <trkpt lat="45.43314" lon="5.6807">
        <ele>871.11676</ele>
        <time>2020-08-12T15:52:46Z</time>
      </trkpt>
      <trkpt lat="45.43338" lon="5.68126">
        <ele>870.4268</ele>
        <time>2020-08-12T15:52:51Z</time>
      </trkpt>
      <trkpt lat="45.43381" lon="5.68156">
        <ele>869.6249</ele>
        <time>2020-08-12T15:52:56Z</time>
      </trkpt>
      <trkpt lat="45.43435" lon="5.68194">
        <ele>868.6289</ele>
        <time>2020-08-12T15:53:01Z</time>
      </trkpt>
      <trkpt lat="45.4349" lon="5.68234">
        <ele>864.67206</ele>
        <time>2020-08-12T15:53:06Z</time>
      </trkpt>
      <trkpt lat="45.43545" lon="5.68273">
        <ele>860.9813</ele>
        <time>2020-08-12T15:53:11Z</time>
      </trkpt>
      <trkpt lat="45.43601" lon="5.68314">
        <ele>858.794</ele>
        <time>2020-08-12T15:53:16Z</time>
      </trkpt>
      <trkpt lat="45.43655" lon="5.68352">
        <ele>856.8915</ele>
        <time>2020-08-12T15:53:21Z</time>
      </trkpt>
      <trkpt lat="45.43713" lon="5.68391">
        <ele>854.61084</ele>
        <time>2020-08-12T15:53:26Z</time>
      </trkpt>
      <trkpt lat="45.43767" lon="5.68435">
        <ele>852.9761</ele>
        <time>2020-08-12T15:53:31Z</time>
      </trkpt>
      <trkpt lat="45.43815" lon="5.68491">
        <ele>849.9478</ele>
        <time>2020-08-12T15:53:36Z</time>
      </trkpt>
      <trkpt lat="45.43858" lon="5.68554">
        <ele>846.36914</ele>
        <time>2020-08-12T15:53:41Z</time>
      </trkpt>
      <trkpt lat="45.43905" lon="5.68615">
        <ele>846.2573</ele>
        <time>2020-08-12T15:53:46Z</time>
      </trkpt>
      <trkpt lat="45.43948" lon="5.68678">
        <ele>846.0687</ele>
        <time>2020-08-12T15:53:51Z</time>
      </trkpt>
      <trkpt lat="45.43992" lon="5.68735">
        <ele>844.08203</ele>
        <time>2020-08-12T15:53:56Z</time>
      </trkpt>
      <trkpt lat="45.44001" lon="5.68809">
        <ele>843.4163</ele>
        <time>2020-08-12T15:54:01Z</time>
      </trkpt>
      <trkpt lat="45.43918" lon="5.68886">
        <ele>845.1462</ele>
        <time>2020-08-12T15:54:11Z</time>
      </trkpt>
      <trkpt lat="45.43872" lon="5.68908">
        <ele>842.9199</ele>
        <time>2020-08-12T15:54:16Z</time>
      </trkpt>
      <trkpt lat="45.43844" lon="5.68964">
        <ele>838.13574</ele>
        <time>2020-08-12T15:54:21Z</time>
      </trkpt>
      <trkpt lat="45.43838" lon="5.69047">
        <ele>832.3549</ele>
        <time>2020-08-12T15:54:26Z</time>
      </trkpt>
      <trkpt lat="45.43829" lon="5.69139">
        <ele>830.066</ele>
        <time>2020-08-12T15:54:31Z</time>
      </trkpt>
      <trkpt lat="45.4382" lon="5.69228">
        <ele>828.1669</ele>
        <time>2020-08-12T15:54:36Z</time>
      </trkpt>
      <trkpt lat="45.43812" lon="5.69306">
        <ele>827.6549</ele>
        <time>2020-08-12T15:54:41Z</time>
      </trkpt>
      <trkpt lat="45.43845" lon="5.69361">
        <ele>823.4315</ele>
        <time>2020-08-12T15:54:46Z</time>
      </trkpt>
      <trkpt lat="45.43905" lon="5.69382">
        <ele>820.23895</ele>
        <time>2020-08-12T15:54:51Z</time>
      </trkpt>
      <trkpt lat="45.43969" lon="5.69406">
        <ele>817.75757</ele>
        <time>2020-08-12T15:54:56Z</time>
      </trkpt>
      <trkpt lat="45.44032" lon="5.69438">
        <ele>813.8222</ele>
        <time>2020-08-12T15:55:01Z</time>
      </trkpt>
      <trkpt lat="45.44098" lon="5.69454">
        <ele>809.1578</ele>
        <time>2020-08-12T15:55:06Z</time>
      </trkpt>
      <trkpt lat="45.44164" lon="5.69478">
        <ele>807.3625</ele>
        <time>2020-08-12T15:55:11Z</time>
      </trkpt>
      <trkpt lat="45.44223" lon="5.69531">
        <ele>805.243</ele>
        <time>2020-08-12T15:55:16Z</time>
      </trkpt>
      <trkpt lat="45.44281" lon="5.69585">
        <ele>801.57874</ele>
        <time>2020-08-12T15:55:21Z</time>
      </trkpt>
      <trkpt lat="45.44326" lon="5.6965">
        <ele>797.3399</ele>
        <time>2020-08-12T15:55:26Z</time>
      </trkpt>
      <trkpt lat="45.44349" lon="5.69741">
        <ele>792.7235</ele>
        <time>2020-08-12T15:55:31Z</time>
      </trkpt>
      <trkpt lat="45.44373" lon="5.6983">
        <ele>786.63416</ele>
        <time>2020-08-12T15:55:36Z</time>
      </trkpt>
      <trkpt lat="45.44397" lon="5.69916">
        <ele>783.98</ele>
        <time>2020-08-12T15:55:41Z</time>
      </trkpt>
      <trkpt lat="45.4445" lon="5.69968">
        <ele>779.5511</ele>
        <time>2020-08-12T15:55:46Z</time>
      </trkpt>
      <trkpt lat="45.44507" lon="5.70005">
        <ele>773.7732</ele>
        <time>2020-08-12T15:55:51Z</time>
      </trkpt>
      <trkpt lat="45.44555" lon="5.70038">
        <ele>767.8948</ele>
        <time>2020-08-12T15:55:56Z</time>
      </trkpt>
      <trkpt lat="45.44573" lon="5.70063">
        <ele>767.17816</ele>
        <time>2020-08-12T15:56:01Z</time>
      </trkpt>
      <trkpt lat="45.44531" lon="5.70094">
        <ele>762.9297</ele>
        <time>2020-08-12T15:56:06Z</time>
      </trkpt>
      <trkpt lat="45.4448" lon="5.70108">
        <ele>761.44366</ele>
        <time>2020-08-12T15:56:11Z</time>
      </trkpt>
      <trkpt lat="45.44427" lon="5.70133">
        <ele>756.983</ele>
        <time>2020-08-12T15:56:16Z</time>
      </trkpt>
      <trkpt lat="45.44375" lon="5.70173">
        <ele>754.72266</ele>
        <time>2020-08-12T15:56:21Z</time>
      </trkpt>
      <trkpt lat="45.4434" lon="5.70242">
        <ele>749.59595</ele>
        <time>2020-08-12T15:56:26Z</time>
      </trkpt>
      <trkpt lat="45.4427" lon="5.70306">
        <ele>742.9813</ele>
        <time>2020-08-12T15:56:36Z</time>
      </trkpt>
      <trkpt lat="45.44211" lon="5.70323">
        <ele>739.1402</ele>
        <time>2020-08-12T15:56:41Z</time>
      </trkpt>
      <trkpt lat="45.44182" lon="5.70344">
        <ele>737.54016</ele>
        <time>2020-08-12T15:56:46Z</time>
      </trkpt>
      <trkpt lat="45.44159" lon="5.70352">
        <ele>736.87854</ele>
        <time>2020-08-12T15:56:51Z</time>
      </trkpt>
      <trkpt lat="45.44132" lon="5.7037">
        <ele>736.6654</ele>
        <time>2020-08-12T15:56:56Z</time>
      </trkpt>
      <trkpt lat="45.44101" lon="5.7039">
        <ele>736.7746</ele>
        <time>2020-08-12T15:57:01Z</time>
      </trkpt>
      <trkpt lat="45.4407" lon="5.70379">
        <ele>738.27814</ele>
        <time>2020-08-12T15:57:06Z</time>
      </trkpt>
      <trkpt lat="45.4405" lon="5.7036">
        <ele>731.866</ele>
        <time>2020-08-12T15:57:11Z</time>
      </trkpt>
      <trkpt lat="45.44037" lon="5.70346">
        <ele>732.34515</ele>
        <time>2020-08-12T15:57:16Z</time>
      </trkpt>
      <trkpt lat="45.44024" lon="5.7035">
        <ele>732.2985</ele>
        <time>2020-08-12T15:57:21Z</time>
      </trkpt>
      <trkpt lat="45.44011" lon="5.7036">
        <ele>733.4296</ele>
        <time>2020-08-12T15:57:26Z</time>
      </trkpt>
      <trkpt lat="45.43996" lon="5.70358">
        <ele>735.6889</ele>
        <time>2020-08-12T15:57:31Z</time>
      </trkpt>
      <trkpt lat="45.43985" lon="5.70354">
        <ele>736.6834</ele>
        <time>2020-08-12T15:57:36Z</time>
      </trkpt>
      <trkpt lat="45.43972" lon="5.70326">
        <ele>730.4572</ele>
        <time>2020-08-12T15:57:41Z</time>
      </trkpt>
      <trkpt lat="45.43976" lon="5.70312">
        <ele>730.86005</ele>
        <time>2020-08-12T15:57:56Z</time>
      </trkpt>
      <trkpt lat="45.43981" lon="5.70298">
        <ele>734.9923</ele>
        <time>2020-08-12T15:58:01Z</time>
      </trkpt>
      <trkpt lat="45.43985" lon="5.70288">
        <ele>734.5131</ele>
        <time>2020-08-12T15:58:06Z</time>
      </trkpt>
      <trkpt lat="45.43992" lon="5.70275">
        <ele>735.36237</ele>
        <time>2020-08-12T15:58:11Z</time>
      </trkpt>
      <trkpt lat="45.43996" lon="5.70267">
        <ele>735.87976</ele>
        <time>2020-08-12T15:58:16Z</time>
      </trkpt>
      <trkpt lat="45.44001" lon="5.70255">
        <ele>735.7716</ele>
        <time>2020-08-12T15:58:21Z</time>
      </trkpt>
      <trkpt lat="45.44004" lon="5.70242">
        <ele>736.77673</ele>
        <time>2020-08-12T15:58:26Z</time>
      </trkpt>
      <trkpt lat="45.44006" lon="5.70225">
        <ele>737.31006</ele>
        <time>2020-08-12T15:58:31Z</time>
      </trkpt>
      <trkpt lat="45.44002" lon="5.7022">
        <ele>738.2548</ele>
        <time>2020-08-12T15:58:36Z</time>
      </trkpt>
      <trkpt lat="45.4399" lon="5.70225">
        <ele>740.9387</ele>
        <time>2020-08-12T15:58:41Z</time>
      </trkpt>
      <trkpt lat="45.43977" lon="5.70234">
        <ele>740.03204</ele>
        <time>2020-08-12T15:58:46Z</time>
      </trkpt>
      <trkpt lat="45.43961" lon="5.70245">
        <ele>739.45624</ele>
        <time>2020-08-12T15:58:51Z</time>
      </trkpt>
      <trkpt lat="45.43925" lon="5.70252">
        <ele>740.69055</ele>
        <time>2020-08-12T15:59:01Z</time>
      </trkpt>
      <trkpt lat="45.43908" lon="5.70254">
        <ele>738.29724</ele>
        <time>2020-08-12T15:59:06Z</time>
      </trkpt>
      <trkpt lat="45.43891" lon="5.70261">
        <ele>737.89746</ele>
        <time>2020-08-12T15:59:11Z</time>
      </trkpt>
      <trkpt lat="45.43875" lon="5.70288">
        <ele>736.9315</ele>
        <time>2020-08-12T15:59:16Z</time>
      </trkpt>
      <trkpt lat="45.43856" lon="5.70311">
        <ele>735.46625</ele>
        <time>2020-08-12T15:59:21Z</time>
      </trkpt>
      <trkpt lat="45.43834" lon="5.70321">
        <ele>735.08777</ele>
        <time>2020-08-12T15:59:26Z</time>
      </trkpt>
      <trkpt lat="45.43815" lon="5.70317">
        <ele>734.4124</ele>
        <time>2020-08-12T15:59:31Z</time>
      </trkpt>
      <trkpt lat="45.43821" lon="5.70344">
        <ele>729.1344</ele>
        <time>2020-08-12T15:59:46Z</time>
      </trkpt>
      <trkpt lat="45.43824" lon="5.70359">
        <ele>726.42535</ele>
        <time>2020-08-12T15:59:50Z</time>
      </trkpt>
    </trkseg>
  </trk>
</gpx>